<?xml version="1.0" encoding="UTF-8" standalone="no" ?>
<gpx xmlns="http://www.topografix.com/GPX/1/1" xmlns:xsi="http://www.w3.org/2001/XMLSchema-instance" xsi:schemaLocation="http://www.topografix.com/GPX/1/1 http://www.topografix.com/GPX/1/1/gpx.xsd" version="1.1" creator="VisuGPX - https://www.visugpx.com">
  <metadata>
    <name>31-05-09 VTT Autour de Fresne</name>
    <desc><![CDATA[tour VTT autour de Fresne sans descendre jusqu'au Andelys]]></desc>
  </metadata>
  <wpt lat="49.28896" lon="1.40768">
    <ele>-47</ele>
  </wpt>
  <wpt lat="49.28887" lon="1.40731">
    <ele>144</ele>
  </wpt>
  <trk>
    <name><![CDATA[31-05-09 VTT Autour de Fresne_1]]></name>
    <trkseg>
      <trkpt lat="49.28896" lon="1.40768">
        <ele>-47</ele>
        <time>2009-05-31T07:31:58Z</time>
      </trkpt>
      <trkpt lat="49.28877" lon="1.40715">
        <ele>141</ele>
        <time>2009-05-31T07:32:04Z</time>
      </trkpt>
      <trkpt lat="49.28869" lon="1.40705">
        <ele>152</ele>
        <time>2009-05-31T07:32:30Z</time>
      </trkpt>
      <trkpt lat="49.28862" lon="1.40693">
        <ele>152</ele>
        <time>2009-05-31T07:32:35Z</time>
      </trkpt>
      <trkpt lat="49.28853" lon="1.40683">
        <ele>145</ele>
        <time>2009-05-31T07:32:39Z</time>
      </trkpt>
      <trkpt lat="49.28847" lon="1.40671">
        <ele>138</ele>
        <time>2009-05-31T07:32:45Z</time>
      </trkpt>
      <trkpt lat="49.28845" lon="1.40657">
        <ele>138</ele>
        <time>2009-05-31T07:32:48Z</time>
      </trkpt>
      <trkpt lat="49.28838" lon="1.40642">
        <ele>138</ele>
        <time>2009-05-31T07:32:52Z</time>
      </trkpt>
      <trkpt lat="49.28831" lon="1.4063">
        <ele>138</ele>
        <time>2009-05-31T07:32:55Z</time>
      </trkpt>
      <trkpt lat="49.28825" lon="1.40619">
        <ele>138</ele>
        <time>2009-05-31T07:32:58Z</time>
      </trkpt>
      <trkpt lat="49.28818" lon="1.40607">
        <ele>144</ele>
        <time>2009-05-31T07:33:01Z</time>
      </trkpt>
      <trkpt lat="49.28811" lon="1.40592">
        <ele>144</ele>
        <time>2009-05-31T07:33:04Z</time>
      </trkpt>
      <trkpt lat="49.28804" lon="1.40577">
        <ele>150</ele>
        <time>2009-05-31T07:33:07Z</time>
      </trkpt>
      <trkpt lat="49.28797" lon="1.40567">
        <ele>150</ele>
        <time>2009-05-31T07:33:09Z</time>
      </trkpt>
      <trkpt lat="49.28789" lon="1.40559">
        <ele>150</ele>
        <time>2009-05-31T07:33:11Z</time>
      </trkpt>
      <trkpt lat="49.2878" lon="1.40549">
        <ele>150</ele>
        <time>2009-05-31T07:33:13Z</time>
      </trkpt>
      <trkpt lat="49.28767" lon="1.40546">
        <ele>144</ele>
        <time>2009-05-31T07:33:16Z</time>
      </trkpt>
      <trkpt lat="49.28759" lon="1.40539">
        <ele>144</ele>
        <time>2009-05-31T07:33:18Z</time>
      </trkpt>
      <trkpt lat="49.28752" lon="1.40528">
        <ele>144</ele>
        <time>2009-05-31T07:33:20Z</time>
      </trkpt>
      <trkpt lat="49.28742" lon="1.40515">
        <ele>144</ele>
        <time>2009-05-31T07:33:23Z</time>
      </trkpt>
      <trkpt lat="49.28735" lon="1.40506">
        <ele>144</ele>
        <time>2009-05-31T07:33:25Z</time>
      </trkpt>
      <trkpt lat="49.28729" lon="1.40497">
        <ele>139</ele>
        <time>2009-05-31T07:33:27Z</time>
      </trkpt>
      <trkpt lat="49.28723" lon="1.40485">
        <ele>139</ele>
        <time>2009-05-31T07:33:29Z</time>
      </trkpt>
      <trkpt lat="49.2872" lon="1.40471">
        <ele>139</ele>
        <time>2009-05-31T07:33:31Z</time>
      </trkpt>
      <trkpt lat="49.2872" lon="1.40453">
        <ele>139</ele>
        <time>2009-05-31T07:33:34Z</time>
      </trkpt>
      <trkpt lat="49.28724" lon="1.40435">
        <ele>139</ele>
        <time>2009-05-31T07:33:37Z</time>
      </trkpt>
      <trkpt lat="49.28727" lon="1.4042">
        <ele>139</ele>
        <time>2009-05-31T07:33:39Z</time>
      </trkpt>
      <trkpt lat="49.28729" lon="1.40406">
        <ele>139</ele>
        <time>2009-05-31T07:33:41Z</time>
      </trkpt>
      <trkpt lat="49.28731" lon="1.4039">
        <ele>133</ele>
        <time>2009-05-31T07:33:43Z</time>
      </trkpt>
      <trkpt lat="49.28734" lon="1.40374">
        <ele>133</ele>
        <time>2009-05-31T07:33:45Z</time>
      </trkpt>
      <trkpt lat="49.28736" lon="1.40358">
        <ele>133</ele>
        <time>2009-05-31T07:33:47Z</time>
      </trkpt>
      <trkpt lat="49.28739" lon="1.40343">
        <ele>133</ele>
        <time>2009-05-31T07:33:49Z</time>
      </trkpt>
      <trkpt lat="49.28741" lon="1.40327">
        <ele>133</ele>
        <time>2009-05-31T07:33:51Z</time>
      </trkpt>
      <trkpt lat="49.28746" lon="1.40313">
        <ele>133</ele>
        <time>2009-05-31T07:33:53Z</time>
      </trkpt>
      <trkpt lat="49.28752" lon="1.403">
        <ele>133</ele>
        <time>2009-05-31T07:33:55Z</time>
      </trkpt>
      <trkpt lat="49.28761" lon="1.40283">
        <ele>133</ele>
        <time>2009-05-31T07:33:58Z</time>
      </trkpt>
      <trkpt lat="49.28767" lon="1.40272">
        <ele>133</ele>
        <time>2009-05-31T07:34:00Z</time>
      </trkpt>
      <trkpt lat="49.28774" lon="1.40261">
        <ele>133</ele>
        <time>2009-05-31T07:34:02Z</time>
      </trkpt>
      <trkpt lat="49.28781" lon="1.4025">
        <ele>133</ele>
        <time>2009-05-31T07:34:04Z</time>
      </trkpt>
      <trkpt lat="49.28788" lon="1.40238">
        <ele>133</ele>
        <time>2009-05-31T07:34:07Z</time>
      </trkpt>
      <trkpt lat="49.28781" lon="1.40228">
        <ele>133</ele>
        <time>2009-05-31T07:34:14Z</time>
      </trkpt>
      <trkpt lat="49.28772" lon="1.40228">
        <ele>133</ele>
        <time>2009-05-31T07:34:18Z</time>
      </trkpt>
      <trkpt lat="49.28761" lon="1.40231">
        <ele>133</ele>
        <time>2009-05-31T07:34:22Z</time>
      </trkpt>
      <trkpt lat="49.2875" lon="1.40232">
        <ele>133</ele>
        <time>2009-05-31T07:34:26Z</time>
      </trkpt>
      <trkpt lat="49.28739" lon="1.40232">
        <ele>133</ele>
        <time>2009-05-31T07:34:29Z</time>
      </trkpt>
      <trkpt lat="49.28726" lon="1.40235">
        <ele>133</ele>
        <time>2009-05-31T07:34:32Z</time>
      </trkpt>
      <trkpt lat="49.28714" lon="1.40237">
        <ele>133</ele>
        <time>2009-05-31T07:34:35Z</time>
      </trkpt>
      <trkpt lat="49.28702" lon="1.40237">
        <ele>133</ele>
        <time>2009-05-31T07:34:38Z</time>
      </trkpt>
      <trkpt lat="49.28692" lon="1.40237">
        <ele>133</ele>
        <time>2009-05-31T07:34:41Z</time>
      </trkpt>
      <trkpt lat="49.2868" lon="1.40232">
        <ele>133</ele>
        <time>2009-05-31T07:34:45Z</time>
      </trkpt>
      <trkpt lat="49.28679" lon="1.40214">
        <ele>133</ele>
        <time>2009-05-31T07:34:49Z</time>
      </trkpt>
      <trkpt lat="49.28683" lon="1.402">
        <ele>133</ele>
        <time>2009-05-31T07:34:52Z</time>
      </trkpt>
      <trkpt lat="49.28689" lon="1.40185">
        <ele>133</ele>
        <time>2009-05-31T07:34:55Z</time>
      </trkpt>
      <trkpt lat="49.28696" lon="1.4017">
        <ele>133</ele>
        <time>2009-05-31T07:34:58Z</time>
      </trkpt>
      <trkpt lat="49.28702" lon="1.40156">
        <ele>133</ele>
        <time>2009-05-31T07:35:01Z</time>
      </trkpt>
      <trkpt lat="49.28707" lon="1.40143">
        <ele>133</ele>
        <time>2009-05-31T07:35:04Z</time>
      </trkpt>
      <trkpt lat="49.28713" lon="1.4013">
        <ele>133</ele>
        <time>2009-05-31T07:35:07Z</time>
      </trkpt>
      <trkpt lat="49.28719" lon="1.40118">
        <ele>139</ele>
        <time>2009-05-31T07:35:10Z</time>
      </trkpt>
      <trkpt lat="49.28725" lon="1.40108">
        <ele>139</ele>
        <time>2009-05-31T07:35:13Z</time>
      </trkpt>
      <trkpt lat="49.28731" lon="1.40096">
        <ele>139</ele>
        <time>2009-05-31T07:35:16Z</time>
      </trkpt>
      <trkpt lat="49.28736" lon="1.40082">
        <ele>139</ele>
        <time>2009-05-31T07:35:19Z</time>
      </trkpt>
      <trkpt lat="49.28742" lon="1.40068">
        <ele>139</ele>
        <time>2009-05-31T07:35:22Z</time>
      </trkpt>
      <trkpt lat="49.28748" lon="1.40055">
        <ele>139</ele>
        <time>2009-05-31T07:35:25Z</time>
      </trkpt>
      <trkpt lat="49.28755" lon="1.40041">
        <ele>139</ele>
        <time>2009-05-31T07:35:28Z</time>
      </trkpt>
      <trkpt lat="49.28763" lon="1.40027">
        <ele>139</ele>
        <time>2009-05-31T07:35:31Z</time>
      </trkpt>
      <trkpt lat="49.28771" lon="1.40014">
        <ele>139</ele>
        <time>2009-05-31T07:35:34Z</time>
      </trkpt>
      <trkpt lat="49.28778" lon="1.40002">
        <ele>139</ele>
        <time>2009-05-31T07:35:37Z</time>
      </trkpt>
      <trkpt lat="49.28786" lon="1.3999">
        <ele>139</ele>
        <time>2009-05-31T07:35:40Z</time>
      </trkpt>
      <trkpt lat="49.28794" lon="1.39979">
        <ele>144</ele>
        <time>2009-05-31T07:35:43Z</time>
      </trkpt>
      <trkpt lat="49.28803" lon="1.39967">
        <ele>144</ele>
        <time>2009-05-31T07:35:46Z</time>
      </trkpt>
      <trkpt lat="49.28813" lon="1.39957">
        <ele>144</ele>
        <time>2009-05-31T07:35:49Z</time>
      </trkpt>
      <trkpt lat="49.28822" lon="1.39947">
        <ele>144</ele>
        <time>2009-05-31T07:35:52Z</time>
      </trkpt>
      <trkpt lat="49.28831" lon="1.39937">
        <ele>144</ele>
        <time>2009-05-31T07:35:55Z</time>
      </trkpt>
      <trkpt lat="49.2884" lon="1.39925">
        <ele>144</ele>
        <time>2009-05-31T07:35:58Z</time>
      </trkpt>
      <trkpt lat="49.2885" lon="1.39914">
        <ele>144</ele>
        <time>2009-05-31T07:36:01Z</time>
      </trkpt>
      <trkpt lat="49.28859" lon="1.39903">
        <ele>144</ele>
        <time>2009-05-31T07:36:04Z</time>
      </trkpt>
      <trkpt lat="49.28869" lon="1.39891">
        <ele>144</ele>
        <time>2009-05-31T07:36:07Z</time>
      </trkpt>
      <trkpt lat="49.28879" lon="1.39879">
        <ele>144</ele>
        <time>2009-05-31T07:36:10Z</time>
      </trkpt>
      <trkpt lat="49.28889" lon="1.39869">
        <ele>144</ele>
        <time>2009-05-31T07:36:13Z</time>
      </trkpt>
      <trkpt lat="49.28899" lon="1.39858">
        <ele>144</ele>
        <time>2009-05-31T07:36:16Z</time>
      </trkpt>
      <trkpt lat="49.28909" lon="1.39845">
        <ele>144</ele>
        <time>2009-05-31T07:36:19Z</time>
      </trkpt>
      <trkpt lat="49.2892" lon="1.39835">
        <ele>144</ele>
        <time>2009-05-31T07:36:22Z</time>
      </trkpt>
      <trkpt lat="49.28931" lon="1.39823">
        <ele>144</ele>
        <time>2009-05-31T07:36:25Z</time>
      </trkpt>
      <trkpt lat="49.28942" lon="1.39812">
        <ele>144</ele>
        <time>2009-05-31T07:36:28Z</time>
      </trkpt>
      <trkpt lat="49.2895" lon="1.39804">
        <ele>144</ele>
        <time>2009-05-31T07:36:30Z</time>
      </trkpt>
      <trkpt lat="49.28958" lon="1.39796">
        <ele>144</ele>
        <time>2009-05-31T07:36:32Z</time>
      </trkpt>
      <trkpt lat="49.28966" lon="1.39788">
        <ele>144</ele>
        <time>2009-05-31T07:36:34Z</time>
      </trkpt>
      <trkpt lat="49.28974" lon="1.3978">
        <ele>144</ele>
        <time>2009-05-31T07:36:36Z</time>
      </trkpt>
      <trkpt lat="49.28984" lon="1.3977">
        <ele>144</ele>
        <time>2009-05-31T07:36:39Z</time>
      </trkpt>
      <trkpt lat="49.28995" lon="1.39758">
        <ele>144</ele>
        <time>2009-05-31T07:36:42Z</time>
      </trkpt>
      <trkpt lat="49.29002" lon="1.3975">
        <ele>144</ele>
        <time>2009-05-31T07:36:44Z</time>
      </trkpt>
      <trkpt lat="49.2901" lon="1.39742">
        <ele>144</ele>
        <time>2009-05-31T07:36:46Z</time>
      </trkpt>
      <trkpt lat="49.29018" lon="1.39734">
        <ele>144</ele>
        <time>2009-05-31T07:36:48Z</time>
      </trkpt>
      <trkpt lat="49.29028" lon="1.39723">
        <ele>144</ele>
        <time>2009-05-31T07:36:51Z</time>
      </trkpt>
      <trkpt lat="49.29039" lon="1.39712">
        <ele>144</ele>
        <time>2009-05-31T07:36:54Z</time>
      </trkpt>
      <trkpt lat="49.2905" lon="1.39702">
        <ele>144</ele>
        <time>2009-05-31T07:36:57Z</time>
      </trkpt>
      <trkpt lat="49.29061" lon="1.39691">
        <ele>144</ele>
        <time>2009-05-31T07:37:00Z</time>
      </trkpt>
      <trkpt lat="49.29071" lon="1.3968">
        <ele>144</ele>
        <time>2009-05-31T07:37:03Z</time>
      </trkpt>
      <trkpt lat="49.2908" lon="1.3967">
        <ele>144</ele>
        <time>2009-05-31T07:37:06Z</time>
      </trkpt>
      <trkpt lat="49.29089" lon="1.3966">
        <ele>144</ele>
        <time>2009-05-31T07:37:09Z</time>
      </trkpt>
      <trkpt lat="49.291" lon="1.39649">
        <ele>144</ele>
        <time>2009-05-31T07:37:12Z</time>
      </trkpt>
      <trkpt lat="49.2911" lon="1.39639">
        <ele>144</ele>
        <time>2009-05-31T07:37:15Z</time>
      </trkpt>
      <trkpt lat="49.2912" lon="1.39628">
        <ele>144</ele>
        <time>2009-05-31T07:37:18Z</time>
      </trkpt>
      <trkpt lat="49.2913" lon="1.39617">
        <ele>144</ele>
        <time>2009-05-31T07:37:21Z</time>
      </trkpt>
      <trkpt lat="49.29141" lon="1.39607">
        <ele>144</ele>
        <time>2009-05-31T07:37:24Z</time>
      </trkpt>
      <trkpt lat="49.29151" lon="1.39596">
        <ele>144</ele>
        <time>2009-05-31T07:37:27Z</time>
      </trkpt>
      <trkpt lat="49.29162" lon="1.39587">
        <ele>144</ele>
        <time>2009-05-31T07:37:30Z</time>
      </trkpt>
      <trkpt lat="49.2917" lon="1.39579">
        <ele>144</ele>
        <time>2009-05-31T07:37:33Z</time>
      </trkpt>
      <trkpt lat="49.29171" lon="1.39563">
        <ele>144</ele>
        <time>2009-05-31T07:37:38Z</time>
      </trkpt>
      <trkpt lat="49.29164" lon="1.3955">
        <ele>144</ele>
        <time>2009-05-31T07:37:41Z</time>
      </trkpt>
      <trkpt lat="49.29155" lon="1.39534">
        <ele>144</ele>
        <time>2009-05-31T07:37:44Z</time>
      </trkpt>
      <trkpt lat="49.29149" lon="1.39524">
        <ele>144</ele>
        <time>2009-05-31T07:37:46Z</time>
      </trkpt>
      <trkpt lat="49.29143" lon="1.39513">
        <ele>144</ele>
        <time>2009-05-31T07:37:48Z</time>
      </trkpt>
      <trkpt lat="49.29136" lon="1.39501">
        <ele>144</ele>
        <time>2009-05-31T07:37:50Z</time>
      </trkpt>
      <trkpt lat="49.2913" lon="1.3949">
        <ele>144</ele>
        <time>2009-05-31T07:37:52Z</time>
      </trkpt>
      <trkpt lat="49.29124" lon="1.39479">
        <ele>144</ele>
        <time>2009-05-31T07:37:54Z</time>
      </trkpt>
      <trkpt lat="49.29118" lon="1.39467">
        <ele>144</ele>
        <time>2009-05-31T07:37:56Z</time>
      </trkpt>
      <trkpt lat="49.29112" lon="1.39456">
        <ele>144</ele>
        <time>2009-05-31T07:37:58Z</time>
      </trkpt>
      <trkpt lat="49.29105" lon="1.39446">
        <ele>144</ele>
        <time>2009-05-31T07:38:00Z</time>
      </trkpt>
      <trkpt lat="49.29099" lon="1.39434">
        <ele>144</ele>
        <time>2009-05-31T07:38:02Z</time>
      </trkpt>
      <trkpt lat="49.29092" lon="1.39423">
        <ele>144</ele>
        <time>2009-05-31T07:38:04Z</time>
      </trkpt>
      <trkpt lat="49.29086" lon="1.39411">
        <ele>144</ele>
        <time>2009-05-31T07:38:06Z</time>
      </trkpt>
      <trkpt lat="49.29079" lon="1.394">
        <ele>144</ele>
        <time>2009-05-31T07:38:08Z</time>
      </trkpt>
      <trkpt lat="49.29072" lon="1.39388">
        <ele>144</ele>
        <time>2009-05-31T07:38:10Z</time>
      </trkpt>
      <trkpt lat="49.29066" lon="1.39375">
        <ele>144</ele>
        <time>2009-05-31T07:38:12Z</time>
      </trkpt>
      <trkpt lat="49.29059" lon="1.39362">
        <ele>144</ele>
        <time>2009-05-31T07:38:14Z</time>
      </trkpt>
      <trkpt lat="49.29052" lon="1.39349">
        <ele>144</ele>
        <time>2009-05-31T07:38:16Z</time>
      </trkpt>
      <trkpt lat="49.29046" lon="1.39333">
        <ele>144</ele>
        <time>2009-05-31T07:38:18Z</time>
      </trkpt>
      <trkpt lat="49.29041" lon="1.39318">
        <ele>144</ele>
        <time>2009-05-31T07:38:20Z</time>
      </trkpt>
      <trkpt lat="49.29036" lon="1.39302">
        <ele>144</ele>
        <time>2009-05-31T07:38:22Z</time>
      </trkpt>
      <trkpt lat="49.29032" lon="1.39287">
        <ele>144</ele>
        <time>2009-05-31T07:38:24Z</time>
      </trkpt>
      <trkpt lat="49.29029" lon="1.39269">
        <ele>144</ele>
        <time>2009-05-31T07:38:26Z</time>
      </trkpt>
      <trkpt lat="49.29026" lon="1.39254">
        <ele>144</ele>
        <time>2009-05-31T07:38:28Z</time>
      </trkpt>
      <trkpt lat="49.29024" lon="1.39239">
        <ele>144</ele>
        <time>2009-05-31T07:38:30Z</time>
      </trkpt>
      <trkpt lat="49.29023" lon="1.39225">
        <ele>144</ele>
        <time>2009-05-31T07:38:32Z</time>
      </trkpt>
      <trkpt lat="49.29022" lon="1.39206">
        <ele>144</ele>
        <time>2009-05-31T07:38:35Z</time>
      </trkpt>
      <trkpt lat="49.29026" lon="1.39192">
        <ele>144</ele>
        <time>2009-05-31T07:38:38Z</time>
      </trkpt>
      <trkpt lat="49.29035" lon="1.39188">
        <ele>144</ele>
        <time>2009-05-31T07:38:43Z</time>
      </trkpt>
      <trkpt lat="49.29045" lon="1.39183">
        <ele>144</ele>
        <time>2009-05-31T07:39:17Z</time>
      </trkpt>
      <trkpt lat="49.29055" lon="1.39176">
        <ele>144</ele>
        <time>2009-05-31T07:39:20Z</time>
      </trkpt>
      <trkpt lat="49.29066" lon="1.3917">
        <ele>144</ele>
        <time>2009-05-31T07:39:23Z</time>
      </trkpt>
      <trkpt lat="49.29077" lon="1.39162">
        <ele>144</ele>
        <time>2009-05-31T07:39:26Z</time>
      </trkpt>
      <trkpt lat="49.29088" lon="1.39154">
        <ele>144</ele>
        <time>2009-05-31T07:39:29Z</time>
      </trkpt>
      <trkpt lat="49.29096" lon="1.39147">
        <ele>144</ele>
        <time>2009-05-31T07:39:31Z</time>
      </trkpt>
      <trkpt lat="49.29109" lon="1.39139">
        <ele>144</ele>
        <time>2009-05-31T07:39:34Z</time>
      </trkpt>
      <trkpt lat="49.29121" lon="1.39131">
        <ele>144</ele>
        <time>2009-05-31T07:39:37Z</time>
      </trkpt>
      <trkpt lat="49.2913" lon="1.39125">
        <ele>144</ele>
        <time>2009-05-31T07:39:39Z</time>
      </trkpt>
      <trkpt lat="49.29142" lon="1.39115">
        <ele>144</ele>
        <time>2009-05-31T07:39:42Z</time>
      </trkpt>
      <trkpt lat="49.29153" lon="1.39107">
        <ele>144</ele>
        <time>2009-05-31T07:39:45Z</time>
      </trkpt>
      <trkpt lat="49.29162" lon="1.39101">
        <ele>144</ele>
        <time>2009-05-31T07:39:47Z</time>
      </trkpt>
      <trkpt lat="49.29171" lon="1.39094">
        <ele>144</ele>
        <time>2009-05-31T07:39:49Z</time>
      </trkpt>
      <trkpt lat="49.2918" lon="1.39089">
        <ele>144</ele>
        <time>2009-05-31T07:39:51Z</time>
      </trkpt>
      <trkpt lat="49.29189" lon="1.39083">
        <ele>144</ele>
        <time>2009-05-31T07:39:53Z</time>
      </trkpt>
      <trkpt lat="49.29199" lon="1.39076">
        <ele>149</ele>
        <time>2009-05-31T07:39:55Z</time>
      </trkpt>
      <trkpt lat="49.29207" lon="1.3907">
        <ele>149</ele>
        <time>2009-05-31T07:39:57Z</time>
      </trkpt>
      <trkpt lat="49.29217" lon="1.39065">
        <ele>149</ele>
        <time>2009-05-31T07:39:59Z</time>
      </trkpt>
      <trkpt lat="49.29226" lon="1.39057">
        <ele>149</ele>
        <time>2009-05-31T07:40:01Z</time>
      </trkpt>
      <trkpt lat="49.29235" lon="1.39051">
        <ele>149</ele>
        <time>2009-05-31T07:40:03Z</time>
      </trkpt>
      <trkpt lat="49.29244" lon="1.39045">
        <ele>149</ele>
        <time>2009-05-31T07:40:05Z</time>
      </trkpt>
      <trkpt lat="49.29253" lon="1.39039">
        <ele>149</ele>
        <time>2009-05-31T07:40:07Z</time>
      </trkpt>
      <trkpt lat="49.29262" lon="1.39032">
        <ele>149</ele>
        <time>2009-05-31T07:40:09Z</time>
      </trkpt>
      <trkpt lat="49.29271" lon="1.39026">
        <ele>149</ele>
        <time>2009-05-31T07:40:11Z</time>
      </trkpt>
      <trkpt lat="49.2928" lon="1.3902">
        <ele>149</ele>
        <time>2009-05-31T07:40:13Z</time>
      </trkpt>
      <trkpt lat="49.29289" lon="1.39013">
        <ele>149</ele>
        <time>2009-05-31T07:40:15Z</time>
      </trkpt>
      <trkpt lat="49.29298" lon="1.39006">
        <ele>149</ele>
        <time>2009-05-31T07:40:17Z</time>
      </trkpt>
      <trkpt lat="49.29307" lon="1.39001">
        <ele>144</ele>
        <time>2009-05-31T07:40:19Z</time>
      </trkpt>
      <trkpt lat="49.29316" lon="1.38995">
        <ele>144</ele>
        <time>2009-05-31T07:40:21Z</time>
      </trkpt>
      <trkpt lat="49.29324" lon="1.38988">
        <ele>144</ele>
        <time>2009-05-31T07:40:23Z</time>
      </trkpt>
      <trkpt lat="49.29336" lon="1.38979">
        <ele>144</ele>
        <time>2009-05-31T07:40:26Z</time>
      </trkpt>
      <trkpt lat="49.29345" lon="1.38974">
        <ele>144</ele>
        <time>2009-05-31T07:40:28Z</time>
      </trkpt>
      <trkpt lat="49.29353" lon="1.38968">
        <ele>144</ele>
        <time>2009-05-31T07:40:30Z</time>
      </trkpt>
      <trkpt lat="49.29365" lon="1.3896">
        <ele>144</ele>
        <time>2009-05-31T07:40:33Z</time>
      </trkpt>
      <trkpt lat="49.29375" lon="1.38952">
        <ele>144</ele>
        <time>2009-05-31T07:40:36Z</time>
      </trkpt>
      <trkpt lat="49.29385" lon="1.38944">
        <ele>144</ele>
        <time>2009-05-31T07:40:39Z</time>
      </trkpt>
      <trkpt lat="49.29397" lon="1.38937">
        <ele>144</ele>
        <time>2009-05-31T07:40:42Z</time>
      </trkpt>
      <trkpt lat="49.29405" lon="1.38931">
        <ele>144</ele>
        <time>2009-05-31T07:40:44Z</time>
      </trkpt>
      <trkpt lat="49.29414" lon="1.38925">
        <ele>139</ele>
        <time>2009-05-31T07:40:46Z</time>
      </trkpt>
      <trkpt lat="49.29422" lon="1.38918">
        <ele>139</ele>
        <time>2009-05-31T07:40:48Z</time>
      </trkpt>
      <trkpt lat="49.29432" lon="1.38912">
        <ele>139</ele>
        <time>2009-05-31T07:40:50Z</time>
      </trkpt>
      <trkpt lat="49.29441" lon="1.38906">
        <ele>139</ele>
        <time>2009-05-31T07:40:52Z</time>
      </trkpt>
      <trkpt lat="49.2945" lon="1.38899">
        <ele>139</ele>
        <time>2009-05-31T07:40:54Z</time>
      </trkpt>
      <trkpt lat="49.29462" lon="1.3889">
        <ele>139</ele>
        <time>2009-05-31T07:40:57Z</time>
      </trkpt>
      <trkpt lat="49.29471" lon="1.38884">
        <ele>139</ele>
        <time>2009-05-31T07:40:59Z</time>
      </trkpt>
      <trkpt lat="49.29481" lon="1.38878">
        <ele>139</ele>
        <time>2009-05-31T07:41:01Z</time>
      </trkpt>
      <trkpt lat="49.2949" lon="1.38872">
        <ele>139</ele>
        <time>2009-05-31T07:41:03Z</time>
      </trkpt>
      <trkpt lat="49.29499" lon="1.38866">
        <ele>139</ele>
        <time>2009-05-31T07:41:05Z</time>
      </trkpt>
      <trkpt lat="49.29508" lon="1.3886">
        <ele>139</ele>
        <time>2009-05-31T07:41:07Z</time>
      </trkpt>
      <trkpt lat="49.29516" lon="1.38854">
        <ele>139</ele>
        <time>2009-05-31T07:41:09Z</time>
      </trkpt>
      <trkpt lat="49.29525" lon="1.38848">
        <ele>139</ele>
        <time>2009-05-31T07:41:11Z</time>
      </trkpt>
      <trkpt lat="49.29538" lon="1.3884">
        <ele>139</ele>
        <time>2009-05-31T07:41:14Z</time>
      </trkpt>
      <trkpt lat="49.29549" lon="1.38832">
        <ele>139</ele>
        <time>2009-05-31T07:41:17Z</time>
      </trkpt>
      <trkpt lat="49.29561" lon="1.38824">
        <ele>139</ele>
        <time>2009-05-31T07:41:20Z</time>
      </trkpt>
      <trkpt lat="49.29573" lon="1.38816">
        <ele>139</ele>
        <time>2009-05-31T07:41:23Z</time>
      </trkpt>
      <trkpt lat="49.29582" lon="1.3881">
        <ele>139</ele>
        <time>2009-05-31T07:41:25Z</time>
      </trkpt>
      <trkpt lat="49.29591" lon="1.38803">
        <ele>139</ele>
        <time>2009-05-31T07:41:27Z</time>
      </trkpt>
      <trkpt lat="49.29599" lon="1.38797">
        <ele>139</ele>
        <time>2009-05-31T07:41:29Z</time>
      </trkpt>
      <trkpt lat="49.29608" lon="1.38791">
        <ele>139</ele>
        <time>2009-05-31T07:41:31Z</time>
      </trkpt>
      <trkpt lat="49.29617" lon="1.38784">
        <ele>139</ele>
        <time>2009-05-31T07:41:33Z</time>
      </trkpt>
      <trkpt lat="49.29626" lon="1.38778">
        <ele>139</ele>
        <time>2009-05-31T07:41:35Z</time>
      </trkpt>
      <trkpt lat="49.29635" lon="1.38773">
        <ele>139</ele>
        <time>2009-05-31T07:41:37Z</time>
      </trkpt>
      <trkpt lat="49.29643" lon="1.38766">
        <ele>139</ele>
        <time>2009-05-31T07:41:39Z</time>
      </trkpt>
      <trkpt lat="49.29652" lon="1.3876">
        <ele>139</ele>
        <time>2009-05-31T07:41:41Z</time>
      </trkpt>
      <trkpt lat="49.2966" lon="1.38754">
        <ele>139</ele>
        <time>2009-05-31T07:41:43Z</time>
      </trkpt>
      <trkpt lat="49.29669" lon="1.38748">
        <ele>139</ele>
        <time>2009-05-31T07:41:45Z</time>
      </trkpt>
      <trkpt lat="49.29677" lon="1.38741">
        <ele>139</ele>
        <time>2009-05-31T07:41:47Z</time>
      </trkpt>
      <trkpt lat="49.29685" lon="1.38734">
        <ele>139</ele>
        <time>2009-05-31T07:41:49Z</time>
      </trkpt>
      <trkpt lat="49.29696" lon="1.38723">
        <ele>139</ele>
        <time>2009-05-31T07:41:52Z</time>
      </trkpt>
      <trkpt lat="49.29706" lon="1.3871">
        <ele>139</ele>
        <time>2009-05-31T07:41:55Z</time>
      </trkpt>
      <trkpt lat="49.29712" lon="1.38699">
        <ele>139</ele>
        <time>2009-05-31T07:41:57Z</time>
      </trkpt>
      <trkpt lat="49.29718" lon="1.38686">
        <ele>139</ele>
        <time>2009-05-31T07:41:59Z</time>
      </trkpt>
      <trkpt lat="49.29724" lon="1.38673">
        <ele>139</ele>
        <time>2009-05-31T07:42:01Z</time>
      </trkpt>
      <trkpt lat="49.29731" lon="1.3866">
        <ele>139</ele>
        <time>2009-05-31T07:42:03Z</time>
      </trkpt>
      <trkpt lat="49.29737" lon="1.38645">
        <ele>139</ele>
        <time>2009-05-31T07:42:05Z</time>
      </trkpt>
      <trkpt lat="49.29743" lon="1.38632">
        <ele>139</ele>
        <time>2009-05-31T07:42:07Z</time>
      </trkpt>
      <trkpt lat="49.29749" lon="1.38617">
        <ele>139</ele>
        <time>2009-05-31T07:42:09Z</time>
      </trkpt>
      <trkpt lat="49.29754" lon="1.38603">
        <ele>139</ele>
        <time>2009-05-31T07:42:11Z</time>
      </trkpt>
      <trkpt lat="49.29759" lon="1.38589">
        <ele>139</ele>
        <time>2009-05-31T07:42:13Z</time>
      </trkpt>
      <trkpt lat="49.29763" lon="1.38573">
        <ele>139</ele>
        <time>2009-05-31T07:42:15Z</time>
      </trkpt>
      <trkpt lat="49.29767" lon="1.38558">
        <ele>139</ele>
        <time>2009-05-31T07:42:17Z</time>
      </trkpt>
      <trkpt lat="49.2977" lon="1.38543">
        <ele>139</ele>
        <time>2009-05-31T07:42:19Z</time>
      </trkpt>
      <trkpt lat="49.29774" lon="1.38527">
        <ele>139</ele>
        <time>2009-05-31T07:42:21Z</time>
      </trkpt>
      <trkpt lat="49.29779" lon="1.38512">
        <ele>139</ele>
        <time>2009-05-31T07:42:23Z</time>
      </trkpt>
      <trkpt lat="49.29782" lon="1.38497">
        <ele>139</ele>
        <time>2009-05-31T07:42:25Z</time>
      </trkpt>
      <trkpt lat="49.29785" lon="1.38483">
        <ele>139</ele>
        <time>2009-05-31T07:42:27Z</time>
      </trkpt>
      <trkpt lat="49.29788" lon="1.3847">
        <ele>139</ele>
        <time>2009-05-31T07:42:29Z</time>
      </trkpt>
      <trkpt lat="49.29791" lon="1.38452">
        <ele>139</ele>
        <time>2009-05-31T07:42:32Z</time>
      </trkpt>
      <trkpt lat="49.29794" lon="1.38433">
        <ele>139</ele>
        <time>2009-05-31T07:42:35Z</time>
      </trkpt>
      <trkpt lat="49.29797" lon="1.3842">
        <ele>139</ele>
        <time>2009-05-31T07:42:37Z</time>
      </trkpt>
      <trkpt lat="49.298" lon="1.38405">
        <ele>139</ele>
        <time>2009-05-31T07:42:39Z</time>
      </trkpt>
      <trkpt lat="49.29803" lon="1.38391">
        <ele>139</ele>
        <time>2009-05-31T07:42:41Z</time>
      </trkpt>
      <trkpt lat="49.29805" lon="1.38377">
        <ele>139</ele>
        <time>2009-05-31T07:42:43Z</time>
      </trkpt>
      <trkpt lat="49.29807" lon="1.38363">
        <ele>139</ele>
        <time>2009-05-31T07:42:45Z</time>
      </trkpt>
      <trkpt lat="49.2981" lon="1.3835">
        <ele>139</ele>
        <time>2009-05-31T07:42:47Z</time>
      </trkpt>
      <trkpt lat="49.29814" lon="1.3833">
        <ele>139</ele>
        <time>2009-05-31T07:42:50Z</time>
      </trkpt>
      <trkpt lat="49.29816" lon="1.38315">
        <ele>139</ele>
        <time>2009-05-31T07:42:52Z</time>
      </trkpt>
      <trkpt lat="49.29818" lon="1.383">
        <ele>139</ele>
        <time>2009-05-31T07:42:54Z</time>
      </trkpt>
      <trkpt lat="49.2982" lon="1.38284">
        <ele>139</ele>
        <time>2009-05-31T07:42:56Z</time>
      </trkpt>
      <trkpt lat="49.29823" lon="1.38268">
        <ele>139</ele>
        <time>2009-05-31T07:42:58Z</time>
      </trkpt>
      <trkpt lat="49.29824" lon="1.38252">
        <ele>139</ele>
        <time>2009-05-31T07:43:00Z</time>
      </trkpt>
      <trkpt lat="49.29826" lon="1.38236">
        <ele>139</ele>
        <time>2009-05-31T07:43:02Z</time>
      </trkpt>
      <trkpt lat="49.29828" lon="1.38219">
        <ele>139</ele>
        <time>2009-05-31T07:43:04Z</time>
      </trkpt>
      <trkpt lat="49.2983" lon="1.38203">
        <ele>139</ele>
        <time>2009-05-31T07:43:06Z</time>
      </trkpt>
      <trkpt lat="49.29831" lon="1.38186">
        <ele>139</ele>
        <time>2009-05-31T07:43:08Z</time>
      </trkpt>
      <trkpt lat="49.29831" lon="1.38169">
        <ele>139</ele>
        <time>2009-05-31T07:43:10Z</time>
      </trkpt>
      <trkpt lat="49.29832" lon="1.38152">
        <ele>139</ele>
        <time>2009-05-31T07:43:12Z</time>
      </trkpt>
      <trkpt lat="49.29833" lon="1.38134">
        <ele>139</ele>
        <time>2009-05-31T07:43:14Z</time>
      </trkpt>
      <trkpt lat="49.29833" lon="1.38115">
        <ele>139</ele>
        <time>2009-05-31T07:43:16Z</time>
      </trkpt>
      <trkpt lat="49.29833" lon="1.38097">
        <ele>139</ele>
        <time>2009-05-31T07:43:18Z</time>
      </trkpt>
      <trkpt lat="49.29834" lon="1.38079">
        <ele>139</ele>
        <time>2009-05-31T07:43:20Z</time>
      </trkpt>
      <trkpt lat="49.29836" lon="1.38062">
        <ele>139</ele>
        <time>2009-05-31T07:43:22Z</time>
      </trkpt>
      <trkpt lat="49.29838" lon="1.38045">
        <ele>139</ele>
        <time>2009-05-31T07:43:24Z</time>
      </trkpt>
      <trkpt lat="49.29843" lon="1.38029">
        <ele>139</ele>
        <time>2009-05-31T07:43:26Z</time>
      </trkpt>
      <trkpt lat="49.29847" lon="1.38014">
        <ele>139</ele>
        <time>2009-05-31T07:43:28Z</time>
      </trkpt>
      <trkpt lat="49.29853" lon="1.37999">
        <ele>139</ele>
        <time>2009-05-31T07:43:30Z</time>
      </trkpt>
      <trkpt lat="49.29857" lon="1.37985">
        <ele>139</ele>
        <time>2009-05-31T07:43:32Z</time>
      </trkpt>
      <trkpt lat="49.29863" lon="1.3797">
        <ele>139</ele>
        <time>2009-05-31T07:43:34Z</time>
      </trkpt>
      <trkpt lat="49.29867" lon="1.37957">
        <ele>139</ele>
        <time>2009-05-31T07:43:36Z</time>
      </trkpt>
      <trkpt lat="49.29872" lon="1.37943">
        <ele>139</ele>
        <time>2009-05-31T07:43:38Z</time>
      </trkpt>
      <trkpt lat="49.29877" lon="1.3793">
        <ele>134</ele>
        <time>2009-05-31T07:43:40Z</time>
      </trkpt>
      <trkpt lat="49.29881" lon="1.37917">
        <ele>134</ele>
        <time>2009-05-31T07:43:42Z</time>
      </trkpt>
      <trkpt lat="49.29886" lon="1.37902">
        <ele>134</ele>
        <time>2009-05-31T07:43:44Z</time>
      </trkpt>
      <trkpt lat="49.29891" lon="1.37889">
        <ele>134</ele>
        <time>2009-05-31T07:43:46Z</time>
      </trkpt>
      <trkpt lat="49.29896" lon="1.37874">
        <ele>134</ele>
        <time>2009-05-31T07:43:48Z</time>
      </trkpt>
      <trkpt lat="49.29901" lon="1.3786">
        <ele>134</ele>
        <time>2009-05-31T07:43:50Z</time>
      </trkpt>
      <trkpt lat="49.29906" lon="1.37846">
        <ele>134</ele>
        <time>2009-05-31T07:43:52Z</time>
      </trkpt>
      <trkpt lat="49.29911" lon="1.3783">
        <ele>134</ele>
        <time>2009-05-31T07:43:54Z</time>
      </trkpt>
      <trkpt lat="49.29916" lon="1.37815">
        <ele>134</ele>
        <time>2009-05-31T07:43:56Z</time>
      </trkpt>
      <trkpt lat="49.29921" lon="1.37801">
        <ele>134</ele>
        <time>2009-05-31T07:43:58Z</time>
      </trkpt>
      <trkpt lat="49.29927" lon="1.37785">
        <ele>134</ele>
        <time>2009-05-31T07:44:00Z</time>
      </trkpt>
      <trkpt lat="49.29931" lon="1.3777">
        <ele>134</ele>
        <time>2009-05-31T07:44:02Z</time>
      </trkpt>
      <trkpt lat="49.29937" lon="1.37756">
        <ele>134</ele>
        <time>2009-05-31T07:44:04Z</time>
      </trkpt>
      <trkpt lat="49.29942" lon="1.37741">
        <ele>134</ele>
        <time>2009-05-31T07:44:06Z</time>
      </trkpt>
      <trkpt lat="49.29947" lon="1.37726">
        <ele>134</ele>
        <time>2009-05-31T07:44:08Z</time>
      </trkpt>
      <trkpt lat="49.29951" lon="1.37712">
        <ele>134</ele>
        <time>2009-05-31T07:44:10Z</time>
      </trkpt>
      <trkpt lat="49.29956" lon="1.37697">
        <ele>134</ele>
        <time>2009-05-31T07:44:12Z</time>
      </trkpt>
      <trkpt lat="49.29961" lon="1.37683">
        <ele>134</ele>
        <time>2009-05-31T07:44:14Z</time>
      </trkpt>
      <trkpt lat="49.29966" lon="1.37669">
        <ele>134</ele>
        <time>2009-05-31T07:44:16Z</time>
      </trkpt>
      <trkpt lat="49.29971" lon="1.37654">
        <ele>134</ele>
        <time>2009-05-31T07:44:18Z</time>
      </trkpt>
      <trkpt lat="49.29976" lon="1.37641">
        <ele>134</ele>
        <time>2009-05-31T07:44:20Z</time>
      </trkpt>
      <trkpt lat="49.29981" lon="1.37628">
        <ele>134</ele>
        <time>2009-05-31T07:44:22Z</time>
      </trkpt>
      <trkpt lat="49.29987" lon="1.37617">
        <ele>134</ele>
        <time>2009-05-31T07:44:24Z</time>
      </trkpt>
      <trkpt lat="49.29994" lon="1.37605">
        <ele>134</ele>
        <time>2009-05-31T07:44:26Z</time>
      </trkpt>
      <trkpt lat="49.30001" lon="1.37593">
        <ele>134</ele>
        <time>2009-05-31T07:44:28Z</time>
      </trkpt>
      <trkpt lat="49.30008" lon="1.37582">
        <ele>139</ele>
        <time>2009-05-31T07:44:30Z</time>
      </trkpt>
      <trkpt lat="49.30015" lon="1.37572">
        <ele>139</ele>
        <time>2009-05-31T07:44:32Z</time>
      </trkpt>
      <trkpt lat="49.30022" lon="1.37561">
        <ele>139</ele>
        <time>2009-05-31T07:44:34Z</time>
      </trkpt>
      <trkpt lat="49.3003" lon="1.3755">
        <ele>139</ele>
        <time>2009-05-31T07:44:36Z</time>
      </trkpt>
      <trkpt lat="49.30037" lon="1.37539">
        <ele>139</ele>
        <time>2009-05-31T07:44:38Z</time>
      </trkpt>
      <trkpt lat="49.30045" lon="1.37529">
        <ele>139</ele>
        <time>2009-05-31T07:44:40Z</time>
      </trkpt>
      <trkpt lat="49.30052" lon="1.37519">
        <ele>139</ele>
        <time>2009-05-31T07:44:42Z</time>
      </trkpt>
      <trkpt lat="49.30059" lon="1.37508">
        <ele>139</ele>
        <time>2009-05-31T07:44:44Z</time>
      </trkpt>
      <trkpt lat="49.30066" lon="1.37498">
        <ele>139</ele>
        <time>2009-05-31T07:44:46Z</time>
      </trkpt>
      <trkpt lat="49.30072" lon="1.37487">
        <ele>139</ele>
        <time>2009-05-31T07:44:48Z</time>
      </trkpt>
      <trkpt lat="49.30079" lon="1.37477">
        <ele>139</ele>
        <time>2009-05-31T07:44:50Z</time>
      </trkpt>
      <trkpt lat="49.30086" lon="1.37467">
        <ele>139</ele>
        <time>2009-05-31T07:44:52Z</time>
      </trkpt>
      <trkpt lat="49.30096" lon="1.37454">
        <ele>139</ele>
        <time>2009-05-31T07:44:55Z</time>
      </trkpt>
      <trkpt lat="49.30108" lon="1.37447">
        <ele>139</ele>
        <time>2009-05-31T07:44:58Z</time>
      </trkpt>
      <trkpt lat="49.30119" lon="1.37447">
        <ele>139</ele>
        <time>2009-05-31T07:45:01Z</time>
      </trkpt>
      <trkpt lat="49.30129" lon="1.37449">
        <ele>139</ele>
        <time>2009-05-31T07:45:03Z</time>
      </trkpt>
      <trkpt lat="49.30138" lon="1.3745">
        <ele>139</ele>
        <time>2009-05-31T07:45:05Z</time>
      </trkpt>
      <trkpt lat="49.30147" lon="1.3745">
        <ele>139</ele>
        <time>2009-05-31T07:45:07Z</time>
      </trkpt>
      <trkpt lat="49.30161" lon="1.37451">
        <ele>139</ele>
        <time>2009-05-31T07:45:10Z</time>
      </trkpt>
      <trkpt lat="49.3017" lon="1.37452">
        <ele>144</ele>
        <time>2009-05-31T07:45:12Z</time>
      </trkpt>
      <trkpt lat="49.30183" lon="1.3745">
        <ele>144</ele>
        <time>2009-05-31T07:45:15Z</time>
      </trkpt>
      <trkpt lat="49.30196" lon="1.37451">
        <ele>144</ele>
        <time>2009-05-31T07:45:18Z</time>
      </trkpt>
      <trkpt lat="49.30209" lon="1.37452">
        <ele>144</ele>
        <time>2009-05-31T07:45:21Z</time>
      </trkpt>
      <trkpt lat="49.3022" lon="1.37456">
        <ele>144</ele>
        <time>2009-05-31T07:45:24Z</time>
      </trkpt>
      <trkpt lat="49.3023" lon="1.37466">
        <ele>149</ele>
        <time>2009-05-31T07:45:27Z</time>
      </trkpt>
      <trkpt lat="49.30233" lon="1.37479">
        <ele>149</ele>
        <time>2009-05-31T07:45:29Z</time>
      </trkpt>
      <trkpt lat="49.30233" lon="1.37493">
        <ele>149</ele>
        <time>2009-05-31T07:45:31Z</time>
      </trkpt>
      <trkpt lat="49.30234" lon="1.37508">
        <ele>149</ele>
        <time>2009-05-31T07:45:33Z</time>
      </trkpt>
      <trkpt lat="49.30234" lon="1.37522">
        <ele>149</ele>
        <time>2009-05-31T07:45:35Z</time>
      </trkpt>
      <trkpt lat="49.30236" lon="1.37543">
        <ele>149</ele>
        <time>2009-05-31T07:45:38Z</time>
      </trkpt>
      <trkpt lat="49.30239" lon="1.37564">
        <ele>149</ele>
        <time>2009-05-31T07:45:41Z</time>
      </trkpt>
      <trkpt lat="49.30239" lon="1.37578">
        <ele>149</ele>
        <time>2009-05-31T07:45:43Z</time>
      </trkpt>
      <trkpt lat="49.3024" lon="1.37592">
        <ele>155</ele>
        <time>2009-05-31T07:45:45Z</time>
      </trkpt>
      <trkpt lat="49.3024" lon="1.37607">
        <ele>155</ele>
        <time>2009-05-31T07:45:47Z</time>
      </trkpt>
      <trkpt lat="49.30242" lon="1.37622">
        <ele>155</ele>
        <time>2009-05-31T07:45:49Z</time>
      </trkpt>
      <trkpt lat="49.30244" lon="1.37636">
        <ele>155</ele>
        <time>2009-05-31T07:45:51Z</time>
      </trkpt>
      <trkpt lat="49.30247" lon="1.37651">
        <ele>155</ele>
        <time>2009-05-31T07:45:53Z</time>
      </trkpt>
      <trkpt lat="49.30251" lon="1.37664">
        <ele>155</ele>
        <time>2009-05-31T07:45:55Z</time>
      </trkpt>
      <trkpt lat="49.30254" lon="1.37678">
        <ele>155</ele>
        <time>2009-05-31T07:45:57Z</time>
      </trkpt>
      <trkpt lat="49.30257" lon="1.37691">
        <ele>155</ele>
        <time>2009-05-31T07:45:59Z</time>
      </trkpt>
      <trkpt lat="49.30261" lon="1.37705">
        <ele>155</ele>
        <time>2009-05-31T07:46:01Z</time>
      </trkpt>
      <trkpt lat="49.30267" lon="1.37724">
        <ele>155</ele>
        <time>2009-05-31T07:46:04Z</time>
      </trkpt>
      <trkpt lat="49.30271" lon="1.37738">
        <ele>155</ele>
        <time>2009-05-31T07:46:06Z</time>
      </trkpt>
      <trkpt lat="49.30276" lon="1.37752">
        <ele>155</ele>
        <time>2009-05-31T07:46:08Z</time>
      </trkpt>
      <trkpt lat="49.3028" lon="1.37767">
        <ele>155</ele>
        <time>2009-05-31T07:46:10Z</time>
      </trkpt>
      <trkpt lat="49.30285" lon="1.37782">
        <ele>155</ele>
        <time>2009-05-31T07:46:12Z</time>
      </trkpt>
      <trkpt lat="49.3029" lon="1.37797">
        <ele>155</ele>
        <time>2009-05-31T07:46:14Z</time>
      </trkpt>
      <trkpt lat="49.30295" lon="1.37813">
        <ele>155</ele>
        <time>2009-05-31T07:46:16Z</time>
      </trkpt>
      <trkpt lat="49.303" lon="1.3783">
        <ele>155</ele>
        <time>2009-05-31T07:46:18Z</time>
      </trkpt>
      <trkpt lat="49.30306" lon="1.37847">
        <ele>155</ele>
        <time>2009-05-31T07:46:20Z</time>
      </trkpt>
      <trkpt lat="49.30311" lon="1.37864">
        <ele>155</ele>
        <time>2009-05-31T07:46:22Z</time>
      </trkpt>
      <trkpt lat="49.30315" lon="1.3788">
        <ele>155</ele>
        <time>2009-05-31T07:46:24Z</time>
      </trkpt>
      <trkpt lat="49.30323" lon="1.37891">
        <ele>155</ele>
        <time>2009-05-31T07:46:26Z</time>
      </trkpt>
      <trkpt lat="49.30333" lon="1.37896">
        <ele>155</ele>
        <time>2009-05-31T07:46:28Z</time>
      </trkpt>
      <trkpt lat="49.30344" lon="1.37896">
        <ele>155</ele>
        <time>2009-05-31T07:46:30Z</time>
      </trkpt>
      <trkpt lat="49.30355" lon="1.37897">
        <ele>155</ele>
        <time>2009-05-31T07:46:32Z</time>
      </trkpt>
      <trkpt lat="49.30367" lon="1.37898">
        <ele>155</ele>
        <time>2009-05-31T07:46:34Z</time>
      </trkpt>
      <trkpt lat="49.30378" lon="1.37899">
        <ele>155</ele>
        <time>2009-05-31T07:46:36Z</time>
      </trkpt>
      <trkpt lat="49.30388" lon="1.379">
        <ele>155</ele>
        <time>2009-05-31T07:46:38Z</time>
      </trkpt>
      <trkpt lat="49.30399" lon="1.37898">
        <ele>155</ele>
        <time>2009-05-31T07:46:40Z</time>
      </trkpt>
      <trkpt lat="49.30409" lon="1.37891">
        <ele>155</ele>
        <time>2009-05-31T07:46:42Z</time>
      </trkpt>
      <trkpt lat="49.30418" lon="1.37882">
        <ele>155</ele>
        <time>2009-05-31T07:46:44Z</time>
      </trkpt>
      <trkpt lat="49.30424" lon="1.37868">
        <ele>155</ele>
        <time>2009-05-31T07:46:46Z</time>
      </trkpt>
      <trkpt lat="49.30429" lon="1.37853">
        <ele>155</ele>
        <time>2009-05-31T07:46:48Z</time>
      </trkpt>
      <trkpt lat="49.30434" lon="1.37838">
        <ele>155</ele>
        <time>2009-05-31T07:46:50Z</time>
      </trkpt>
      <trkpt lat="49.30438" lon="1.37822">
        <ele>155</ele>
        <time>2009-05-31T07:46:52Z</time>
      </trkpt>
      <trkpt lat="49.30442" lon="1.37807">
        <ele>149</ele>
        <time>2009-05-31T07:46:54Z</time>
      </trkpt>
      <trkpt lat="49.30446" lon="1.37792">
        <ele>149</ele>
        <time>2009-05-31T07:46:56Z</time>
      </trkpt>
      <trkpt lat="49.30451" lon="1.37776">
        <ele>149</ele>
        <time>2009-05-31T07:46:58Z</time>
      </trkpt>
      <trkpt lat="49.30456" lon="1.37761">
        <ele>149</ele>
        <time>2009-05-31T07:47:00Z</time>
      </trkpt>
      <trkpt lat="49.3046" lon="1.37747">
        <ele>149</ele>
        <time>2009-05-31T07:47:02Z</time>
      </trkpt>
      <trkpt lat="49.30466" lon="1.37732">
        <ele>149</ele>
        <time>2009-05-31T07:47:04Z</time>
      </trkpt>
      <trkpt lat="49.3047" lon="1.37718">
        <ele>149</ele>
        <time>2009-05-31T07:47:06Z</time>
      </trkpt>
      <trkpt lat="49.30475" lon="1.37704">
        <ele>149</ele>
        <time>2009-05-31T07:47:08Z</time>
      </trkpt>
      <trkpt lat="49.30479" lon="1.37689">
        <ele>149</ele>
        <time>2009-05-31T07:47:10Z</time>
      </trkpt>
      <trkpt lat="49.30483" lon="1.37674">
        <ele>149</ele>
        <time>2009-05-31T07:47:12Z</time>
      </trkpt>
      <trkpt lat="49.30488" lon="1.3766">
        <ele>149</ele>
        <time>2009-05-31T07:47:14Z</time>
      </trkpt>
      <trkpt lat="49.30492" lon="1.37644">
        <ele>149</ele>
        <time>2009-05-31T07:47:16Z</time>
      </trkpt>
      <trkpt lat="49.30497" lon="1.37629">
        <ele>149</ele>
        <time>2009-05-31T07:47:18Z</time>
      </trkpt>
      <trkpt lat="49.30502" lon="1.37615">
        <ele>149</ele>
        <time>2009-05-31T07:47:20Z</time>
      </trkpt>
      <trkpt lat="49.30506" lon="1.37599">
        <ele>149</ele>
        <time>2009-05-31T07:47:22Z</time>
      </trkpt>
      <trkpt lat="49.3051" lon="1.37584">
        <ele>149</ele>
        <time>2009-05-31T07:47:24Z</time>
      </trkpt>
      <trkpt lat="49.30516" lon="1.3757">
        <ele>149</ele>
        <time>2009-05-31T07:47:26Z</time>
      </trkpt>
      <trkpt lat="49.30524" lon="1.37555">
        <ele>149</ele>
        <time>2009-05-31T07:47:28Z</time>
      </trkpt>
      <trkpt lat="49.30533" lon="1.37544">
        <ele>149</ele>
        <time>2009-05-31T07:47:30Z</time>
      </trkpt>
      <trkpt lat="49.30543" lon="1.37534">
        <ele>149</ele>
        <time>2009-05-31T07:47:32Z</time>
      </trkpt>
      <trkpt lat="49.30554" lon="1.37527">
        <ele>149</ele>
        <time>2009-05-31T07:47:34Z</time>
      </trkpt>
      <trkpt lat="49.30565" lon="1.37521">
        <ele>149</ele>
        <time>2009-05-31T07:47:36Z</time>
      </trkpt>
      <trkpt lat="49.30575" lon="1.37516">
        <ele>149</ele>
        <time>2009-05-31T07:47:38Z</time>
      </trkpt>
      <trkpt lat="49.30586" lon="1.37511">
        <ele>149</ele>
        <time>2009-05-31T07:47:40Z</time>
      </trkpt>
      <trkpt lat="49.30596" lon="1.37507">
        <ele>149</ele>
        <time>2009-05-31T07:47:42Z</time>
      </trkpt>
      <trkpt lat="49.30607" lon="1.37502">
        <ele>149</ele>
        <time>2009-05-31T07:47:44Z</time>
      </trkpt>
      <trkpt lat="49.30617" lon="1.37498">
        <ele>149</ele>
        <time>2009-05-31T07:47:46Z</time>
      </trkpt>
      <trkpt lat="49.30628" lon="1.37494">
        <ele>149</ele>
        <time>2009-05-31T07:47:48Z</time>
      </trkpt>
      <trkpt lat="49.3064" lon="1.3749">
        <ele>149</ele>
        <time>2009-05-31T07:47:50Z</time>
      </trkpt>
      <trkpt lat="49.30651" lon="1.37486">
        <ele>149</ele>
        <time>2009-05-31T07:47:52Z</time>
      </trkpt>
      <trkpt lat="49.30663" lon="1.37482">
        <ele>149</ele>
        <time>2009-05-31T07:47:54Z</time>
      </trkpt>
      <trkpt lat="49.30675" lon="1.37478">
        <ele>149</ele>
        <time>2009-05-31T07:47:56Z</time>
      </trkpt>
      <trkpt lat="49.30686" lon="1.37475">
        <ele>149</ele>
        <time>2009-05-31T07:47:58Z</time>
      </trkpt>
      <trkpt lat="49.30698" lon="1.3747">
        <ele>149</ele>
        <time>2009-05-31T07:48:00Z</time>
      </trkpt>
      <trkpt lat="49.30709" lon="1.37467">
        <ele>149</ele>
        <time>2009-05-31T07:48:02Z</time>
      </trkpt>
      <trkpt lat="49.3072" lon="1.37463">
        <ele>149</ele>
        <time>2009-05-31T07:48:04Z</time>
      </trkpt>
      <trkpt lat="49.30731" lon="1.37458">
        <ele>149</ele>
        <time>2009-05-31T07:48:06Z</time>
      </trkpt>
      <trkpt lat="49.30741" lon="1.37455">
        <ele>149</ele>
        <time>2009-05-31T07:48:08Z</time>
      </trkpt>
      <trkpt lat="49.30751" lon="1.37449">
        <ele>149</ele>
        <time>2009-05-31T07:48:10Z</time>
      </trkpt>
      <trkpt lat="49.30758" lon="1.37437">
        <ele>154</ele>
        <time>2009-05-31T07:48:12Z</time>
      </trkpt>
      <trkpt lat="49.30759" lon="1.3742">
        <ele>154</ele>
        <time>2009-05-31T07:48:14Z</time>
      </trkpt>
      <trkpt lat="49.30758" lon="1.37402">
        <ele>154</ele>
        <time>2009-05-31T07:48:16Z</time>
      </trkpt>
      <trkpt lat="49.30758" lon="1.37384">
        <ele>154</ele>
        <time>2009-05-31T07:48:18Z</time>
      </trkpt>
      <trkpt lat="49.30757" lon="1.37365">
        <ele>154</ele>
        <time>2009-05-31T07:48:20Z</time>
      </trkpt>
      <trkpt lat="49.30755" lon="1.37347">
        <ele>154</ele>
        <time>2009-05-31T07:48:22Z</time>
      </trkpt>
      <trkpt lat="49.30754" lon="1.37329">
        <ele>154</ele>
        <time>2009-05-31T07:48:24Z</time>
      </trkpt>
      <trkpt lat="49.30754" lon="1.3731">
        <ele>154</ele>
        <time>2009-05-31T07:48:26Z</time>
      </trkpt>
      <trkpt lat="49.30754" lon="1.37293">
        <ele>154</ele>
        <time>2009-05-31T07:48:28Z</time>
      </trkpt>
      <trkpt lat="49.30755" lon="1.37275">
        <ele>154</ele>
        <time>2009-05-31T07:48:30Z</time>
      </trkpt>
      <trkpt lat="49.30755" lon="1.37259">
        <ele>154</ele>
        <time>2009-05-31T07:48:32Z</time>
      </trkpt>
      <trkpt lat="49.30755" lon="1.37242">
        <ele>154</ele>
        <time>2009-05-31T07:48:34Z</time>
      </trkpt>
      <trkpt lat="49.30756" lon="1.37225">
        <ele>154</ele>
        <time>2009-05-31T07:48:36Z</time>
      </trkpt>
      <trkpt lat="49.30756" lon="1.37208">
        <ele>154</ele>
        <time>2009-05-31T07:48:38Z</time>
      </trkpt>
      <trkpt lat="49.30757" lon="1.3719">
        <ele>154</ele>
        <time>2009-05-31T07:48:40Z</time>
      </trkpt>
      <trkpt lat="49.30758" lon="1.37173">
        <ele>154</ele>
        <time>2009-05-31T07:48:42Z</time>
      </trkpt>
      <trkpt lat="49.30759" lon="1.37157">
        <ele>154</ele>
        <time>2009-05-31T07:48:44Z</time>
      </trkpt>
      <trkpt lat="49.30759" lon="1.3714">
        <ele>154</ele>
        <time>2009-05-31T07:48:46Z</time>
      </trkpt>
      <trkpt lat="49.3076" lon="1.37125">
        <ele>154</ele>
        <time>2009-05-31T07:48:48Z</time>
      </trkpt>
      <trkpt lat="49.3076" lon="1.3711">
        <ele>154</ele>
        <time>2009-05-31T07:48:50Z</time>
      </trkpt>
      <trkpt lat="49.30761" lon="1.37095">
        <ele>154</ele>
        <time>2009-05-31T07:48:52Z</time>
      </trkpt>
      <trkpt lat="49.30762" lon="1.3708">
        <ele>154</ele>
        <time>2009-05-31T07:48:54Z</time>
      </trkpt>
      <trkpt lat="49.30763" lon="1.37066">
        <ele>154</ele>
        <time>2009-05-31T07:48:56Z</time>
      </trkpt>
      <trkpt lat="49.30764" lon="1.3705">
        <ele>154</ele>
        <time>2009-05-31T07:48:58Z</time>
      </trkpt>
      <trkpt lat="49.30764" lon="1.37034">
        <ele>154</ele>
        <time>2009-05-31T07:49:00Z</time>
      </trkpt>
      <trkpt lat="49.30765" lon="1.37018">
        <ele>154</ele>
        <time>2009-05-31T07:49:02Z</time>
      </trkpt>
      <trkpt lat="49.30765" lon="1.37002">
        <ele>154</ele>
        <time>2009-05-31T07:49:04Z</time>
      </trkpt>
      <trkpt lat="49.30766" lon="1.36986">
        <ele>154</ele>
        <time>2009-05-31T07:49:06Z</time>
      </trkpt>
      <trkpt lat="49.30767" lon="1.3697">
        <ele>154</ele>
        <time>2009-05-31T07:49:08Z</time>
      </trkpt>
      <trkpt lat="49.30767" lon="1.36954">
        <ele>154</ele>
        <time>2009-05-31T07:49:10Z</time>
      </trkpt>
      <trkpt lat="49.30768" lon="1.36937">
        <ele>154</ele>
        <time>2009-05-31T07:49:12Z</time>
      </trkpt>
      <trkpt lat="49.30768" lon="1.3692">
        <ele>154</ele>
        <time>2009-05-31T07:49:14Z</time>
      </trkpt>
      <trkpt lat="49.30769" lon="1.36905">
        <ele>154</ele>
        <time>2009-05-31T07:49:16Z</time>
      </trkpt>
      <trkpt lat="49.30769" lon="1.36889">
        <ele>154</ele>
        <time>2009-05-31T07:49:18Z</time>
      </trkpt>
      <trkpt lat="49.3077" lon="1.36873">
        <ele>154</ele>
        <time>2009-05-31T07:49:20Z</time>
      </trkpt>
      <trkpt lat="49.3077" lon="1.36857">
        <ele>154</ele>
        <time>2009-05-31T07:49:22Z</time>
      </trkpt>
      <trkpt lat="49.30771" lon="1.36841">
        <ele>154</ele>
        <time>2009-05-31T07:49:24Z</time>
      </trkpt>
      <trkpt lat="49.30771" lon="1.36825">
        <ele>154</ele>
        <time>2009-05-31T07:49:26Z</time>
      </trkpt>
      <trkpt lat="49.30772" lon="1.3681">
        <ele>154</ele>
        <time>2009-05-31T07:49:28Z</time>
      </trkpt>
      <trkpt lat="49.30774" lon="1.36795">
        <ele>154</ele>
        <time>2009-05-31T07:49:31Z</time>
      </trkpt>
      <trkpt lat="49.30783" lon="1.36794">
        <ele>154</ele>
        <time>2009-05-31T07:49:35Z</time>
      </trkpt>
      <trkpt lat="49.30794" lon="1.36803">
        <ele>154</ele>
        <time>2009-05-31T07:49:38Z</time>
      </trkpt>
      <trkpt lat="49.30803" lon="1.36809">
        <ele>154</ele>
        <time>2009-05-31T07:49:40Z</time>
      </trkpt>
      <trkpt lat="49.30812" lon="1.36815">
        <ele>154</ele>
        <time>2009-05-31T07:49:42Z</time>
      </trkpt>
      <trkpt lat="49.30822" lon="1.36822">
        <ele>154</ele>
        <time>2009-05-31T07:49:44Z</time>
      </trkpt>
      <trkpt lat="49.30832" lon="1.36827">
        <ele>154</ele>
        <time>2009-05-31T07:49:46Z</time>
      </trkpt>
      <trkpt lat="49.30843" lon="1.36832">
        <ele>154</ele>
        <time>2009-05-31T07:49:48Z</time>
      </trkpt>
      <trkpt lat="49.30854" lon="1.36839">
        <ele>154</ele>
        <time>2009-05-31T07:49:50Z</time>
      </trkpt>
      <trkpt lat="49.30865" lon="1.36844">
        <ele>154</ele>
        <time>2009-05-31T07:49:52Z</time>
      </trkpt>
      <trkpt lat="49.30876" lon="1.3685">
        <ele>154</ele>
        <time>2009-05-31T07:49:54Z</time>
      </trkpt>
      <trkpt lat="49.30887" lon="1.36857">
        <ele>154</ele>
        <time>2009-05-31T07:49:56Z</time>
      </trkpt>
      <trkpt lat="49.30899" lon="1.36863">
        <ele>154</ele>
        <time>2009-05-31T07:49:58Z</time>
      </trkpt>
      <trkpt lat="49.3091" lon="1.36869">
        <ele>154</ele>
        <time>2009-05-31T07:50:00Z</time>
      </trkpt>
      <trkpt lat="49.30922" lon="1.36875">
        <ele>154</ele>
        <time>2009-05-31T07:50:02Z</time>
      </trkpt>
      <trkpt lat="49.30933" lon="1.36882">
        <ele>154</ele>
        <time>2009-05-31T07:50:04Z</time>
      </trkpt>
      <trkpt lat="49.30945" lon="1.36888">
        <ele>154</ele>
        <time>2009-05-31T07:50:06Z</time>
      </trkpt>
      <trkpt lat="49.30956" lon="1.36894">
        <ele>154</ele>
        <time>2009-05-31T07:50:08Z</time>
      </trkpt>
      <trkpt lat="49.30967" lon="1.36901">
        <ele>154</ele>
        <time>2009-05-31T07:50:10Z</time>
      </trkpt>
      <trkpt lat="49.30979" lon="1.36907">
        <ele>154</ele>
        <time>2009-05-31T07:50:12Z</time>
      </trkpt>
      <trkpt lat="49.30992" lon="1.36913">
        <ele>154</ele>
        <time>2009-05-31T07:50:14Z</time>
      </trkpt>
      <trkpt lat="49.31003" lon="1.36919">
        <ele>154</ele>
        <time>2009-05-31T07:50:16Z</time>
      </trkpt>
      <trkpt lat="49.31015" lon="1.36925">
        <ele>154</ele>
        <time>2009-05-31T07:50:18Z</time>
      </trkpt>
      <trkpt lat="49.31026" lon="1.36931">
        <ele>154</ele>
        <time>2009-05-31T07:50:20Z</time>
      </trkpt>
      <trkpt lat="49.31038" lon="1.36938">
        <ele>154</ele>
        <time>2009-05-31T07:50:22Z</time>
      </trkpt>
      <trkpt lat="49.3105" lon="1.36945">
        <ele>154</ele>
        <time>2009-05-31T07:50:24Z</time>
      </trkpt>
      <trkpt lat="49.31061" lon="1.3695">
        <ele>154</ele>
        <time>2009-05-31T07:50:26Z</time>
      </trkpt>
      <trkpt lat="49.31073" lon="1.36951">
        <ele>154</ele>
        <time>2009-05-31T07:50:28Z</time>
      </trkpt>
      <trkpt lat="49.31086" lon="1.36947">
        <ele>154</ele>
        <time>2009-05-31T07:50:30Z</time>
      </trkpt>
      <trkpt lat="49.31098" lon="1.3694">
        <ele>154</ele>
        <time>2009-05-31T07:50:32Z</time>
      </trkpt>
      <trkpt lat="49.3111" lon="1.36933">
        <ele>154</ele>
        <time>2009-05-31T07:50:34Z</time>
      </trkpt>
      <trkpt lat="49.31121" lon="1.36925">
        <ele>154</ele>
        <time>2009-05-31T07:50:36Z</time>
      </trkpt>
      <trkpt lat="49.31133" lon="1.36919">
        <ele>154</ele>
        <time>2009-05-31T07:50:38Z</time>
      </trkpt>
      <trkpt lat="49.31145" lon="1.36916">
        <ele>154</ele>
        <time>2009-05-31T07:50:40Z</time>
      </trkpt>
      <trkpt lat="49.31154" lon="1.36905">
        <ele>154</ele>
        <time>2009-05-31T07:50:42Z</time>
      </trkpt>
      <trkpt lat="49.31161" lon="1.36891">
        <ele>154</ele>
        <time>2009-05-31T07:50:44Z</time>
      </trkpt>
      <trkpt lat="49.31168" lon="1.36876">
        <ele>154</ele>
        <time>2009-05-31T07:50:46Z</time>
      </trkpt>
      <trkpt lat="49.31175" lon="1.36863">
        <ele>149</ele>
        <time>2009-05-31T07:50:48Z</time>
      </trkpt>
      <trkpt lat="49.31181" lon="1.36849">
        <ele>149</ele>
        <time>2009-05-31T07:50:50Z</time>
      </trkpt>
      <trkpt lat="49.31188" lon="1.36838">
        <ele>149</ele>
        <time>2009-05-31T07:50:52Z</time>
      </trkpt>
      <trkpt lat="49.31194" lon="1.36828">
        <ele>149</ele>
        <time>2009-05-31T07:50:54Z</time>
      </trkpt>
      <trkpt lat="49.31199" lon="1.36816">
        <ele>149</ele>
        <time>2009-05-31T07:50:56Z</time>
      </trkpt>
      <trkpt lat="49.31205" lon="1.36804">
        <ele>149</ele>
        <time>2009-05-31T07:50:58Z</time>
      </trkpt>
      <trkpt lat="49.31214" lon="1.36787">
        <ele>149</ele>
        <time>2009-05-31T07:51:01Z</time>
      </trkpt>
      <trkpt lat="49.31219" lon="1.36775">
        <ele>149</ele>
        <time>2009-05-31T07:51:03Z</time>
      </trkpt>
      <trkpt lat="49.31225" lon="1.36762">
        <ele>149</ele>
        <time>2009-05-31T07:51:05Z</time>
      </trkpt>
      <trkpt lat="49.31231" lon="1.3675">
        <ele>149</ele>
        <time>2009-05-31T07:51:07Z</time>
      </trkpt>
      <trkpt lat="49.31239" lon="1.36729">
        <ele>149</ele>
        <time>2009-05-31T07:51:09Z</time>
      </trkpt>
      <trkpt lat="49.31245" lon="1.36716">
        <ele>149</ele>
        <time>2009-05-31T07:51:11Z</time>
      </trkpt>
      <trkpt lat="49.31251" lon="1.36702">
        <ele>149</ele>
        <time>2009-05-31T07:51:13Z</time>
      </trkpt>
      <trkpt lat="49.31256" lon="1.36689">
        <ele>149</ele>
        <time>2009-05-31T07:51:15Z</time>
      </trkpt>
      <trkpt lat="49.31262" lon="1.36675">
        <ele>149</ele>
        <time>2009-05-31T07:51:17Z</time>
      </trkpt>
      <trkpt lat="49.31268" lon="1.36662">
        <ele>149</ele>
        <time>2009-05-31T07:51:19Z</time>
      </trkpt>
      <trkpt lat="49.31272" lon="1.36648">
        <ele>149</ele>
        <time>2009-05-31T07:51:21Z</time>
      </trkpt>
      <trkpt lat="49.31278" lon="1.36635">
        <ele>149</ele>
        <time>2009-05-31T07:51:23Z</time>
      </trkpt>
      <trkpt lat="49.31283" lon="1.36622">
        <ele>149</ele>
        <time>2009-05-31T07:51:25Z</time>
      </trkpt>
      <trkpt lat="49.31289" lon="1.3661">
        <ele>149</ele>
        <time>2009-05-31T07:51:27Z</time>
      </trkpt>
      <trkpt lat="49.31295" lon="1.36598">
        <ele>149</ele>
        <time>2009-05-31T07:51:29Z</time>
      </trkpt>
      <trkpt lat="49.31301" lon="1.36585">
        <ele>149</ele>
        <time>2009-05-31T07:51:31Z</time>
      </trkpt>
      <trkpt lat="49.31307" lon="1.36574">
        <ele>149</ele>
        <time>2009-05-31T07:51:33Z</time>
      </trkpt>
      <trkpt lat="49.31313" lon="1.36561">
        <ele>149</ele>
        <time>2009-05-31T07:51:35Z</time>
      </trkpt>
      <trkpt lat="49.3132" lon="1.36548">
        <ele>149</ele>
        <time>2009-05-31T07:51:37Z</time>
      </trkpt>
      <trkpt lat="49.31326" lon="1.36535">
        <ele>149</ele>
        <time>2009-05-31T07:51:39Z</time>
      </trkpt>
      <trkpt lat="49.31333" lon="1.36522">
        <ele>149</ele>
        <time>2009-05-31T07:51:41Z</time>
      </trkpt>
      <trkpt lat="49.3134" lon="1.36509">
        <ele>149</ele>
        <time>2009-05-31T07:51:43Z</time>
      </trkpt>
      <trkpt lat="49.31347" lon="1.36496">
        <ele>149</ele>
        <time>2009-05-31T07:51:45Z</time>
      </trkpt>
      <trkpt lat="49.31354" lon="1.36484">
        <ele>149</ele>
        <time>2009-05-31T07:51:47Z</time>
      </trkpt>
      <trkpt lat="49.31362" lon="1.36471">
        <ele>149</ele>
        <time>2009-05-31T07:51:49Z</time>
      </trkpt>
      <trkpt lat="49.3137" lon="1.36458">
        <ele>149</ele>
        <time>2009-05-31T07:51:51Z</time>
      </trkpt>
      <trkpt lat="49.31379" lon="1.36444">
        <ele>149</ele>
        <time>2009-05-31T07:51:53Z</time>
      </trkpt>
      <trkpt lat="49.31387" lon="1.3643">
        <ele>149</ele>
        <time>2009-05-31T07:51:55Z</time>
      </trkpt>
      <trkpt lat="49.31394" lon="1.36415">
        <ele>149</ele>
        <time>2009-05-31T07:51:57Z</time>
      </trkpt>
      <trkpt lat="49.31399" lon="1.36397">
        <ele>149</ele>
        <time>2009-05-31T07:51:59Z</time>
      </trkpt>
      <trkpt lat="49.31403" lon="1.36379">
        <ele>149</ele>
        <time>2009-05-31T07:52:01Z</time>
      </trkpt>
      <trkpt lat="49.31406" lon="1.36361">
        <ele>149</ele>
        <time>2009-05-31T07:52:03Z</time>
      </trkpt>
      <trkpt lat="49.31409" lon="1.36345">
        <ele>149</ele>
        <time>2009-05-31T07:52:05Z</time>
      </trkpt>
      <trkpt lat="49.31411" lon="1.36331">
        <ele>149</ele>
        <time>2009-05-31T07:52:07Z</time>
      </trkpt>
      <trkpt lat="49.31415" lon="1.36312">
        <ele>149</ele>
        <time>2009-05-31T07:52:10Z</time>
      </trkpt>
      <trkpt lat="49.31419" lon="1.36294">
        <ele>149</ele>
        <time>2009-05-31T07:52:13Z</time>
      </trkpt>
      <trkpt lat="49.31421" lon="1.36276">
        <ele>143</ele>
        <time>2009-05-31T07:52:16Z</time>
      </trkpt>
      <trkpt lat="49.31425" lon="1.36258">
        <ele>143</ele>
        <time>2009-05-31T07:52:19Z</time>
      </trkpt>
      <trkpt lat="49.31428" lon="1.3624">
        <ele>143</ele>
        <time>2009-05-31T07:52:22Z</time>
      </trkpt>
      <trkpt lat="49.31432" lon="1.36221">
        <ele>143</ele>
        <time>2009-05-31T07:52:25Z</time>
      </trkpt>
      <trkpt lat="49.31437" lon="1.36205">
        <ele>143</ele>
        <time>2009-05-31T07:52:28Z</time>
      </trkpt>
      <trkpt lat="49.3144" lon="1.36192">
        <ele>143</ele>
        <time>2009-05-31T07:52:30Z</time>
      </trkpt>
      <trkpt lat="49.31442" lon="1.36178">
        <ele>143</ele>
        <time>2009-05-31T07:52:32Z</time>
      </trkpt>
      <trkpt lat="49.31446" lon="1.36159">
        <ele>143</ele>
        <time>2009-05-31T07:52:35Z</time>
      </trkpt>
      <trkpt lat="49.31448" lon="1.36146">
        <ele>143</ele>
        <time>2009-05-31T07:52:37Z</time>
      </trkpt>
      <trkpt lat="49.31453" lon="1.36128">
        <ele>143</ele>
        <time>2009-05-31T07:52:40Z</time>
      </trkpt>
      <trkpt lat="49.31456" lon="1.3611">
        <ele>143</ele>
        <time>2009-05-31T07:52:43Z</time>
      </trkpt>
      <trkpt lat="49.3146" lon="1.36093">
        <ele>143</ele>
        <time>2009-05-31T07:52:46Z</time>
      </trkpt>
      <trkpt lat="49.31464" lon="1.36074">
        <ele>143</ele>
        <time>2009-05-31T07:52:49Z</time>
      </trkpt>
      <trkpt lat="49.31467" lon="1.36057">
        <ele>143</ele>
        <time>2009-05-31T07:52:52Z</time>
      </trkpt>
      <trkpt lat="49.31471" lon="1.36039">
        <ele>143</ele>
        <time>2009-05-31T07:52:55Z</time>
      </trkpt>
      <trkpt lat="49.31475" lon="1.3602">
        <ele>143</ele>
        <time>2009-05-31T07:52:58Z</time>
      </trkpt>
      <trkpt lat="49.31478" lon="1.36007">
        <ele>143</ele>
        <time>2009-05-31T07:53:00Z</time>
      </trkpt>
      <trkpt lat="49.31481" lon="1.35989">
        <ele>143</ele>
        <time>2009-05-31T07:53:03Z</time>
      </trkpt>
      <trkpt lat="49.31485" lon="1.35969">
        <ele>143</ele>
        <time>2009-05-31T07:53:06Z</time>
      </trkpt>
      <trkpt lat="49.31488" lon="1.35955">
        <ele>143</ele>
        <time>2009-05-31T07:53:08Z</time>
      </trkpt>
      <trkpt lat="49.31492" lon="1.35939">
        <ele>143</ele>
        <time>2009-05-31T07:53:10Z</time>
      </trkpt>
      <trkpt lat="49.31495" lon="1.35922">
        <ele>143</ele>
        <time>2009-05-31T07:53:12Z</time>
      </trkpt>
      <trkpt lat="49.31498" lon="1.35908">
        <ele>143</ele>
        <time>2009-05-31T07:53:14Z</time>
      </trkpt>
      <trkpt lat="49.31501" lon="1.35893">
        <ele>143</ele>
        <time>2009-05-31T07:53:16Z</time>
      </trkpt>
      <trkpt lat="49.31505" lon="1.35877">
        <ele>143</ele>
        <time>2009-05-31T07:53:18Z</time>
      </trkpt>
      <trkpt lat="49.31508" lon="1.35862">
        <ele>143</ele>
        <time>2009-05-31T07:53:20Z</time>
      </trkpt>
      <trkpt lat="49.31512" lon="1.35845">
        <ele>143</ele>
        <time>2009-05-31T07:53:22Z</time>
      </trkpt>
      <trkpt lat="49.31517" lon="1.35826">
        <ele>143</ele>
        <time>2009-05-31T07:53:24Z</time>
      </trkpt>
      <trkpt lat="49.31521" lon="1.35807">
        <ele>143</ele>
        <time>2009-05-31T07:53:26Z</time>
      </trkpt>
      <trkpt lat="49.31524" lon="1.35789">
        <ele>143</ele>
        <time>2009-05-31T07:53:28Z</time>
      </trkpt>
      <trkpt lat="49.31527" lon="1.35771">
        <ele>138</ele>
        <time>2009-05-31T07:53:30Z</time>
      </trkpt>
      <trkpt lat="49.3153" lon="1.35754">
        <ele>138</ele>
        <time>2009-05-31T07:53:32Z</time>
      </trkpt>
      <trkpt lat="49.31531" lon="1.35736">
        <ele>138</ele>
        <time>2009-05-31T07:53:34Z</time>
      </trkpt>
      <trkpt lat="49.31534" lon="1.35719">
        <ele>138</ele>
        <time>2009-05-31T07:53:36Z</time>
      </trkpt>
      <trkpt lat="49.31537" lon="1.35702">
        <ele>138</ele>
        <time>2009-05-31T07:53:38Z</time>
      </trkpt>
      <trkpt lat="49.31539" lon="1.35685">
        <ele>138</ele>
        <time>2009-05-31T07:53:40Z</time>
      </trkpt>
      <trkpt lat="49.31541" lon="1.35669">
        <ele>138</ele>
        <time>2009-05-31T07:53:42Z</time>
      </trkpt>
      <trkpt lat="49.31545" lon="1.35654">
        <ele>138</ele>
        <time>2009-05-31T07:53:44Z</time>
      </trkpt>
      <trkpt lat="49.31548" lon="1.35638">
        <ele>138</ele>
        <time>2009-05-31T07:53:46Z</time>
      </trkpt>
      <trkpt lat="49.3155" lon="1.35623">
        <ele>138</ele>
        <time>2009-05-31T07:53:48Z</time>
      </trkpt>
      <trkpt lat="49.31552" lon="1.35609">
        <ele>138</ele>
        <time>2009-05-31T07:53:50Z</time>
      </trkpt>
      <trkpt lat="49.31554" lon="1.35593">
        <ele>138</ele>
        <time>2009-05-31T07:53:52Z</time>
      </trkpt>
      <trkpt lat="49.31556" lon="1.35577">
        <ele>138</ele>
        <time>2009-05-31T07:53:54Z</time>
      </trkpt>
      <trkpt lat="49.31557" lon="1.35562">
        <ele>138</ele>
        <time>2009-05-31T07:53:56Z</time>
      </trkpt>
      <trkpt lat="49.31559" lon="1.35548">
        <ele>138</ele>
        <time>2009-05-31T07:53:58Z</time>
      </trkpt>
      <trkpt lat="49.3156" lon="1.35533">
        <ele>138</ele>
        <time>2009-05-31T07:54:00Z</time>
      </trkpt>
      <trkpt lat="49.31561" lon="1.35519">
        <ele>138</ele>
        <time>2009-05-31T07:54:02Z</time>
      </trkpt>
      <trkpt lat="49.31562" lon="1.35498">
        <ele>138</ele>
        <time>2009-05-31T07:54:05Z</time>
      </trkpt>
      <trkpt lat="49.31564" lon="1.35483">
        <ele>138</ele>
        <time>2009-05-31T07:54:07Z</time>
      </trkpt>
      <trkpt lat="49.31565" lon="1.35468">
        <ele>138</ele>
        <time>2009-05-31T07:54:09Z</time>
      </trkpt>
      <trkpt lat="49.31567" lon="1.35453">
        <ele>138</ele>
        <time>2009-05-31T07:54:11Z</time>
      </trkpt>
      <trkpt lat="49.31569" lon="1.35437">
        <ele>138</ele>
        <time>2009-05-31T07:54:13Z</time>
      </trkpt>
      <trkpt lat="49.31571" lon="1.35421">
        <ele>138</ele>
        <time>2009-05-31T07:54:15Z</time>
      </trkpt>
      <trkpt lat="49.31572" lon="1.35406">
        <ele>138</ele>
        <time>2009-05-31T07:54:17Z</time>
      </trkpt>
      <trkpt lat="49.31575" lon="1.3539">
        <ele>138</ele>
        <time>2009-05-31T07:54:19Z</time>
      </trkpt>
      <trkpt lat="49.31577" lon="1.35374">
        <ele>138</ele>
        <time>2009-05-31T07:54:21Z</time>
      </trkpt>
      <trkpt lat="49.31579" lon="1.35359">
        <ele>138</ele>
        <time>2009-05-31T07:54:23Z</time>
      </trkpt>
      <trkpt lat="49.31581" lon="1.35343">
        <ele>138</ele>
        <time>2009-05-31T07:54:25Z</time>
      </trkpt>
      <trkpt lat="49.31583" lon="1.35327">
        <ele>138</ele>
        <time>2009-05-31T07:54:27Z</time>
      </trkpt>
      <trkpt lat="49.31585" lon="1.35311">
        <ele>138</ele>
        <time>2009-05-31T07:54:29Z</time>
      </trkpt>
      <trkpt lat="49.31588" lon="1.35294">
        <ele>138</ele>
        <time>2009-05-31T07:54:31Z</time>
      </trkpt>
      <trkpt lat="49.31591" lon="1.35278">
        <ele>138</ele>
        <time>2009-05-31T07:54:33Z</time>
      </trkpt>
      <trkpt lat="49.31593" lon="1.35263">
        <ele>138</ele>
        <time>2009-05-31T07:54:35Z</time>
      </trkpt>
      <trkpt lat="49.31596" lon="1.35249">
        <ele>138</ele>
        <time>2009-05-31T07:54:37Z</time>
      </trkpt>
      <trkpt lat="49.31598" lon="1.35235">
        <ele>138</ele>
        <time>2009-05-31T07:54:39Z</time>
      </trkpt>
      <trkpt lat="49.31601" lon="1.35222">
        <ele>138</ele>
        <time>2009-05-31T07:54:41Z</time>
      </trkpt>
      <trkpt lat="49.31603" lon="1.35202">
        <ele>138</ele>
        <time>2009-05-31T07:54:44Z</time>
      </trkpt>
      <trkpt lat="49.31605" lon="1.35188">
        <ele>138</ele>
        <time>2009-05-31T07:54:46Z</time>
      </trkpt>
      <trkpt lat="49.31608" lon="1.35174">
        <ele>138</ele>
        <time>2009-05-31T07:54:48Z</time>
      </trkpt>
      <trkpt lat="49.3161" lon="1.35159">
        <ele>138</ele>
        <time>2009-05-31T07:54:50Z</time>
      </trkpt>
      <trkpt lat="49.31612" lon="1.35144">
        <ele>138</ele>
        <time>2009-05-31T07:54:52Z</time>
      </trkpt>
      <trkpt lat="49.31615" lon="1.35131">
        <ele>138</ele>
        <time>2009-05-31T07:54:54Z</time>
      </trkpt>
      <trkpt lat="49.31617" lon="1.35117">
        <ele>138</ele>
        <time>2009-05-31T07:54:56Z</time>
      </trkpt>
      <trkpt lat="49.31619" lon="1.35104">
        <ele>138</ele>
        <time>2009-05-31T07:54:58Z</time>
      </trkpt>
      <trkpt lat="49.31622" lon="1.35085">
        <ele>138</ele>
        <time>2009-05-31T07:55:01Z</time>
      </trkpt>
      <trkpt lat="49.31626" lon="1.35066">
        <ele>138</ele>
        <time>2009-05-31T07:55:04Z</time>
      </trkpt>
      <trkpt lat="49.31629" lon="1.35053">
        <ele>138</ele>
        <time>2009-05-31T07:55:06Z</time>
      </trkpt>
      <trkpt lat="49.31631" lon="1.35039">
        <ele>138</ele>
        <time>2009-05-31T07:55:08Z</time>
      </trkpt>
      <trkpt lat="49.31633" lon="1.35026">
        <ele>138</ele>
        <time>2009-05-31T07:55:10Z</time>
      </trkpt>
      <trkpt lat="49.31637" lon="1.35012">
        <ele>138</ele>
        <time>2009-05-31T07:55:12Z</time>
      </trkpt>
      <trkpt lat="49.3164" lon="1.34998">
        <ele>138</ele>
        <time>2009-05-31T07:55:14Z</time>
      </trkpt>
      <trkpt lat="49.31642" lon="1.34984">
        <ele>138</ele>
        <time>2009-05-31T07:55:16Z</time>
      </trkpt>
      <trkpt lat="49.31645" lon="1.34968">
        <ele>138</ele>
        <time>2009-05-31T07:55:18Z</time>
      </trkpt>
      <trkpt lat="49.31648" lon="1.34952">
        <ele>138</ele>
        <time>2009-05-31T07:55:20Z</time>
      </trkpt>
      <trkpt lat="49.31652" lon="1.34936">
        <ele>138</ele>
        <time>2009-05-31T07:55:22Z</time>
      </trkpt>
      <trkpt lat="49.31656" lon="1.3492">
        <ele>138</ele>
        <time>2009-05-31T07:55:24Z</time>
      </trkpt>
      <trkpt lat="49.3166" lon="1.34903">
        <ele>138</ele>
        <time>2009-05-31T07:55:26Z</time>
      </trkpt>
      <trkpt lat="49.31663" lon="1.34887">
        <ele>138</ele>
        <time>2009-05-31T07:55:28Z</time>
      </trkpt>
      <trkpt lat="49.31668" lon="1.3487">
        <ele>138</ele>
        <time>2009-05-31T07:55:30Z</time>
      </trkpt>
      <trkpt lat="49.31672" lon="1.34853">
        <ele>138</ele>
        <time>2009-05-31T07:55:32Z</time>
      </trkpt>
      <trkpt lat="49.31675" lon="1.34837">
        <ele>138</ele>
        <time>2009-05-31T07:55:34Z</time>
      </trkpt>
      <trkpt lat="49.31678" lon="1.3482">
        <ele>138</ele>
        <time>2009-05-31T07:55:36Z</time>
      </trkpt>
      <trkpt lat="49.31681" lon="1.34803">
        <ele>138</ele>
        <time>2009-05-31T07:55:38Z</time>
      </trkpt>
      <trkpt lat="49.31683" lon="1.34786">
        <ele>138</ele>
        <time>2009-05-31T07:55:40Z</time>
      </trkpt>
      <trkpt lat="49.31685" lon="1.34769">
        <ele>138</ele>
        <time>2009-05-31T07:55:42Z</time>
      </trkpt>
      <trkpt lat="49.31686" lon="1.34751">
        <ele>138</ele>
        <time>2009-05-31T07:55:44Z</time>
      </trkpt>
      <trkpt lat="49.31688" lon="1.34732">
        <ele>138</ele>
        <time>2009-05-31T07:55:46Z</time>
      </trkpt>
      <trkpt lat="49.31688" lon="1.34712">
        <ele>138</ele>
        <time>2009-05-31T07:55:48Z</time>
      </trkpt>
      <trkpt lat="49.31688" lon="1.34689">
        <ele>138</ele>
        <time>2009-05-31T07:55:50Z</time>
      </trkpt>
      <trkpt lat="49.31688" lon="1.34664">
        <ele>138</ele>
        <time>2009-05-31T07:55:52Z</time>
      </trkpt>
      <trkpt lat="49.31689" lon="1.34636">
        <ele>133</ele>
        <time>2009-05-31T07:55:54Z</time>
      </trkpt>
      <trkpt lat="49.3169" lon="1.34621">
        <ele>133</ele>
        <time>2009-05-31T07:55:55Z</time>
      </trkpt>
      <trkpt lat="49.31692" lon="1.34606">
        <ele>133</ele>
        <time>2009-05-31T07:55:56Z</time>
      </trkpt>
      <trkpt lat="49.31693" lon="1.34592">
        <ele>133</ele>
        <time>2009-05-31T07:55:57Z</time>
      </trkpt>
      <trkpt lat="49.31696" lon="1.34565">
        <ele>133</ele>
        <time>2009-05-31T07:55:59Z</time>
      </trkpt>
      <trkpt lat="49.317" lon="1.34539">
        <ele>133</ele>
        <time>2009-05-31T07:56:01Z</time>
      </trkpt>
      <trkpt lat="49.31705" lon="1.34515">
        <ele>133</ele>
        <time>2009-05-31T07:56:03Z</time>
      </trkpt>
      <trkpt lat="49.31709" lon="1.34493">
        <ele>133</ele>
        <time>2009-05-31T07:56:05Z</time>
      </trkpt>
      <trkpt lat="49.31713" lon="1.34472">
        <ele>133</ele>
        <time>2009-05-31T07:56:07Z</time>
      </trkpt>
      <trkpt lat="49.31716" lon="1.34455">
        <ele>133</ele>
        <time>2009-05-31T07:56:09Z</time>
      </trkpt>
      <trkpt lat="49.31718" lon="1.34438">
        <ele>133</ele>
        <time>2009-05-31T07:56:11Z</time>
      </trkpt>
      <trkpt lat="49.31719" lon="1.34423">
        <ele>133</ele>
        <time>2009-05-31T07:56:13Z</time>
      </trkpt>
      <trkpt lat="49.31718" lon="1.34408">
        <ele>133</ele>
        <time>2009-05-31T07:56:15Z</time>
      </trkpt>
      <trkpt lat="49.31716" lon="1.34392">
        <ele>133</ele>
        <time>2009-05-31T07:56:17Z</time>
      </trkpt>
      <trkpt lat="49.31713" lon="1.34376">
        <ele>133</ele>
        <time>2009-05-31T07:56:19Z</time>
      </trkpt>
      <trkpt lat="49.3171" lon="1.34362">
        <ele>133</ele>
        <time>2009-05-31T07:56:21Z</time>
      </trkpt>
      <trkpt lat="49.31706" lon="1.34348">
        <ele>133</ele>
        <time>2009-05-31T07:56:23Z</time>
      </trkpt>
      <trkpt lat="49.31703" lon="1.34334">
        <ele>133</ele>
        <time>2009-05-31T07:56:25Z</time>
      </trkpt>
      <trkpt lat="49.31699" lon="1.34321">
        <ele>138</ele>
        <time>2009-05-31T07:56:27Z</time>
      </trkpt>
      <trkpt lat="49.31695" lon="1.34307">
        <ele>138</ele>
        <time>2009-05-31T07:56:29Z</time>
      </trkpt>
      <trkpt lat="49.31692" lon="1.34294">
        <ele>138</ele>
        <time>2009-05-31T07:56:31Z</time>
      </trkpt>
      <trkpt lat="49.31688" lon="1.3428">
        <ele>138</ele>
        <time>2009-05-31T07:56:33Z</time>
      </trkpt>
      <trkpt lat="49.31683" lon="1.34266">
        <ele>138</ele>
        <time>2009-05-31T07:56:35Z</time>
      </trkpt>
      <trkpt lat="49.3168" lon="1.34251">
        <ele>138</ele>
        <time>2009-05-31T07:56:37Z</time>
      </trkpt>
      <trkpt lat="49.31676" lon="1.34236">
        <ele>138</ele>
        <time>2009-05-31T07:56:39Z</time>
      </trkpt>
      <trkpt lat="49.31672" lon="1.34222">
        <ele>138</ele>
        <time>2009-05-31T07:56:41Z</time>
      </trkpt>
      <trkpt lat="49.31669" lon="1.34208">
        <ele>138</ele>
        <time>2009-05-31T07:56:43Z</time>
      </trkpt>
      <trkpt lat="49.31665" lon="1.34194">
        <ele>138</ele>
        <time>2009-05-31T07:56:45Z</time>
      </trkpt>
      <trkpt lat="49.31661" lon="1.3418">
        <ele>138</ele>
        <time>2009-05-31T07:56:47Z</time>
      </trkpt>
      <trkpt lat="49.31658" lon="1.34166">
        <ele>138</ele>
        <time>2009-05-31T07:56:49Z</time>
      </trkpt>
      <trkpt lat="49.31653" lon="1.34153">
        <ele>138</ele>
        <time>2009-05-31T07:56:51Z</time>
      </trkpt>
      <trkpt lat="49.31649" lon="1.34138">
        <ele>138</ele>
        <time>2009-05-31T07:56:53Z</time>
      </trkpt>
      <trkpt lat="49.31646" lon="1.34124">
        <ele>138</ele>
        <time>2009-05-31T07:56:55Z</time>
      </trkpt>
      <trkpt lat="49.31642" lon="1.34109">
        <ele>138</ele>
        <time>2009-05-31T07:56:57Z</time>
      </trkpt>
      <trkpt lat="49.31638" lon="1.34093">
        <ele>138</ele>
        <time>2009-05-31T07:56:59Z</time>
      </trkpt>
      <trkpt lat="49.31634" lon="1.34078">
        <ele>138</ele>
        <time>2009-05-31T07:57:01Z</time>
      </trkpt>
      <trkpt lat="49.3163" lon="1.34063">
        <ele>138</ele>
        <time>2009-05-31T07:57:03Z</time>
      </trkpt>
      <trkpt lat="49.31626" lon="1.34048">
        <ele>138</ele>
        <time>2009-05-31T07:57:05Z</time>
      </trkpt>
      <trkpt lat="49.31622" lon="1.34031">
        <ele>138</ele>
        <time>2009-05-31T07:57:07Z</time>
      </trkpt>
      <trkpt lat="49.31618" lon="1.34015">
        <ele>138</ele>
        <time>2009-05-31T07:57:09Z</time>
      </trkpt>
      <trkpt lat="49.31613" lon="1.33998">
        <ele>138</ele>
        <time>2009-05-31T07:57:11Z</time>
      </trkpt>
      <trkpt lat="49.31609" lon="1.33981">
        <ele>138</ele>
        <time>2009-05-31T07:57:13Z</time>
      </trkpt>
      <trkpt lat="49.31604" lon="1.33964">
        <ele>138</ele>
        <time>2009-05-31T07:57:15Z</time>
      </trkpt>
      <trkpt lat="49.31599" lon="1.33946">
        <ele>138</ele>
        <time>2009-05-31T07:57:17Z</time>
      </trkpt>
      <trkpt lat="49.31595" lon="1.33928">
        <ele>138</ele>
        <time>2009-05-31T07:57:19Z</time>
      </trkpt>
      <trkpt lat="49.3159" lon="1.3391">
        <ele>138</ele>
        <time>2009-05-31T07:57:21Z</time>
      </trkpt>
      <trkpt lat="49.31585" lon="1.33892">
        <ele>138</ele>
        <time>2009-05-31T07:57:23Z</time>
      </trkpt>
      <trkpt lat="49.31581" lon="1.33872">
        <ele>138</ele>
        <time>2009-05-31T07:57:25Z</time>
      </trkpt>
      <trkpt lat="49.31576" lon="1.33853">
        <ele>138</ele>
        <time>2009-05-31T07:57:27Z</time>
      </trkpt>
      <trkpt lat="49.31571" lon="1.33832">
        <ele>138</ele>
        <time>2009-05-31T07:57:29Z</time>
      </trkpt>
      <trkpt lat="49.31567" lon="1.33811">
        <ele>138</ele>
        <time>2009-05-31T07:57:31Z</time>
      </trkpt>
      <trkpt lat="49.31562" lon="1.3379">
        <ele>138</ele>
        <time>2009-05-31T07:57:33Z</time>
      </trkpt>
      <trkpt lat="49.31558" lon="1.33768">
        <ele>138</ele>
        <time>2009-05-31T07:57:35Z</time>
      </trkpt>
      <trkpt lat="49.31554" lon="1.33747">
        <ele>138</ele>
        <time>2009-05-31T07:57:37Z</time>
      </trkpt>
      <trkpt lat="49.31551" lon="1.33724">
        <ele>138</ele>
        <time>2009-05-31T07:57:39Z</time>
      </trkpt>
      <trkpt lat="49.31547" lon="1.33703">
        <ele>138</ele>
        <time>2009-05-31T07:57:41Z</time>
      </trkpt>
      <trkpt lat="49.31543" lon="1.3368">
        <ele>138</ele>
        <time>2009-05-31T07:57:43Z</time>
      </trkpt>
      <trkpt lat="49.31539" lon="1.33658">
        <ele>138</ele>
        <time>2009-05-31T07:57:45Z</time>
      </trkpt>
      <trkpt lat="49.31535" lon="1.33634">
        <ele>138</ele>
        <time>2009-05-31T07:57:47Z</time>
      </trkpt>
      <trkpt lat="49.31531" lon="1.33612">
        <ele>138</ele>
        <time>2009-05-31T07:57:49Z</time>
      </trkpt>
      <trkpt lat="49.31528" lon="1.33589">
        <ele>138</ele>
        <time>2009-05-31T07:57:51Z</time>
      </trkpt>
      <trkpt lat="49.31524" lon="1.33565">
        <ele>138</ele>
        <time>2009-05-31T07:57:53Z</time>
      </trkpt>
      <trkpt lat="49.3152" lon="1.33543">
        <ele>138</ele>
        <time>2009-05-31T07:57:55Z</time>
      </trkpt>
      <trkpt lat="49.31516" lon="1.33519">
        <ele>138</ele>
        <time>2009-05-31T07:57:57Z</time>
      </trkpt>
      <trkpt lat="49.31512" lon="1.33496">
        <ele>138</ele>
        <time>2009-05-31T07:57:59Z</time>
      </trkpt>
      <trkpt lat="49.31508" lon="1.33474">
        <ele>138</ele>
        <time>2009-05-31T07:58:01Z</time>
      </trkpt>
      <trkpt lat="49.31504" lon="1.3345">
        <ele>138</ele>
        <time>2009-05-31T07:58:03Z</time>
      </trkpt>
      <trkpt lat="49.31501" lon="1.33427">
        <ele>138</ele>
        <time>2009-05-31T07:58:05Z</time>
      </trkpt>
      <trkpt lat="49.31497" lon="1.33403">
        <ele>138</ele>
        <time>2009-05-31T07:58:07Z</time>
      </trkpt>
      <trkpt lat="49.31492" lon="1.33383">
        <ele>138</ele>
        <time>2009-05-31T07:58:09Z</time>
      </trkpt>
      <trkpt lat="49.31489" lon="1.33361">
        <ele>138</ele>
        <time>2009-05-31T07:58:11Z</time>
      </trkpt>
      <trkpt lat="49.31485" lon="1.33338">
        <ele>138</ele>
        <time>2009-05-31T07:58:13Z</time>
      </trkpt>
      <trkpt lat="49.31481" lon="1.33316">
        <ele>138</ele>
        <time>2009-05-31T07:58:15Z</time>
      </trkpt>
      <trkpt lat="49.31477" lon="1.33296">
        <ele>138</ele>
        <time>2009-05-31T07:58:17Z</time>
      </trkpt>
      <trkpt lat="49.31472" lon="1.33272">
        <ele>138</ele>
        <time>2009-05-31T07:58:19Z</time>
      </trkpt>
      <trkpt lat="49.31467" lon="1.33249">
        <ele>138</ele>
        <time>2009-05-31T07:58:21Z</time>
      </trkpt>
      <trkpt lat="49.31461" lon="1.33226">
        <ele>138</ele>
        <time>2009-05-31T07:58:23Z</time>
      </trkpt>
      <trkpt lat="49.31451" lon="1.33208">
        <ele>138</ele>
        <time>2009-05-31T07:58:25Z</time>
      </trkpt>
      <trkpt lat="49.31441" lon="1.3319">
        <ele>138</ele>
        <time>2009-05-31T07:58:27Z</time>
      </trkpt>
      <trkpt lat="49.31432" lon="1.33186">
        <ele>138</ele>
        <time>2009-05-31T07:58:28Z</time>
      </trkpt>
      <trkpt lat="49.31422" lon="1.33184">
        <ele>138</ele>
        <time>2009-05-31T07:58:29Z</time>
      </trkpt>
      <trkpt lat="49.31404" lon="1.33181">
        <ele>138</ele>
        <time>2009-05-31T07:58:31Z</time>
      </trkpt>
      <trkpt lat="49.31383" lon="1.33179">
        <ele>138</ele>
        <time>2009-05-31T07:58:34Z</time>
      </trkpt>
      <trkpt lat="49.31371" lon="1.33183">
        <ele>138</ele>
        <time>2009-05-31T07:58:35Z</time>
      </trkpt>
      <trkpt lat="49.31359" lon="1.33189">
        <ele>138</ele>
        <time>2009-05-31T07:58:36Z</time>
      </trkpt>
      <trkpt lat="49.31349" lon="1.33193">
        <ele>138</ele>
        <time>2009-05-31T07:58:37Z</time>
      </trkpt>
      <trkpt lat="49.31339" lon="1.332">
        <ele>138</ele>
        <time>2009-05-31T07:58:38Z</time>
      </trkpt>
      <trkpt lat="49.3133" lon="1.33205">
        <ele>138</ele>
        <time>2009-05-31T07:58:39Z</time>
      </trkpt>
      <trkpt lat="49.31322" lon="1.33212">
        <ele>138</ele>
        <time>2009-05-31T07:58:40Z</time>
      </trkpt>
      <trkpt lat="49.31313" lon="1.3322">
        <ele>138</ele>
        <time>2009-05-31T07:58:41Z</time>
      </trkpt>
      <trkpt lat="49.31305" lon="1.33229">
        <ele>138</ele>
        <time>2009-05-31T07:58:42Z</time>
      </trkpt>
      <trkpt lat="49.31299" lon="1.33239">
        <ele>138</ele>
        <time>2009-05-31T07:58:43Z</time>
      </trkpt>
      <trkpt lat="49.31293" lon="1.33253">
        <ele>138</ele>
        <time>2009-05-31T07:58:44Z</time>
      </trkpt>
      <trkpt lat="49.31288" lon="1.33267">
        <ele>138</ele>
        <time>2009-05-31T07:58:45Z</time>
      </trkpt>
      <trkpt lat="49.31284" lon="1.3328">
        <ele>138</ele>
        <time>2009-05-31T07:58:46Z</time>
      </trkpt>
      <trkpt lat="49.31281" lon="1.33295">
        <ele>138</ele>
        <time>2009-05-31T07:58:47Z</time>
      </trkpt>
      <trkpt lat="49.31276" lon="1.33308">
        <ele>138</ele>
        <time>2009-05-31T07:58:48Z</time>
      </trkpt>
      <trkpt lat="49.31272" lon="1.33322">
        <ele>138</ele>
        <time>2009-05-31T07:58:49Z</time>
      </trkpt>
      <trkpt lat="49.31269" lon="1.33335">
        <ele>138</ele>
        <time>2009-05-31T07:58:50Z</time>
      </trkpt>
      <trkpt lat="49.31265" lon="1.33349">
        <ele>138</ele>
        <time>2009-05-31T07:58:51Z</time>
      </trkpt>
      <trkpt lat="49.31261" lon="1.33361">
        <ele>138</ele>
        <time>2009-05-31T07:58:52Z</time>
      </trkpt>
      <trkpt lat="49.31238" lon="1.33396">
        <ele>138</ele>
        <time>2009-05-31T07:58:56Z</time>
      </trkpt>
      <trkpt lat="49.31224" lon="1.33397">
        <ele>138</ele>
        <time>2009-05-31T07:58:57Z</time>
      </trkpt>
      <trkpt lat="49.31211" lon="1.33397">
        <ele>138</ele>
        <time>2009-05-31T07:58:58Z</time>
      </trkpt>
      <trkpt lat="49.312" lon="1.33399">
        <ele>138</ele>
        <time>2009-05-31T07:58:59Z</time>
      </trkpt>
      <trkpt lat="49.31191" lon="1.33398">
        <ele>138</ele>
        <time>2009-05-31T07:59:00Z</time>
      </trkpt>
      <trkpt lat="49.31181" lon="1.33394">
        <ele>138</ele>
        <time>2009-05-31T07:59:01Z</time>
      </trkpt>
      <trkpt lat="49.31172" lon="1.33386">
        <ele>138</ele>
        <time>2009-05-31T07:59:02Z</time>
      </trkpt>
      <trkpt lat="49.31165" lon="1.33377">
        <ele>138</ele>
        <time>2009-05-31T07:59:03Z</time>
      </trkpt>
      <trkpt lat="49.31157" lon="1.33359">
        <ele>130</ele>
        <time>2009-05-31T07:59:05Z</time>
      </trkpt>
      <trkpt lat="49.31152" lon="1.33341">
        <ele>130</ele>
        <time>2009-05-31T07:59:07Z</time>
      </trkpt>
      <trkpt lat="49.31151" lon="1.33324">
        <ele>122</ele>
        <time>2009-05-31T07:59:09Z</time>
      </trkpt>
      <trkpt lat="49.3115" lon="1.33309">
        <ele>122</ele>
        <time>2009-05-31T07:59:11Z</time>
      </trkpt>
      <trkpt lat="49.31148" lon="1.33294">
        <ele>122</ele>
        <time>2009-05-31T07:59:13Z</time>
      </trkpt>
      <trkpt lat="49.31147" lon="1.33274">
        <ele>122</ele>
        <time>2009-05-31T07:59:16Z</time>
      </trkpt>
      <trkpt lat="49.31145" lon="1.33255">
        <ele>122</ele>
        <time>2009-05-31T07:59:19Z</time>
      </trkpt>
      <trkpt lat="49.31144" lon="1.33237">
        <ele>122</ele>
        <time>2009-05-31T07:59:22Z</time>
      </trkpt>
      <trkpt lat="49.31142" lon="1.3322">
        <ele>122</ele>
        <time>2009-05-31T07:59:25Z</time>
      </trkpt>
      <trkpt lat="49.31141" lon="1.33204">
        <ele>122</ele>
        <time>2009-05-31T07:59:28Z</time>
      </trkpt>
      <trkpt lat="49.3114" lon="1.33187">
        <ele>122</ele>
        <time>2009-05-31T07:59:31Z</time>
      </trkpt>
      <trkpt lat="49.31138" lon="1.3317">
        <ele>122</ele>
        <time>2009-05-31T07:59:34Z</time>
      </trkpt>
      <trkpt lat="49.31137" lon="1.33154">
        <ele>122</ele>
        <time>2009-05-31T07:59:37Z</time>
      </trkpt>
      <trkpt lat="49.31135" lon="1.33138">
        <ele>122</ele>
        <time>2009-05-31T07:59:40Z</time>
      </trkpt>
      <trkpt lat="49.31134" lon="1.33122">
        <ele>122</ele>
        <time>2009-05-31T07:59:43Z</time>
      </trkpt>
      <trkpt lat="49.31134" lon="1.33108">
        <ele>122</ele>
        <time>2009-05-31T07:59:46Z</time>
      </trkpt>
      <trkpt lat="49.31133" lon="1.33092">
        <ele>122</ele>
        <time>2009-05-31T07:59:49Z</time>
      </trkpt>
      <trkpt lat="49.31132" lon="1.33075">
        <ele>122</ele>
        <time>2009-05-31T07:59:52Z</time>
      </trkpt>
      <trkpt lat="49.31131" lon="1.33057">
        <ele>127</ele>
        <time>2009-05-31T07:59:55Z</time>
      </trkpt>
      <trkpt lat="49.31129" lon="1.33039">
        <ele>127</ele>
        <time>2009-05-31T07:59:58Z</time>
      </trkpt>
      <trkpt lat="49.31128" lon="1.33019">
        <ele>127</ele>
        <time>2009-05-31T08:00:01Z</time>
      </trkpt>
      <trkpt lat="49.31127" lon="1.33">
        <ele>127</ele>
        <time>2009-05-31T08:00:04Z</time>
      </trkpt>
      <trkpt lat="49.31125" lon="1.32981">
        <ele>127</ele>
        <time>2009-05-31T08:00:07Z</time>
      </trkpt>
      <trkpt lat="49.31124" lon="1.32961">
        <ele>127</ele>
        <time>2009-05-31T08:00:10Z</time>
      </trkpt>
      <trkpt lat="49.31123" lon="1.32943">
        <ele>127</ele>
        <time>2009-05-31T08:00:13Z</time>
      </trkpt>
      <trkpt lat="49.31123" lon="1.32923">
        <ele>127</ele>
        <time>2009-05-31T08:00:16Z</time>
      </trkpt>
      <trkpt lat="49.31121" lon="1.32903">
        <ele>127</ele>
        <time>2009-05-31T08:00:19Z</time>
      </trkpt>
      <trkpt lat="49.3112" lon="1.32883">
        <ele>127</ele>
        <time>2009-05-31T08:00:22Z</time>
      </trkpt>
      <trkpt lat="49.3112" lon="1.32869">
        <ele>127</ele>
        <time>2009-05-31T08:00:24Z</time>
      </trkpt>
      <trkpt lat="49.3112" lon="1.32849">
        <ele>127</ele>
        <time>2009-05-31T08:00:27Z</time>
      </trkpt>
      <trkpt lat="49.31121" lon="1.32829">
        <ele>127</ele>
        <time>2009-05-31T08:00:30Z</time>
      </trkpt>
      <trkpt lat="49.31122" lon="1.32809">
        <ele>127</ele>
        <time>2009-05-31T08:00:33Z</time>
      </trkpt>
      <trkpt lat="49.31124" lon="1.32788">
        <ele>133</ele>
        <time>2009-05-31T08:00:36Z</time>
      </trkpt>
      <trkpt lat="49.31126" lon="1.32767">
        <ele>133</ele>
        <time>2009-05-31T08:00:39Z</time>
      </trkpt>
      <trkpt lat="49.31127" lon="1.32753">
        <ele>133</ele>
        <time>2009-05-31T08:00:41Z</time>
      </trkpt>
      <trkpt lat="49.31129" lon="1.32732">
        <ele>133</ele>
        <time>2009-05-31T08:00:44Z</time>
      </trkpt>
      <trkpt lat="49.3113" lon="1.32718">
        <ele>133</ele>
        <time>2009-05-31T08:00:46Z</time>
      </trkpt>
      <trkpt lat="49.31131" lon="1.32704">
        <ele>133</ele>
        <time>2009-05-31T08:00:48Z</time>
      </trkpt>
      <trkpt lat="49.31133" lon="1.32689">
        <ele>133</ele>
        <time>2009-05-31T08:00:50Z</time>
      </trkpt>
      <trkpt lat="49.31133" lon="1.32675">
        <ele>133</ele>
        <time>2009-05-31T08:00:52Z</time>
      </trkpt>
      <trkpt lat="49.31134" lon="1.32661">
        <ele>133</ele>
        <time>2009-05-31T08:00:54Z</time>
      </trkpt>
      <trkpt lat="49.31134" lon="1.32646">
        <ele>133</ele>
        <time>2009-05-31T08:00:56Z</time>
      </trkpt>
      <trkpt lat="49.31134" lon="1.32632">
        <ele>133</ele>
        <time>2009-05-31T08:00:58Z</time>
      </trkpt>
      <trkpt lat="49.31133" lon="1.32617">
        <ele>133</ele>
        <time>2009-05-31T08:01:00Z</time>
      </trkpt>
      <trkpt lat="49.31132" lon="1.32601">
        <ele>133</ele>
        <time>2009-05-31T08:01:02Z</time>
      </trkpt>
      <trkpt lat="49.3113" lon="1.32587">
        <ele>133</ele>
        <time>2009-05-31T08:01:04Z</time>
      </trkpt>
      <trkpt lat="49.31129" lon="1.32572">
        <ele>133</ele>
        <time>2009-05-31T08:01:06Z</time>
      </trkpt>
      <trkpt lat="49.31127" lon="1.32557">
        <ele>133</ele>
        <time>2009-05-31T08:01:08Z</time>
      </trkpt>
      <trkpt lat="49.31125" lon="1.32543">
        <ele>133</ele>
        <time>2009-05-31T08:01:10Z</time>
      </trkpt>
      <trkpt lat="49.31123" lon="1.32529">
        <ele>138</ele>
        <time>2009-05-31T08:01:12Z</time>
      </trkpt>
      <trkpt lat="49.31121" lon="1.32514">
        <ele>138</ele>
        <time>2009-05-31T08:01:14Z</time>
      </trkpt>
      <trkpt lat="49.31119" lon="1.32493">
        <ele>138</ele>
        <time>2009-05-31T08:01:17Z</time>
      </trkpt>
      <trkpt lat="49.31117" lon="1.3248">
        <ele>138</ele>
        <time>2009-05-31T08:01:19Z</time>
      </trkpt>
      <trkpt lat="49.31115" lon="1.32466">
        <ele>138</ele>
        <time>2009-05-31T08:01:21Z</time>
      </trkpt>
      <trkpt lat="49.31113" lon="1.32451">
        <ele>138</ele>
        <time>2009-05-31T08:01:23Z</time>
      </trkpt>
      <trkpt lat="49.31111" lon="1.32437">
        <ele>138</ele>
        <time>2009-05-31T08:01:25Z</time>
      </trkpt>
      <trkpt lat="49.3111" lon="1.32423">
        <ele>138</ele>
        <time>2009-05-31T08:01:27Z</time>
      </trkpt>
      <trkpt lat="49.31108" lon="1.32408">
        <ele>138</ele>
        <time>2009-05-31T08:01:29Z</time>
      </trkpt>
      <trkpt lat="49.31106" lon="1.32394">
        <ele>138</ele>
        <time>2009-05-31T08:01:31Z</time>
      </trkpt>
      <trkpt lat="49.31104" lon="1.32378">
        <ele>138</ele>
        <time>2009-05-31T08:01:33Z</time>
      </trkpt>
      <trkpt lat="49.31102" lon="1.32364">
        <ele>138</ele>
        <time>2009-05-31T08:01:35Z</time>
      </trkpt>
      <trkpt lat="49.311" lon="1.3235">
        <ele>138</ele>
        <time>2009-05-31T08:01:37Z</time>
      </trkpt>
      <trkpt lat="49.31098" lon="1.32335">
        <ele>138</ele>
        <time>2009-05-31T08:01:39Z</time>
      </trkpt>
      <trkpt lat="49.31095" lon="1.32322">
        <ele>138</ele>
        <time>2009-05-31T08:01:41Z</time>
      </trkpt>
      <trkpt lat="49.31089" lon="1.32302">
        <ele>138</ele>
        <time>2009-05-31T08:01:44Z</time>
      </trkpt>
      <trkpt lat="49.31083" lon="1.32284">
        <ele>138</ele>
        <time>2009-05-31T08:01:47Z</time>
      </trkpt>
      <trkpt lat="49.31078" lon="1.32272">
        <ele>138</ele>
        <time>2009-05-31T08:01:49Z</time>
      </trkpt>
      <trkpt lat="49.3107" lon="1.32256">
        <ele>138</ele>
        <time>2009-05-31T08:01:52Z</time>
      </trkpt>
      <trkpt lat="49.31061" lon="1.32243">
        <ele>143</ele>
        <time>2009-05-31T08:01:55Z</time>
      </trkpt>
      <trkpt lat="49.31051" lon="1.32229">
        <ele>143</ele>
        <time>2009-05-31T08:01:58Z</time>
      </trkpt>
      <trkpt lat="49.31044" lon="1.3222">
        <ele>143</ele>
        <time>2009-05-31T08:02:00Z</time>
      </trkpt>
      <trkpt lat="49.31036" lon="1.32212">
        <ele>143</ele>
        <time>2009-05-31T08:02:02Z</time>
      </trkpt>
      <trkpt lat="49.31029" lon="1.32203">
        <ele>143</ele>
        <time>2009-05-31T08:02:04Z</time>
      </trkpt>
      <trkpt lat="49.31021" lon="1.32195">
        <ele>143</ele>
        <time>2009-05-31T08:02:06Z</time>
      </trkpt>
      <trkpt lat="49.31013" lon="1.32188">
        <ele>143</ele>
        <time>2009-05-31T08:02:08Z</time>
      </trkpt>
      <trkpt lat="49.31004" lon="1.32174">
        <ele>143</ele>
        <time>2009-05-31T08:02:11Z</time>
      </trkpt>
      <trkpt lat="49.30994" lon="1.32172">
        <ele>143</ele>
        <time>2009-05-31T08:02:15Z</time>
      </trkpt>
      <trkpt lat="49.30988" lon="1.32185">
        <ele>143</ele>
        <time>2009-05-31T08:02:18Z</time>
      </trkpt>
      <trkpt lat="49.30983" lon="1.32202">
        <ele>143</ele>
        <time>2009-05-31T08:02:21Z</time>
      </trkpt>
      <trkpt lat="49.30979" lon="1.3222">
        <ele>149</ele>
        <time>2009-05-31T08:02:24Z</time>
      </trkpt>
      <trkpt lat="49.30972" lon="1.32237">
        <ele>149</ele>
        <time>2009-05-31T08:02:27Z</time>
      </trkpt>
      <trkpt lat="49.30967" lon="1.32252">
        <ele>149</ele>
        <time>2009-05-31T08:02:30Z</time>
      </trkpt>
      <trkpt lat="49.30963" lon="1.32266">
        <ele>149</ele>
        <time>2009-05-31T08:02:33Z</time>
      </trkpt>
      <trkpt lat="49.30958" lon="1.3228">
        <ele>149</ele>
        <time>2009-05-31T08:02:36Z</time>
      </trkpt>
      <trkpt lat="49.30953" lon="1.32292">
        <ele>149</ele>
        <time>2009-05-31T08:02:39Z</time>
      </trkpt>
      <trkpt lat="49.3095" lon="1.32306">
        <ele>149</ele>
        <time>2009-05-31T08:02:42Z</time>
      </trkpt>
      <trkpt lat="49.30944" lon="1.3232">
        <ele>149</ele>
        <time>2009-05-31T08:02:45Z</time>
      </trkpt>
      <trkpt lat="49.30937" lon="1.32334">
        <ele>149</ele>
        <time>2009-05-31T08:02:48Z</time>
      </trkpt>
      <trkpt lat="49.30929" lon="1.3235">
        <ele>149</ele>
        <time>2009-05-31T08:02:51Z</time>
      </trkpt>
      <trkpt lat="49.30921" lon="1.32365">
        <ele>149</ele>
        <time>2009-05-31T08:02:54Z</time>
      </trkpt>
      <trkpt lat="49.30913" lon="1.3238">
        <ele>149</ele>
        <time>2009-05-31T08:02:57Z</time>
      </trkpt>
      <trkpt lat="49.30905" lon="1.32396">
        <ele>149</ele>
        <time>2009-05-31T08:03:00Z</time>
      </trkpt>
      <trkpt lat="49.30898" lon="1.32412">
        <ele>149</ele>
        <time>2009-05-31T08:03:03Z</time>
      </trkpt>
      <trkpt lat="49.3089" lon="1.32428">
        <ele>149</ele>
        <time>2009-05-31T08:03:06Z</time>
      </trkpt>
      <trkpt lat="49.30883" lon="1.32445">
        <ele>149</ele>
        <time>2009-05-31T08:03:09Z</time>
      </trkpt>
      <trkpt lat="49.30878" lon="1.32461">
        <ele>149</ele>
        <time>2009-05-31T08:03:12Z</time>
      </trkpt>
      <trkpt lat="49.30873" lon="1.32477">
        <ele>149</ele>
        <time>2009-05-31T08:03:15Z</time>
      </trkpt>
      <trkpt lat="49.30868" lon="1.32493">
        <ele>149</ele>
        <time>2009-05-31T08:03:18Z</time>
      </trkpt>
      <trkpt lat="49.30864" lon="1.3251">
        <ele>149</ele>
        <time>2009-05-31T08:03:21Z</time>
      </trkpt>
      <trkpt lat="49.30858" lon="1.32526">
        <ele>149</ele>
        <time>2009-05-31T08:03:24Z</time>
      </trkpt>
      <trkpt lat="49.30853" lon="1.32543">
        <ele>149</ele>
        <time>2009-05-31T08:03:27Z</time>
      </trkpt>
      <trkpt lat="49.30848" lon="1.32561">
        <ele>149</ele>
        <time>2009-05-31T08:03:30Z</time>
      </trkpt>
      <trkpt lat="49.30842" lon="1.32579">
        <ele>149</ele>
        <time>2009-05-31T08:03:33Z</time>
      </trkpt>
      <trkpt lat="49.30836" lon="1.32597">
        <ele>149</ele>
        <time>2009-05-31T08:03:36Z</time>
      </trkpt>
      <trkpt lat="49.30831" lon="1.32615">
        <ele>149</ele>
        <time>2009-05-31T08:03:39Z</time>
      </trkpt>
      <trkpt lat="49.30826" lon="1.32633">
        <ele>149</ele>
        <time>2009-05-31T08:03:42Z</time>
      </trkpt>
      <trkpt lat="49.30821" lon="1.32651">
        <ele>149</ele>
        <time>2009-05-31T08:03:45Z</time>
      </trkpt>
      <trkpt lat="49.30815" lon="1.32669">
        <ele>149</ele>
        <time>2009-05-31T08:03:48Z</time>
      </trkpt>
      <trkpt lat="49.30811" lon="1.32687">
        <ele>149</ele>
        <time>2009-05-31T08:03:51Z</time>
      </trkpt>
      <trkpt lat="49.30806" lon="1.32705">
        <ele>149</ele>
        <time>2009-05-31T08:03:54Z</time>
      </trkpt>
      <trkpt lat="49.30801" lon="1.32722">
        <ele>149</ele>
        <time>2009-05-31T08:03:57Z</time>
      </trkpt>
      <trkpt lat="49.30797" lon="1.32738">
        <ele>149</ele>
        <time>2009-05-31T08:04:00Z</time>
      </trkpt>
      <trkpt lat="49.30792" lon="1.32755">
        <ele>149</ele>
        <time>2009-05-31T08:04:03Z</time>
      </trkpt>
      <trkpt lat="49.30788" lon="1.32774">
        <ele>149</ele>
        <time>2009-05-31T08:04:06Z</time>
      </trkpt>
      <trkpt lat="49.30784" lon="1.32793">
        <ele>149</ele>
        <time>2009-05-31T08:04:09Z</time>
      </trkpt>
      <trkpt lat="49.3078" lon="1.32811">
        <ele>149</ele>
        <time>2009-05-31T08:04:12Z</time>
      </trkpt>
      <trkpt lat="49.30776" lon="1.32829">
        <ele>149</ele>
        <time>2009-05-31T08:04:15Z</time>
      </trkpt>
      <trkpt lat="49.30772" lon="1.32848">
        <ele>149</ele>
        <time>2009-05-31T08:04:18Z</time>
      </trkpt>
      <trkpt lat="49.30767" lon="1.32865">
        <ele>149</ele>
        <time>2009-05-31T08:04:21Z</time>
      </trkpt>
      <trkpt lat="49.30763" lon="1.32882">
        <ele>149</ele>
        <time>2009-05-31T08:04:24Z</time>
      </trkpt>
      <trkpt lat="49.30759" lon="1.329">
        <ele>149</ele>
        <time>2009-05-31T08:04:27Z</time>
      </trkpt>
      <trkpt lat="49.30755" lon="1.32917">
        <ele>149</ele>
        <time>2009-05-31T08:04:30Z</time>
      </trkpt>
      <trkpt lat="49.30751" lon="1.32935">
        <ele>149</ele>
        <time>2009-05-31T08:04:33Z</time>
      </trkpt>
      <trkpt lat="49.30747" lon="1.32953">
        <ele>149</ele>
        <time>2009-05-31T08:04:36Z</time>
      </trkpt>
      <trkpt lat="49.30743" lon="1.32971">
        <ele>149</ele>
        <time>2009-05-31T08:04:39Z</time>
      </trkpt>
      <trkpt lat="49.30738" lon="1.32989">
        <ele>149</ele>
        <time>2009-05-31T08:04:42Z</time>
      </trkpt>
      <trkpt lat="49.30735" lon="1.33003">
        <ele>149</ele>
        <time>2009-05-31T08:04:44Z</time>
      </trkpt>
      <trkpt lat="49.30731" lon="1.33022">
        <ele>149</ele>
        <time>2009-05-31T08:04:47Z</time>
      </trkpt>
      <trkpt lat="49.30728" lon="1.33035">
        <ele>149</ele>
        <time>2009-05-31T08:04:49Z</time>
      </trkpt>
      <trkpt lat="49.30723" lon="1.33055">
        <ele>149</ele>
        <time>2009-05-31T08:04:52Z</time>
      </trkpt>
      <trkpt lat="49.30717" lon="1.33075">
        <ele>149</ele>
        <time>2009-05-31T08:04:55Z</time>
      </trkpt>
      <trkpt lat="49.30714" lon="1.33088">
        <ele>149</ele>
        <time>2009-05-31T08:04:57Z</time>
      </trkpt>
      <trkpt lat="49.30708" lon="1.33107">
        <ele>149</ele>
        <time>2009-05-31T08:05:00Z</time>
      </trkpt>
      <trkpt lat="49.30704" lon="1.3312">
        <ele>149</ele>
        <time>2009-05-31T08:05:02Z</time>
      </trkpt>
      <trkpt lat="49.30701" lon="1.33133">
        <ele>149</ele>
        <time>2009-05-31T08:05:04Z</time>
      </trkpt>
      <trkpt lat="49.30695" lon="1.33152">
        <ele>149</ele>
        <time>2009-05-31T08:05:07Z</time>
      </trkpt>
      <trkpt lat="49.30692" lon="1.33166">
        <ele>149</ele>
        <time>2009-05-31T08:05:09Z</time>
      </trkpt>
      <trkpt lat="49.30686" lon="1.33185">
        <ele>149</ele>
        <time>2009-05-31T08:05:12Z</time>
      </trkpt>
      <trkpt lat="49.30679" lon="1.33203">
        <ele>149</ele>
        <time>2009-05-31T08:05:15Z</time>
      </trkpt>
      <trkpt lat="49.30673" lon="1.3322">
        <ele>149</ele>
        <time>2009-05-31T08:05:18Z</time>
      </trkpt>
      <trkpt lat="49.30666" lon="1.33238">
        <ele>149</ele>
        <time>2009-05-31T08:05:21Z</time>
      </trkpt>
      <trkpt lat="49.3066" lon="1.3325">
        <ele>149</ele>
        <time>2009-05-31T08:05:23Z</time>
      </trkpt>
      <trkpt lat="49.30653" lon="1.33264">
        <ele>149</ele>
        <time>2009-05-31T08:05:26Z</time>
      </trkpt>
      <trkpt lat="49.30646" lon="1.33281">
        <ele>149</ele>
        <time>2009-05-31T08:05:29Z</time>
      </trkpt>
      <trkpt lat="49.30639" lon="1.33297">
        <ele>149</ele>
        <time>2009-05-31T08:05:32Z</time>
      </trkpt>
      <trkpt lat="49.30632" lon="1.33314">
        <ele>149</ele>
        <time>2009-05-31T08:05:35Z</time>
      </trkpt>
      <trkpt lat="49.30626" lon="1.3333">
        <ele>149</ele>
        <time>2009-05-31T08:05:38Z</time>
      </trkpt>
      <trkpt lat="49.30619" lon="1.33347">
        <ele>149</ele>
        <time>2009-05-31T08:05:41Z</time>
      </trkpt>
      <trkpt lat="49.30613" lon="1.33364">
        <ele>149</ele>
        <time>2009-05-31T08:05:44Z</time>
      </trkpt>
      <trkpt lat="49.30606" lon="1.3338">
        <ele>149</ele>
        <time>2009-05-31T08:05:47Z</time>
      </trkpt>
      <trkpt lat="49.306" lon="1.33396">
        <ele>149</ele>
        <time>2009-05-31T08:05:50Z</time>
      </trkpt>
      <trkpt lat="49.30593" lon="1.33413">
        <ele>149</ele>
        <time>2009-05-31T08:05:53Z</time>
      </trkpt>
      <trkpt lat="49.30586" lon="1.3343">
        <ele>149</ele>
        <time>2009-05-31T08:05:56Z</time>
      </trkpt>
      <trkpt lat="49.30579" lon="1.33446">
        <ele>149</ele>
        <time>2009-05-31T08:05:59Z</time>
      </trkpt>
      <trkpt lat="49.30573" lon="1.33461">
        <ele>149</ele>
        <time>2009-05-31T08:06:02Z</time>
      </trkpt>
      <trkpt lat="49.30567" lon="1.33473">
        <ele>149</ele>
        <time>2009-05-31T08:06:05Z</time>
      </trkpt>
      <trkpt lat="49.30562" lon="1.33486">
        <ele>149</ele>
        <time>2009-05-31T08:08:52Z</time>
      </trkpt>
      <trkpt lat="49.3056" lon="1.33505">
        <ele>149</ele>
        <time>2009-05-31T08:08:56Z</time>
      </trkpt>
      <trkpt lat="49.30562" lon="1.33521">
        <ele>149</ele>
        <time>2009-05-31T08:08:59Z</time>
      </trkpt>
      <trkpt lat="49.30563" lon="1.33541">
        <ele>149</ele>
        <time>2009-05-31T08:09:02Z</time>
      </trkpt>
      <trkpt lat="49.30566" lon="1.33561">
        <ele>149</ele>
        <time>2009-05-31T08:09:05Z</time>
      </trkpt>
      <trkpt lat="49.3057" lon="1.3358">
        <ele>149</ele>
        <time>2009-05-31T08:09:08Z</time>
      </trkpt>
      <trkpt lat="49.30572" lon="1.33594">
        <ele>149</ele>
        <time>2009-05-31T08:09:10Z</time>
      </trkpt>
      <trkpt lat="49.30575" lon="1.33609">
        <ele>149</ele>
        <time>2009-05-31T08:09:12Z</time>
      </trkpt>
      <trkpt lat="49.30577" lon="1.33625">
        <ele>149</ele>
        <time>2009-05-31T08:09:14Z</time>
      </trkpt>
      <trkpt lat="49.30579" lon="1.33641">
        <ele>149</ele>
        <time>2009-05-31T08:09:16Z</time>
      </trkpt>
      <trkpt lat="49.30579" lon="1.33655">
        <ele>149</ele>
        <time>2009-05-31T08:09:18Z</time>
      </trkpt>
      <trkpt lat="49.3058" lon="1.3367">
        <ele>149</ele>
        <time>2009-05-31T08:09:20Z</time>
      </trkpt>
      <trkpt lat="49.3058" lon="1.33687">
        <ele>149</ele>
        <time>2009-05-31T08:09:22Z</time>
      </trkpt>
      <trkpt lat="49.3058" lon="1.33704">
        <ele>149</ele>
        <time>2009-05-31T08:09:24Z</time>
      </trkpt>
      <trkpt lat="49.3058" lon="1.3372">
        <ele>149</ele>
        <time>2009-05-31T08:09:26Z</time>
      </trkpt>
      <trkpt lat="49.30581" lon="1.33736">
        <ele>149</ele>
        <time>2009-05-31T08:09:28Z</time>
      </trkpt>
      <trkpt lat="49.30581" lon="1.33752">
        <ele>149</ele>
        <time>2009-05-31T08:09:30Z</time>
      </trkpt>
      <trkpt lat="49.30581" lon="1.33767">
        <ele>149</ele>
        <time>2009-05-31T08:09:32Z</time>
      </trkpt>
      <trkpt lat="49.30582" lon="1.33783">
        <ele>149</ele>
        <time>2009-05-31T08:09:34Z</time>
      </trkpt>
      <trkpt lat="49.30582" lon="1.33797">
        <ele>149</ele>
        <time>2009-05-31T08:09:36Z</time>
      </trkpt>
      <trkpt lat="49.30582" lon="1.33812">
        <ele>149</ele>
        <time>2009-05-31T08:09:38Z</time>
      </trkpt>
      <trkpt lat="49.30582" lon="1.33827">
        <ele>149</ele>
        <time>2009-05-31T08:09:40Z</time>
      </trkpt>
      <trkpt lat="49.30581" lon="1.33843">
        <ele>149</ele>
        <time>2009-05-31T08:09:42Z</time>
      </trkpt>
      <trkpt lat="49.3058" lon="1.33858">
        <ele>149</ele>
        <time>2009-05-31T08:09:44Z</time>
      </trkpt>
      <trkpt lat="49.30579" lon="1.33874">
        <ele>149</ele>
        <time>2009-05-31T08:09:46Z</time>
      </trkpt>
      <trkpt lat="49.30578" lon="1.33889">
        <ele>149</ele>
        <time>2009-05-31T08:09:48Z</time>
      </trkpt>
      <trkpt lat="49.30576" lon="1.33906">
        <ele>149</ele>
        <time>2009-05-31T08:09:50Z</time>
      </trkpt>
      <trkpt lat="49.30576" lon="1.33921">
        <ele>149</ele>
        <time>2009-05-31T08:09:52Z</time>
      </trkpt>
      <trkpt lat="49.30575" lon="1.33936">
        <ele>149</ele>
        <time>2009-05-31T08:09:54Z</time>
      </trkpt>
      <trkpt lat="49.30575" lon="1.33951">
        <ele>149</ele>
        <time>2009-05-31T08:09:56Z</time>
      </trkpt>
      <trkpt lat="49.30575" lon="1.33966">
        <ele>149</ele>
        <time>2009-05-31T08:09:58Z</time>
      </trkpt>
      <trkpt lat="49.30575" lon="1.33981">
        <ele>149</ele>
        <time>2009-05-31T08:10:00Z</time>
      </trkpt>
      <trkpt lat="49.30575" lon="1.33995">
        <ele>149</ele>
        <time>2009-05-31T08:10:02Z</time>
      </trkpt>
      <trkpt lat="49.30576" lon="1.34016">
        <ele>149</ele>
        <time>2009-05-31T08:10:05Z</time>
      </trkpt>
      <trkpt lat="49.30577" lon="1.34037">
        <ele>144</ele>
        <time>2009-05-31T08:10:08Z</time>
      </trkpt>
      <trkpt lat="49.30578" lon="1.34051">
        <ele>144</ele>
        <time>2009-05-31T08:10:10Z</time>
      </trkpt>
      <trkpt lat="49.3058" lon="1.34072">
        <ele>144</ele>
        <time>2009-05-31T08:10:13Z</time>
      </trkpt>
      <trkpt lat="49.30581" lon="1.34092">
        <ele>144</ele>
        <time>2009-05-31T08:10:16Z</time>
      </trkpt>
      <trkpt lat="49.30582" lon="1.34111">
        <ele>144</ele>
        <time>2009-05-31T08:10:19Z</time>
      </trkpt>
      <trkpt lat="49.30584" lon="1.34131">
        <ele>144</ele>
        <time>2009-05-31T08:10:22Z</time>
      </trkpt>
      <trkpt lat="49.30586" lon="1.34152">
        <ele>144</ele>
        <time>2009-05-31T08:10:25Z</time>
      </trkpt>
      <trkpt lat="49.30587" lon="1.34166">
        <ele>144</ele>
        <time>2009-05-31T08:10:27Z</time>
      </trkpt>
      <trkpt lat="49.30587" lon="1.34181">
        <ele>144</ele>
        <time>2009-05-31T08:10:29Z</time>
      </trkpt>
      <trkpt lat="49.30588" lon="1.34196">
        <ele>144</ele>
        <time>2009-05-31T08:10:31Z</time>
      </trkpt>
      <trkpt lat="49.30588" lon="1.3421">
        <ele>144</ele>
        <time>2009-05-31T08:10:33Z</time>
      </trkpt>
      <trkpt lat="49.30587" lon="1.34225">
        <ele>144</ele>
        <time>2009-05-31T08:10:35Z</time>
      </trkpt>
      <trkpt lat="49.30587" lon="1.34241">
        <ele>144</ele>
        <time>2009-05-31T08:10:37Z</time>
      </trkpt>
      <trkpt lat="49.30586" lon="1.34256">
        <ele>144</ele>
        <time>2009-05-31T08:10:39Z</time>
      </trkpt>
      <trkpt lat="49.30585" lon="1.34272">
        <ele>144</ele>
        <time>2009-05-31T08:10:41Z</time>
      </trkpt>
      <trkpt lat="49.30584" lon="1.34287">
        <ele>144</ele>
        <time>2009-05-31T08:10:43Z</time>
      </trkpt>
      <trkpt lat="49.30582" lon="1.34301">
        <ele>144</ele>
        <time>2009-05-31T08:10:45Z</time>
      </trkpt>
      <trkpt lat="49.30579" lon="1.34321">
        <ele>144</ele>
        <time>2009-05-31T08:10:48Z</time>
      </trkpt>
      <trkpt lat="49.30579" lon="1.34341">
        <ele>144</ele>
        <time>2009-05-31T08:10:51Z</time>
      </trkpt>
      <trkpt lat="49.30582" lon="1.34358">
        <ele>144</ele>
        <time>2009-05-31T08:10:54Z</time>
      </trkpt>
      <trkpt lat="49.30586" lon="1.34374">
        <ele>144</ele>
        <time>2009-05-31T08:10:57Z</time>
      </trkpt>
      <trkpt lat="49.3059" lon="1.34387">
        <ele>144</ele>
        <time>2009-05-31T08:11:00Z</time>
      </trkpt>
      <trkpt lat="49.30595" lon="1.344">
        <ele>144</ele>
        <time>2009-05-31T08:11:03Z</time>
      </trkpt>
      <trkpt lat="49.30599" lon="1.34412">
        <ele>144</ele>
        <time>2009-05-31T08:11:06Z</time>
      </trkpt>
      <trkpt lat="49.30604" lon="1.34426">
        <ele>144</ele>
        <time>2009-05-31T08:11:09Z</time>
      </trkpt>
      <trkpt lat="49.30609" lon="1.3444">
        <ele>144</ele>
        <time>2009-05-31T08:11:12Z</time>
      </trkpt>
      <trkpt lat="49.30613" lon="1.34454">
        <ele>144</ele>
        <time>2009-05-31T08:11:15Z</time>
      </trkpt>
      <trkpt lat="49.30612" lon="1.34469">
        <ele>144</ele>
        <time>2009-05-31T08:11:18Z</time>
      </trkpt>
      <trkpt lat="49.30606" lon="1.34481">
        <ele>144</ele>
        <time>2009-05-31T08:11:21Z</time>
      </trkpt>
      <trkpt lat="49.30596" lon="1.34488">
        <ele>144</ele>
        <time>2009-05-31T08:11:24Z</time>
      </trkpt>
      <trkpt lat="49.30586" lon="1.34496">
        <ele>144</ele>
        <time>2009-05-31T08:11:27Z</time>
      </trkpt>
      <trkpt lat="49.30575" lon="1.34504">
        <ele>144</ele>
        <time>2009-05-31T08:11:30Z</time>
      </trkpt>
      <trkpt lat="49.30564" lon="1.34512">
        <ele>144</ele>
        <time>2009-05-31T08:11:33Z</time>
      </trkpt>
      <trkpt lat="49.30553" lon="1.34521">
        <ele>144</ele>
        <time>2009-05-31T08:11:36Z</time>
      </trkpt>
      <trkpt lat="49.30542" lon="1.3453">
        <ele>144</ele>
        <time>2009-05-31T08:11:39Z</time>
      </trkpt>
      <trkpt lat="49.3053" lon="1.3454">
        <ele>144</ele>
        <time>2009-05-31T08:11:42Z</time>
      </trkpt>
      <trkpt lat="49.30519" lon="1.34549">
        <ele>144</ele>
        <time>2009-05-31T08:11:45Z</time>
      </trkpt>
      <trkpt lat="49.30508" lon="1.34558">
        <ele>144</ele>
        <time>2009-05-31T08:11:48Z</time>
      </trkpt>
      <trkpt lat="49.30499" lon="1.34565">
        <ele>144</ele>
        <time>2009-05-31T08:11:50Z</time>
      </trkpt>
      <trkpt lat="49.30491" lon="1.34572">
        <ele>144</ele>
        <time>2009-05-31T08:11:52Z</time>
      </trkpt>
      <trkpt lat="49.30482" lon="1.34579">
        <ele>144</ele>
        <time>2009-05-31T08:11:54Z</time>
      </trkpt>
      <trkpt lat="49.30473" lon="1.34587">
        <ele>144</ele>
        <time>2009-05-31T08:11:56Z</time>
      </trkpt>
      <trkpt lat="49.30465" lon="1.34594">
        <ele>144</ele>
        <time>2009-05-31T08:11:58Z</time>
      </trkpt>
      <trkpt lat="49.30456" lon="1.34601">
        <ele>144</ele>
        <time>2009-05-31T08:12:00Z</time>
      </trkpt>
      <trkpt lat="49.30448" lon="1.34608">
        <ele>144</ele>
        <time>2009-05-31T08:12:02Z</time>
      </trkpt>
      <trkpt lat="49.30439" lon="1.34615">
        <ele>144</ele>
        <time>2009-05-31T08:12:04Z</time>
      </trkpt>
      <trkpt lat="49.30431" lon="1.34622">
        <ele>144</ele>
        <time>2009-05-31T08:12:06Z</time>
      </trkpt>
      <trkpt lat="49.30422" lon="1.3463">
        <ele>144</ele>
        <time>2009-05-31T08:12:08Z</time>
      </trkpt>
      <trkpt lat="49.30414" lon="1.34636">
        <ele>144</ele>
        <time>2009-05-31T08:12:10Z</time>
      </trkpt>
      <trkpt lat="49.30405" lon="1.34643">
        <ele>144</ele>
        <time>2009-05-31T08:12:12Z</time>
      </trkpt>
      <trkpt lat="49.30397" lon="1.3465">
        <ele>144</ele>
        <time>2009-05-31T08:12:14Z</time>
      </trkpt>
      <trkpt lat="49.30388" lon="1.34658">
        <ele>144</ele>
        <time>2009-05-31T08:12:16Z</time>
      </trkpt>
      <trkpt lat="49.3038" lon="1.34664">
        <ele>144</ele>
        <time>2009-05-31T08:12:18Z</time>
      </trkpt>
      <trkpt lat="49.30371" lon="1.34671">
        <ele>144</ele>
        <time>2009-05-31T08:12:20Z</time>
      </trkpt>
      <trkpt lat="49.30363" lon="1.34678">
        <ele>144</ele>
        <time>2009-05-31T08:12:22Z</time>
      </trkpt>
      <trkpt lat="49.30355" lon="1.34684">
        <ele>144</ele>
        <time>2009-05-31T08:12:24Z</time>
      </trkpt>
      <trkpt lat="49.30343" lon="1.34694">
        <ele>144</ele>
        <time>2009-05-31T08:12:27Z</time>
      </trkpt>
      <trkpt lat="49.30331" lon="1.34704">
        <ele>144</ele>
        <time>2009-05-31T08:12:30Z</time>
      </trkpt>
      <trkpt lat="49.3032" lon="1.34713">
        <ele>144</ele>
        <time>2009-05-31T08:12:33Z</time>
      </trkpt>
      <trkpt lat="49.30309" lon="1.34722">
        <ele>144</ele>
        <time>2009-05-31T08:12:36Z</time>
      </trkpt>
      <trkpt lat="49.30298" lon="1.3473">
        <ele>144</ele>
        <time>2009-05-31T08:12:39Z</time>
      </trkpt>
      <trkpt lat="49.30288" lon="1.34739">
        <ele>144</ele>
        <time>2009-05-31T08:12:42Z</time>
      </trkpt>
      <trkpt lat="49.30278" lon="1.34747">
        <ele>144</ele>
        <time>2009-05-31T08:12:45Z</time>
      </trkpt>
      <trkpt lat="49.30268" lon="1.34756">
        <ele>144</ele>
        <time>2009-05-31T08:12:48Z</time>
      </trkpt>
      <trkpt lat="49.30258" lon="1.34764">
        <ele>144</ele>
        <time>2009-05-31T08:12:51Z</time>
      </trkpt>
      <trkpt lat="49.30248" lon="1.34772">
        <ele>144</ele>
        <time>2009-05-31T08:12:54Z</time>
      </trkpt>
      <trkpt lat="49.30239" lon="1.3478">
        <ele>144</ele>
        <time>2009-05-31T08:12:57Z</time>
      </trkpt>
      <trkpt lat="49.30229" lon="1.34789">
        <ele>144</ele>
        <time>2009-05-31T08:13:00Z</time>
      </trkpt>
      <trkpt lat="49.30219" lon="1.34797">
        <ele>144</ele>
        <time>2009-05-31T08:13:03Z</time>
      </trkpt>
      <trkpt lat="49.30209" lon="1.34805">
        <ele>144</ele>
        <time>2009-05-31T08:13:06Z</time>
      </trkpt>
      <trkpt lat="49.30198" lon="1.34814">
        <ele>144</ele>
        <time>2009-05-31T08:13:09Z</time>
      </trkpt>
      <trkpt lat="49.30188" lon="1.34822">
        <ele>144</ele>
        <time>2009-05-31T08:13:12Z</time>
      </trkpt>
      <trkpt lat="49.30178" lon="1.34831">
        <ele>144</ele>
        <time>2009-05-31T08:13:15Z</time>
      </trkpt>
      <trkpt lat="49.30167" lon="1.3484">
        <ele>144</ele>
        <time>2009-05-31T08:13:18Z</time>
      </trkpt>
      <trkpt lat="49.30157" lon="1.34848">
        <ele>149</ele>
        <time>2009-05-31T08:13:21Z</time>
      </trkpt>
      <trkpt lat="49.30146" lon="1.34857">
        <ele>149</ele>
        <time>2009-05-31T08:13:24Z</time>
      </trkpt>
      <trkpt lat="49.30136" lon="1.34866">
        <ele>149</ele>
        <time>2009-05-31T08:13:27Z</time>
      </trkpt>
      <trkpt lat="49.30125" lon="1.34875">
        <ele>149</ele>
        <time>2009-05-31T08:13:30Z</time>
      </trkpt>
      <trkpt lat="49.30114" lon="1.34885">
        <ele>149</ele>
        <time>2009-05-31T08:13:33Z</time>
      </trkpt>
      <trkpt lat="49.30102" lon="1.34894">
        <ele>149</ele>
        <time>2009-05-31T08:13:36Z</time>
      </trkpt>
      <trkpt lat="49.30091" lon="1.34904">
        <ele>149</ele>
        <time>2009-05-31T08:13:39Z</time>
      </trkpt>
      <trkpt lat="49.30079" lon="1.34914">
        <ele>149</ele>
        <time>2009-05-31T08:13:42Z</time>
      </trkpt>
      <trkpt lat="49.30068" lon="1.34923">
        <ele>149</ele>
        <time>2009-05-31T08:13:45Z</time>
      </trkpt>
      <trkpt lat="49.30056" lon="1.34932">
        <ele>149</ele>
        <time>2009-05-31T08:13:48Z</time>
      </trkpt>
      <trkpt lat="49.30044" lon="1.34942">
        <ele>149</ele>
        <time>2009-05-31T08:13:51Z</time>
      </trkpt>
      <trkpt lat="49.30036" lon="1.34949">
        <ele>149</ele>
        <time>2009-05-31T08:13:53Z</time>
      </trkpt>
      <trkpt lat="49.30028" lon="1.34956">
        <ele>149</ele>
        <time>2009-05-31T08:13:55Z</time>
      </trkpt>
      <trkpt lat="49.30019" lon="1.34962">
        <ele>149</ele>
        <time>2009-05-31T08:13:57Z</time>
      </trkpt>
      <trkpt lat="49.30011" lon="1.34968">
        <ele>149</ele>
        <time>2009-05-31T08:13:59Z</time>
      </trkpt>
      <trkpt lat="49.30003" lon="1.34976">
        <ele>149</ele>
        <time>2009-05-31T08:14:01Z</time>
      </trkpt>
      <trkpt lat="49.29991" lon="1.34986">
        <ele>149</ele>
        <time>2009-05-31T08:14:04Z</time>
      </trkpt>
      <trkpt lat="49.29978" lon="1.34996">
        <ele>149</ele>
        <time>2009-05-31T08:14:07Z</time>
      </trkpt>
      <trkpt lat="49.29967" lon="1.35006">
        <ele>149</ele>
        <time>2009-05-31T08:14:10Z</time>
      </trkpt>
      <trkpt lat="49.29958" lon="1.35013">
        <ele>149</ele>
        <time>2009-05-31T08:14:12Z</time>
      </trkpt>
      <trkpt lat="49.29947" lon="1.35022">
        <ele>149</ele>
        <time>2009-05-31T08:14:15Z</time>
      </trkpt>
      <trkpt lat="49.29937" lon="1.3503">
        <ele>149</ele>
        <time>2009-05-31T08:14:18Z</time>
      </trkpt>
      <trkpt lat="49.29928" lon="1.35037">
        <ele>149</ele>
        <time>2009-05-31T08:14:23Z</time>
      </trkpt>
      <trkpt lat="49.29923" lon="1.35051">
        <ele>149</ele>
        <time>2009-05-31T08:14:26Z</time>
      </trkpt>
      <trkpt lat="49.29921" lon="1.35068">
        <ele>149</ele>
        <time>2009-05-31T08:14:29Z</time>
      </trkpt>
      <trkpt lat="49.29918" lon="1.35086">
        <ele>149</ele>
        <time>2009-05-31T08:14:32Z</time>
      </trkpt>
      <trkpt lat="49.29915" lon="1.35104">
        <ele>155</ele>
        <time>2009-05-31T08:14:35Z</time>
      </trkpt>
      <trkpt lat="49.29911" lon="1.35121">
        <ele>155</ele>
        <time>2009-05-31T08:14:38Z</time>
      </trkpt>
      <trkpt lat="49.29907" lon="1.35136">
        <ele>155</ele>
        <time>2009-05-31T08:14:41Z</time>
      </trkpt>
      <trkpt lat="49.29897" lon="1.3514">
        <ele>155</ele>
        <time>2009-05-31T08:14:44Z</time>
      </trkpt>
      <trkpt lat="49.29885" lon="1.35135">
        <ele>155</ele>
        <time>2009-05-31T08:14:47Z</time>
      </trkpt>
      <trkpt lat="49.29873" lon="1.35137">
        <ele>155</ele>
        <time>2009-05-31T08:14:50Z</time>
      </trkpt>
      <trkpt lat="49.29855" lon="1.35136">
        <ele>155</ele>
        <time>2009-05-31T08:14:54Z</time>
      </trkpt>
      <trkpt lat="49.29851" lon="1.35123">
        <ele>155</ele>
        <time>2009-05-31T08:14:56Z</time>
      </trkpt>
      <trkpt lat="49.29846" lon="1.35108">
        <ele>155</ele>
        <time>2009-05-31T08:14:58Z</time>
      </trkpt>
      <trkpt lat="49.2984" lon="1.35095">
        <ele>155</ele>
        <time>2009-05-31T08:15:00Z</time>
      </trkpt>
      <trkpt lat="49.29834" lon="1.35082">
        <ele>155</ele>
        <time>2009-05-31T08:15:02Z</time>
      </trkpt>
      <trkpt lat="49.29827" lon="1.35067">
        <ele>155</ele>
        <time>2009-05-31T08:15:04Z</time>
      </trkpt>
      <trkpt lat="49.29821" lon="1.35053">
        <ele>155</ele>
        <time>2009-05-31T08:15:06Z</time>
      </trkpt>
      <trkpt lat="49.29814" lon="1.35038">
        <ele>155</ele>
        <time>2009-05-31T08:15:08Z</time>
      </trkpt>
      <trkpt lat="49.29806" lon="1.35025">
        <ele>155</ele>
        <time>2009-05-31T08:15:10Z</time>
      </trkpt>
      <trkpt lat="49.29798" lon="1.3501">
        <ele>155</ele>
        <time>2009-05-31T08:15:12Z</time>
      </trkpt>
      <trkpt lat="49.29791" lon="1.34995">
        <ele>155</ele>
        <time>2009-05-31T08:15:14Z</time>
      </trkpt>
      <trkpt lat="49.29783" lon="1.3498">
        <ele>155</ele>
        <time>2009-05-31T08:15:16Z</time>
      </trkpt>
      <trkpt lat="49.29776" lon="1.34966">
        <ele>155</ele>
        <time>2009-05-31T08:15:18Z</time>
      </trkpt>
      <trkpt lat="49.29767" lon="1.34949">
        <ele>155</ele>
        <time>2009-05-31T08:15:20Z</time>
      </trkpt>
      <trkpt lat="49.29759" lon="1.34934">
        <ele>155</ele>
        <time>2009-05-31T08:15:22Z</time>
      </trkpt>
      <trkpt lat="49.29751" lon="1.34919">
        <ele>155</ele>
        <time>2009-05-31T08:15:24Z</time>
      </trkpt>
      <trkpt lat="49.29743" lon="1.34905">
        <ele>155</ele>
        <time>2009-05-31T08:15:26Z</time>
      </trkpt>
      <trkpt lat="49.29735" lon="1.34892">
        <ele>155</ele>
        <time>2009-05-31T08:15:28Z</time>
      </trkpt>
      <trkpt lat="49.29727" lon="1.34879">
        <ele>155</ele>
        <time>2009-05-31T08:15:30Z</time>
      </trkpt>
      <trkpt lat="49.2972" lon="1.34869">
        <ele>155</ele>
        <time>2009-05-31T08:15:32Z</time>
      </trkpt>
      <trkpt lat="49.29711" lon="1.34867">
        <ele>155</ele>
        <time>2009-05-31T08:15:35Z</time>
      </trkpt>
      <trkpt lat="49.29703" lon="1.34878">
        <ele>155</ele>
        <time>2009-05-31T08:15:38Z</time>
      </trkpt>
      <trkpt lat="49.29695" lon="1.34887">
        <ele>155</ele>
        <time>2009-05-31T08:15:40Z</time>
      </trkpt>
      <trkpt lat="49.29688" lon="1.34897">
        <ele>155</ele>
        <time>2009-05-31T08:15:42Z</time>
      </trkpt>
      <trkpt lat="49.29681" lon="1.34907">
        <ele>155</ele>
        <time>2009-05-31T08:15:44Z</time>
      </trkpt>
      <trkpt lat="49.29673" lon="1.34917">
        <ele>155</ele>
        <time>2009-05-31T08:15:46Z</time>
      </trkpt>
      <trkpt lat="49.29666" lon="1.34928">
        <ele>155</ele>
        <time>2009-05-31T08:15:48Z</time>
      </trkpt>
      <trkpt lat="49.29659" lon="1.34938">
        <ele>155</ele>
        <time>2009-05-31T08:15:50Z</time>
      </trkpt>
      <trkpt lat="49.2965" lon="1.34948">
        <ele>155</ele>
        <time>2009-05-31T08:15:52Z</time>
      </trkpt>
      <trkpt lat="49.29642" lon="1.34958">
        <ele>155</ele>
        <time>2009-05-31T08:15:54Z</time>
      </trkpt>
      <trkpt lat="49.29633" lon="1.3497">
        <ele>150</ele>
        <time>2009-05-31T08:15:56Z</time>
      </trkpt>
      <trkpt lat="49.29625" lon="1.34979">
        <ele>150</ele>
        <time>2009-05-31T08:15:58Z</time>
      </trkpt>
      <trkpt lat="49.29614" lon="1.34984">
        <ele>150</ele>
        <time>2009-05-31T08:16:00Z</time>
      </trkpt>
      <trkpt lat="49.29603" lon="1.34985">
        <ele>150</ele>
        <time>2009-05-31T08:16:02Z</time>
      </trkpt>
      <trkpt lat="49.29593" lon="1.34984">
        <ele>150</ele>
        <time>2009-05-31T08:16:04Z</time>
      </trkpt>
      <trkpt lat="49.29582" lon="1.34984">
        <ele>150</ele>
        <time>2009-05-31T08:16:06Z</time>
      </trkpt>
      <trkpt lat="49.29571" lon="1.34984">
        <ele>150</ele>
        <time>2009-05-31T08:16:08Z</time>
      </trkpt>
      <trkpt lat="49.29559" lon="1.34984">
        <ele>150</ele>
        <time>2009-05-31T08:16:10Z</time>
      </trkpt>
      <trkpt lat="49.29548" lon="1.34983">
        <ele>150</ele>
        <time>2009-05-31T08:16:12Z</time>
      </trkpt>
      <trkpt lat="49.29536" lon="1.34983">
        <ele>150</ele>
        <time>2009-05-31T08:16:14Z</time>
      </trkpt>
      <trkpt lat="49.29525" lon="1.34982">
        <ele>150</ele>
        <time>2009-05-31T08:16:16Z</time>
      </trkpt>
      <trkpt lat="49.29514" lon="1.34982">
        <ele>150</ele>
        <time>2009-05-31T08:16:18Z</time>
      </trkpt>
      <trkpt lat="49.29504" lon="1.34983">
        <ele>150</ele>
        <time>2009-05-31T08:16:20Z</time>
      </trkpt>
      <trkpt lat="49.29494" lon="1.34984">
        <ele>150</ele>
        <time>2009-05-31T08:16:22Z</time>
      </trkpt>
      <trkpt lat="49.29484" lon="1.34984">
        <ele>150</ele>
        <time>2009-05-31T08:16:24Z</time>
      </trkpt>
      <trkpt lat="49.29474" lon="1.34983">
        <ele>145</ele>
        <time>2009-05-31T08:16:26Z</time>
      </trkpt>
      <trkpt lat="49.29464" lon="1.34982">
        <ele>145</ele>
        <time>2009-05-31T08:16:28Z</time>
      </trkpt>
      <trkpt lat="49.29453" lon="1.34982">
        <ele>145</ele>
        <time>2009-05-31T08:16:30Z</time>
      </trkpt>
      <trkpt lat="49.29441" lon="1.34981">
        <ele>145</ele>
        <time>2009-05-31T08:16:32Z</time>
      </trkpt>
      <trkpt lat="49.2943" lon="1.3498">
        <ele>145</ele>
        <time>2009-05-31T08:16:34Z</time>
      </trkpt>
      <trkpt lat="49.2942" lon="1.3498">
        <ele>145</ele>
        <time>2009-05-31T08:16:36Z</time>
      </trkpt>
      <trkpt lat="49.29407" lon="1.34979">
        <ele>145</ele>
        <time>2009-05-31T08:16:38Z</time>
      </trkpt>
      <trkpt lat="49.29395" lon="1.34977">
        <ele>140</ele>
        <time>2009-05-31T08:16:40Z</time>
      </trkpt>
      <trkpt lat="49.29383" lon="1.34975">
        <ele>140</ele>
        <time>2009-05-31T08:16:42Z</time>
      </trkpt>
      <trkpt lat="49.2937" lon="1.34971">
        <ele>140</ele>
        <time>2009-05-31T08:16:44Z</time>
      </trkpt>
      <trkpt lat="49.29356" lon="1.34967">
        <ele>140</ele>
        <time>2009-05-31T08:16:46Z</time>
      </trkpt>
      <trkpt lat="49.29344" lon="1.34962">
        <ele>140</ele>
        <time>2009-05-31T08:16:48Z</time>
      </trkpt>
      <trkpt lat="49.29333" lon="1.34958">
        <ele>140</ele>
        <time>2009-05-31T08:16:50Z</time>
      </trkpt>
      <trkpt lat="49.29322" lon="1.34957">
        <ele>140</ele>
        <time>2009-05-31T08:16:52Z</time>
      </trkpt>
      <trkpt lat="49.29312" lon="1.34959">
        <ele>140</ele>
        <time>2009-05-31T08:16:54Z</time>
      </trkpt>
      <trkpt lat="49.293" lon="1.34967">
        <ele>140</ele>
        <time>2009-05-31T08:16:57Z</time>
      </trkpt>
      <trkpt lat="49.29291" lon="1.34972">
        <ele>140</ele>
        <time>2009-05-31T08:17:00Z</time>
      </trkpt>
      <trkpt lat="49.2928" lon="1.34979">
        <ele>140</ele>
        <time>2009-05-31T08:17:03Z</time>
      </trkpt>
      <trkpt lat="49.2927" lon="1.34986">
        <ele>140</ele>
        <time>2009-05-31T08:17:06Z</time>
      </trkpt>
      <trkpt lat="49.29259" lon="1.34994">
        <ele>140</ele>
        <time>2009-05-31T08:17:09Z</time>
      </trkpt>
      <trkpt lat="49.29249" lon="1.35002">
        <ele>140</ele>
        <time>2009-05-31T08:17:12Z</time>
      </trkpt>
      <trkpt lat="49.29239" lon="1.3501">
        <ele>140</ele>
        <time>2009-05-31T08:17:15Z</time>
      </trkpt>
      <trkpt lat="49.2923" lon="1.35018">
        <ele>140</ele>
        <time>2009-05-31T08:17:18Z</time>
      </trkpt>
      <trkpt lat="49.29221" lon="1.35027">
        <ele>140</ele>
        <time>2009-05-31T08:17:21Z</time>
      </trkpt>
      <trkpt lat="49.29214" lon="1.35037">
        <ele>140</ele>
        <time>2009-05-31T08:17:24Z</time>
      </trkpt>
      <trkpt lat="49.29208" lon="1.35048">
        <ele>140</ele>
        <time>2009-05-31T08:17:27Z</time>
      </trkpt>
      <trkpt lat="49.29202" lon="1.35063">
        <ele>140</ele>
        <time>2009-05-31T08:17:31Z</time>
      </trkpt>
      <trkpt lat="49.29192" lon="1.35068">
        <ele>140</ele>
        <time>2009-05-31T08:17:35Z</time>
      </trkpt>
      <trkpt lat="49.29182" lon="1.35064">
        <ele>140</ele>
        <time>2009-05-31T08:17:38Z</time>
      </trkpt>
      <trkpt lat="49.29171" lon="1.35063">
        <ele>140</ele>
        <time>2009-05-31T08:17:41Z</time>
      </trkpt>
      <trkpt lat="49.29159" lon="1.3506">
        <ele>140</ele>
        <time>2009-05-31T08:17:44Z</time>
      </trkpt>
      <trkpt lat="49.29148" lon="1.35058">
        <ele>140</ele>
        <time>2009-05-31T08:17:47Z</time>
      </trkpt>
      <trkpt lat="49.29136" lon="1.35055">
        <ele>140</ele>
        <time>2009-05-31T08:17:50Z</time>
      </trkpt>
      <trkpt lat="49.29125" lon="1.35053">
        <ele>140</ele>
        <time>2009-05-31T08:17:53Z</time>
      </trkpt>
      <trkpt lat="49.29112" lon="1.3505">
        <ele>140</ele>
        <time>2009-05-31T08:17:56Z</time>
      </trkpt>
      <trkpt lat="49.291" lon="1.35047">
        <ele>140</ele>
        <time>2009-05-31T08:17:59Z</time>
      </trkpt>
      <trkpt lat="49.29087" lon="1.35045">
        <ele>140</ele>
        <time>2009-05-31T08:18:02Z</time>
      </trkpt>
      <trkpt lat="49.29074" lon="1.35043">
        <ele>140</ele>
        <time>2009-05-31T08:18:05Z</time>
      </trkpt>
      <trkpt lat="49.29065" lon="1.3504">
        <ele>140</ele>
        <time>2009-05-31T08:18:07Z</time>
      </trkpt>
      <trkpt lat="49.29055" lon="1.35039">
        <ele>140</ele>
        <time>2009-05-31T08:18:09Z</time>
      </trkpt>
      <trkpt lat="49.29045" lon="1.35037">
        <ele>140</ele>
        <time>2009-05-31T08:18:11Z</time>
      </trkpt>
      <trkpt lat="49.29036" lon="1.35035">
        <ele>140</ele>
        <time>2009-05-31T08:18:13Z</time>
      </trkpt>
      <trkpt lat="49.29026" lon="1.35034">
        <ele>140</ele>
        <time>2009-05-31T08:18:15Z</time>
      </trkpt>
      <trkpt lat="49.29016" lon="1.35032">
        <ele>140</ele>
        <time>2009-05-31T08:18:17Z</time>
      </trkpt>
      <trkpt lat="49.29006" lon="1.35031">
        <ele>140</ele>
        <time>2009-05-31T08:18:19Z</time>
      </trkpt>
      <trkpt lat="49.28995" lon="1.35029">
        <ele>140</ele>
        <time>2009-05-31T08:18:21Z</time>
      </trkpt>
      <trkpt lat="49.28985" lon="1.35026">
        <ele>140</ele>
        <time>2009-05-31T08:18:23Z</time>
      </trkpt>
      <trkpt lat="49.28975" lon="1.35024">
        <ele>140</ele>
        <time>2009-05-31T08:18:25Z</time>
      </trkpt>
      <trkpt lat="49.28965" lon="1.35023">
        <ele>140</ele>
        <time>2009-05-31T08:18:27Z</time>
      </trkpt>
      <trkpt lat="49.28954" lon="1.35023">
        <ele>140</ele>
        <time>2009-05-31T08:18:29Z</time>
      </trkpt>
      <trkpt lat="49.28942" lon="1.35022">
        <ele>140</ele>
        <time>2009-05-31T08:18:31Z</time>
      </trkpt>
      <trkpt lat="49.28931" lon="1.35023">
        <ele>140</ele>
        <time>2009-05-31T08:18:33Z</time>
      </trkpt>
      <trkpt lat="49.28919" lon="1.35023">
        <ele>140</ele>
        <time>2009-05-31T08:18:35Z</time>
      </trkpt>
      <trkpt lat="49.28908" lon="1.35023">
        <ele>140</ele>
        <time>2009-05-31T08:18:37Z</time>
      </trkpt>
      <trkpt lat="49.28896" lon="1.35024">
        <ele>140</ele>
        <time>2009-05-31T08:18:39Z</time>
      </trkpt>
      <trkpt lat="49.28884" lon="1.35024">
        <ele>140</ele>
        <time>2009-05-31T08:18:41Z</time>
      </trkpt>
      <trkpt lat="49.28873" lon="1.35024">
        <ele>140</ele>
        <time>2009-05-31T08:18:43Z</time>
      </trkpt>
      <trkpt lat="49.28862" lon="1.35024">
        <ele>140</ele>
        <time>2009-05-31T08:18:45Z</time>
      </trkpt>
      <trkpt lat="49.28852" lon="1.35023">
        <ele>140</ele>
        <time>2009-05-31T08:18:47Z</time>
      </trkpt>
      <trkpt lat="49.28841" lon="1.35023">
        <ele>140</ele>
        <time>2009-05-31T08:18:49Z</time>
      </trkpt>
      <trkpt lat="49.28831" lon="1.35023">
        <ele>140</ele>
        <time>2009-05-31T08:18:51Z</time>
      </trkpt>
      <trkpt lat="49.2882" lon="1.35023">
        <ele>140</ele>
        <time>2009-05-31T08:18:53Z</time>
      </trkpt>
      <trkpt lat="49.2881" lon="1.35023">
        <ele>140</ele>
        <time>2009-05-31T08:18:55Z</time>
      </trkpt>
      <trkpt lat="49.28799" lon="1.35024">
        <ele>140</ele>
        <time>2009-05-31T08:18:57Z</time>
      </trkpt>
      <trkpt lat="49.28788" lon="1.35025">
        <ele>140</ele>
        <time>2009-05-31T08:18:59Z</time>
      </trkpt>
      <trkpt lat="49.28778" lon="1.35026">
        <ele>140</ele>
        <time>2009-05-31T08:19:01Z</time>
      </trkpt>
      <trkpt lat="49.28767" lon="1.35027">
        <ele>140</ele>
        <time>2009-05-31T08:19:03Z</time>
      </trkpt>
      <trkpt lat="49.28757" lon="1.35028">
        <ele>140</ele>
        <time>2009-05-31T08:19:05Z</time>
      </trkpt>
      <trkpt lat="49.28747" lon="1.35029">
        <ele>140</ele>
        <time>2009-05-31T08:19:07Z</time>
      </trkpt>
      <trkpt lat="49.28737" lon="1.35032">
        <ele>140</ele>
        <time>2009-05-31T08:19:09Z</time>
      </trkpt>
      <trkpt lat="49.28727" lon="1.35035">
        <ele>140</ele>
        <time>2009-05-31T08:19:11Z</time>
      </trkpt>
      <trkpt lat="49.28715" lon="1.35041">
        <ele>140</ele>
        <time>2009-05-31T08:19:14Z</time>
      </trkpt>
      <trkpt lat="49.28706" lon="1.35046">
        <ele>140</ele>
        <time>2009-05-31T08:19:16Z</time>
      </trkpt>
      <trkpt lat="49.28697" lon="1.3505">
        <ele>140</ele>
        <time>2009-05-31T08:19:18Z</time>
      </trkpt>
      <trkpt lat="49.28689" lon="1.35055">
        <ele>140</ele>
        <time>2009-05-31T08:19:20Z</time>
      </trkpt>
      <trkpt lat="49.28676" lon="1.35062">
        <ele>140</ele>
        <time>2009-05-31T08:19:23Z</time>
      </trkpt>
      <trkpt lat="49.28667" lon="1.35067">
        <ele>140</ele>
        <time>2009-05-31T08:19:25Z</time>
      </trkpt>
      <trkpt lat="49.28659" lon="1.35072">
        <ele>140</ele>
        <time>2009-05-31T08:19:27Z</time>
      </trkpt>
      <trkpt lat="49.2865" lon="1.35078">
        <ele>140</ele>
        <time>2009-05-31T08:19:29Z</time>
      </trkpt>
      <trkpt lat="49.2864" lon="1.35083">
        <ele>140</ele>
        <time>2009-05-31T08:19:31Z</time>
      </trkpt>
      <trkpt lat="49.2863" lon="1.35089">
        <ele>140</ele>
        <time>2009-05-31T08:19:33Z</time>
      </trkpt>
      <trkpt lat="49.2862" lon="1.35095">
        <ele>140</ele>
        <time>2009-05-31T08:19:35Z</time>
      </trkpt>
      <trkpt lat="49.28611" lon="1.351">
        <ele>140</ele>
        <time>2009-05-31T08:19:37Z</time>
      </trkpt>
      <trkpt lat="49.28601" lon="1.35106">
        <ele>140</ele>
        <time>2009-05-31T08:19:39Z</time>
      </trkpt>
      <trkpt lat="49.28591" lon="1.35112">
        <ele>140</ele>
        <time>2009-05-31T08:19:41Z</time>
      </trkpt>
      <trkpt lat="49.28581" lon="1.35118">
        <ele>140</ele>
        <time>2009-05-31T08:19:43Z</time>
      </trkpt>
      <trkpt lat="49.2857" lon="1.35125">
        <ele>140</ele>
        <time>2009-05-31T08:19:45Z</time>
      </trkpt>
      <trkpt lat="49.28558" lon="1.35131">
        <ele>133</ele>
        <time>2009-05-31T08:19:47Z</time>
      </trkpt>
      <trkpt lat="49.28546" lon="1.35138">
        <ele>133</ele>
        <time>2009-05-31T08:19:49Z</time>
      </trkpt>
      <trkpt lat="49.28533" lon="1.35145">
        <ele>133</ele>
        <time>2009-05-31T08:19:51Z</time>
      </trkpt>
      <trkpt lat="49.2852" lon="1.35152">
        <ele>133</ele>
        <time>2009-05-31T08:19:53Z</time>
      </trkpt>
      <trkpt lat="49.28508" lon="1.35159">
        <ele>133</ele>
        <time>2009-05-31T08:19:55Z</time>
      </trkpt>
      <trkpt lat="49.28495" lon="1.35166">
        <ele>133</ele>
        <time>2009-05-31T08:19:57Z</time>
      </trkpt>
      <trkpt lat="49.28485" lon="1.3517">
        <ele>128</ele>
        <time>2009-05-31T08:19:59Z</time>
      </trkpt>
      <trkpt lat="49.28475" lon="1.35175">
        <ele>128</ele>
        <time>2009-05-31T08:20:01Z</time>
      </trkpt>
      <trkpt lat="49.28464" lon="1.35179">
        <ele>128</ele>
        <time>2009-05-31T08:20:04Z</time>
      </trkpt>
      <trkpt lat="49.28453" lon="1.35182">
        <ele>128</ele>
        <time>2009-05-31T08:20:08Z</time>
      </trkpt>
      <trkpt lat="49.28442" lon="1.35179">
        <ele>128</ele>
        <time>2009-05-31T08:20:12Z</time>
      </trkpt>
      <trkpt lat="49.28451" lon="1.35184">
        <ele>128</ele>
        <time>2009-05-31T08:20:26Z</time>
      </trkpt>
      <trkpt lat="49.28451" lon="1.35198">
        <ele>128</ele>
        <time>2009-05-31T08:20:29Z</time>
      </trkpt>
      <trkpt lat="49.28446" lon="1.35211">
        <ele>128</ele>
        <time>2009-05-31T08:20:32Z</time>
      </trkpt>
      <trkpt lat="49.2844" lon="1.35225">
        <ele>128</ele>
        <time>2009-05-31T08:20:35Z</time>
      </trkpt>
      <trkpt lat="49.28436" lon="1.35241">
        <ele>128</ele>
        <time>2009-05-31T08:20:38Z</time>
      </trkpt>
      <trkpt lat="49.28438" lon="1.35259">
        <ele>122</ele>
        <time>2009-05-31T08:20:41Z</time>
      </trkpt>
      <trkpt lat="49.28445" lon="1.35276">
        <ele>122</ele>
        <time>2009-05-31T08:20:44Z</time>
      </trkpt>
      <trkpt lat="49.28451" lon="1.35288">
        <ele>122</ele>
        <time>2009-05-31T08:20:46Z</time>
      </trkpt>
      <trkpt lat="49.28461" lon="1.35295">
        <ele>122</ele>
        <time>2009-05-31T08:20:49Z</time>
      </trkpt>
      <trkpt lat="49.28471" lon="1.35302">
        <ele>122</ele>
        <time>2009-05-31T08:20:52Z</time>
      </trkpt>
      <trkpt lat="49.28479" lon="1.35308">
        <ele>122</ele>
        <time>2009-05-31T08:20:55Z</time>
      </trkpt>
      <trkpt lat="49.28489" lon="1.35315">
        <ele>122</ele>
        <time>2009-05-31T08:20:59Z</time>
      </trkpt>
      <trkpt lat="49.28498" lon="1.35321">
        <ele>122</ele>
        <time>2009-05-31T08:21:02Z</time>
      </trkpt>
      <trkpt lat="49.28506" lon="1.35328">
        <ele>122</ele>
        <time>2009-05-31T08:21:05Z</time>
      </trkpt>
      <trkpt lat="49.28516" lon="1.35337">
        <ele>122</ele>
        <time>2009-05-31T08:21:09Z</time>
      </trkpt>
      <trkpt lat="49.28526" lon="1.35345">
        <ele>122</ele>
        <time>2009-05-31T08:21:13Z</time>
      </trkpt>
      <trkpt lat="49.28535" lon="1.35351">
        <ele>122</ele>
        <time>2009-05-31T08:21:16Z</time>
      </trkpt>
      <trkpt lat="49.28543" lon="1.35358">
        <ele>122</ele>
        <time>2009-05-31T08:21:19Z</time>
      </trkpt>
      <trkpt lat="49.28552" lon="1.35365">
        <ele>122</ele>
        <time>2009-05-31T08:21:22Z</time>
      </trkpt>
      <trkpt lat="49.28562" lon="1.35373">
        <ele>122</ele>
        <time>2009-05-31T08:21:25Z</time>
      </trkpt>
      <trkpt lat="49.2857" lon="1.3538">
        <ele>122</ele>
        <time>2009-05-31T08:21:28Z</time>
      </trkpt>
      <trkpt lat="49.2858" lon="1.35389">
        <ele>122</ele>
        <time>2009-05-31T08:21:32Z</time>
      </trkpt>
      <trkpt lat="49.28589" lon="1.354">
        <ele>122</ele>
        <time>2009-05-31T08:21:36Z</time>
      </trkpt>
      <trkpt lat="49.28599" lon="1.35409">
        <ele>122</ele>
        <time>2009-05-31T08:21:40Z</time>
      </trkpt>
      <trkpt lat="49.28609" lon="1.3542">
        <ele>128</ele>
        <time>2009-05-31T08:21:44Z</time>
      </trkpt>
      <trkpt lat="49.28618" lon="1.35431">
        <ele>128</ele>
        <time>2009-05-31T08:21:48Z</time>
      </trkpt>
      <trkpt lat="49.28627" lon="1.35442">
        <ele>128</ele>
        <time>2009-05-31T08:21:52Z</time>
      </trkpt>
      <trkpt lat="49.28637" lon="1.35452">
        <ele>128</ele>
        <time>2009-05-31T08:21:56Z</time>
      </trkpt>
      <trkpt lat="49.28646" lon="1.35461">
        <ele>128</ele>
        <time>2009-05-31T08:22:00Z</time>
      </trkpt>
      <trkpt lat="49.28654" lon="1.3547">
        <ele>128</ele>
        <time>2009-05-31T08:22:04Z</time>
      </trkpt>
      <trkpt lat="49.28663" lon="1.35482">
        <ele>128</ele>
        <time>2009-05-31T08:22:08Z</time>
      </trkpt>
      <trkpt lat="49.2867" lon="1.35491">
        <ele>128</ele>
        <time>2009-05-31T08:22:11Z</time>
      </trkpt>
      <trkpt lat="49.2868" lon="1.35502">
        <ele>128</ele>
        <time>2009-05-31T08:22:15Z</time>
      </trkpt>
      <trkpt lat="49.28689" lon="1.3551">
        <ele>128</ele>
        <time>2009-05-31T08:22:19Z</time>
      </trkpt>
      <trkpt lat="49.28699" lon="1.35519">
        <ele>128</ele>
        <time>2009-05-31T08:22:23Z</time>
      </trkpt>
      <trkpt lat="49.28709" lon="1.35527">
        <ele>135</ele>
        <time>2009-05-31T08:22:27Z</time>
      </trkpt>
      <trkpt lat="49.28719" lon="1.35532">
        <ele>135</ele>
        <time>2009-05-31T08:22:31Z</time>
      </trkpt>
      <trkpt lat="49.28729" lon="1.35536">
        <ele>135</ele>
        <time>2009-05-31T08:22:35Z</time>
      </trkpt>
      <trkpt lat="49.2874" lon="1.3554">
        <ele>135</ele>
        <time>2009-05-31T08:22:39Z</time>
      </trkpt>
      <trkpt lat="49.2875" lon="1.35541">
        <ele>135</ele>
        <time>2009-05-31T08:22:43Z</time>
      </trkpt>
      <trkpt lat="49.28761" lon="1.35544">
        <ele>135</ele>
        <time>2009-05-31T08:22:47Z</time>
      </trkpt>
      <trkpt lat="49.28773" lon="1.35546">
        <ele>141</ele>
        <time>2009-05-31T08:22:51Z</time>
      </trkpt>
      <trkpt lat="49.28783" lon="1.35547">
        <ele>141</ele>
        <time>2009-05-31T08:22:55Z</time>
      </trkpt>
      <trkpt lat="49.28794" lon="1.35549">
        <ele>141</ele>
        <time>2009-05-31T08:22:59Z</time>
      </trkpt>
      <trkpt lat="49.28806" lon="1.3555">
        <ele>141</ele>
        <time>2009-05-31T08:23:03Z</time>
      </trkpt>
      <trkpt lat="49.28817" lon="1.35551">
        <ele>141</ele>
        <time>2009-05-31T08:23:07Z</time>
      </trkpt>
      <trkpt lat="49.28829" lon="1.35553">
        <ele>141</ele>
        <time>2009-05-31T08:23:11Z</time>
      </trkpt>
      <trkpt lat="49.28841" lon="1.35553">
        <ele>146</ele>
        <time>2009-05-31T08:23:15Z</time>
      </trkpt>
      <trkpt lat="49.28852" lon="1.35551">
        <ele>146</ele>
        <time>2009-05-31T08:23:19Z</time>
      </trkpt>
      <trkpt lat="49.28863" lon="1.3555">
        <ele>146</ele>
        <time>2009-05-31T08:23:23Z</time>
      </trkpt>
      <trkpt lat="49.28874" lon="1.35547">
        <ele>146</ele>
        <time>2009-05-31T08:23:27Z</time>
      </trkpt>
      <trkpt lat="49.28886" lon="1.35544">
        <ele>146</ele>
        <time>2009-05-31T08:23:31Z</time>
      </trkpt>
      <trkpt lat="49.28895" lon="1.35541">
        <ele>146</ele>
        <time>2009-05-31T08:23:34Z</time>
      </trkpt>
      <trkpt lat="49.28905" lon="1.35538">
        <ele>146</ele>
        <time>2009-05-31T08:23:37Z</time>
      </trkpt>
      <trkpt lat="49.28915" lon="1.35535">
        <ele>146</ele>
        <time>2009-05-31T08:23:40Z</time>
      </trkpt>
      <trkpt lat="49.28925" lon="1.35532">
        <ele>146</ele>
        <time>2009-05-31T08:23:43Z</time>
      </trkpt>
      <trkpt lat="49.28935" lon="1.35529">
        <ele>146</ele>
        <time>2009-05-31T08:23:46Z</time>
      </trkpt>
      <trkpt lat="49.28945" lon="1.35526">
        <ele>146</ele>
        <time>2009-05-31T08:23:49Z</time>
      </trkpt>
      <trkpt lat="49.28956" lon="1.35523">
        <ele>146</ele>
        <time>2009-05-31T08:23:52Z</time>
      </trkpt>
      <trkpt lat="49.28966" lon="1.35519">
        <ele>146</ele>
        <time>2009-05-31T08:23:55Z</time>
      </trkpt>
      <trkpt lat="49.28976" lon="1.35515">
        <ele>146</ele>
        <time>2009-05-31T08:23:58Z</time>
      </trkpt>
      <trkpt lat="49.28988" lon="1.35511">
        <ele>146</ele>
        <time>2009-05-31T08:24:01Z</time>
      </trkpt>
      <trkpt lat="49.28999" lon="1.35506">
        <ele>146</ele>
        <time>2009-05-31T08:24:04Z</time>
      </trkpt>
      <trkpt lat="49.29012" lon="1.35502">
        <ele>146</ele>
        <time>2009-05-31T08:24:07Z</time>
      </trkpt>
      <trkpt lat="49.29021" lon="1.35498">
        <ele>146</ele>
        <time>2009-05-31T08:24:09Z</time>
      </trkpt>
      <trkpt lat="49.29035" lon="1.35495">
        <ele>146</ele>
        <time>2009-05-31T08:24:12Z</time>
      </trkpt>
      <trkpt lat="49.29044" lon="1.35491">
        <ele>146</ele>
        <time>2009-05-31T08:24:14Z</time>
      </trkpt>
      <trkpt lat="49.29053" lon="1.35488">
        <ele>146</ele>
        <time>2009-05-31T08:24:16Z</time>
      </trkpt>
      <trkpt lat="49.29064" lon="1.35485">
        <ele>146</ele>
        <time>2009-05-31T08:24:18Z</time>
      </trkpt>
      <trkpt lat="49.29075" lon="1.35481">
        <ele>146</ele>
        <time>2009-05-31T08:24:20Z</time>
      </trkpt>
      <trkpt lat="49.29085" lon="1.35478">
        <ele>146</ele>
        <time>2009-05-31T08:24:22Z</time>
      </trkpt>
      <trkpt lat="49.29096" lon="1.35474">
        <ele>146</ele>
        <time>2009-05-31T08:24:24Z</time>
      </trkpt>
      <trkpt lat="49.29107" lon="1.3547">
        <ele>146</ele>
        <time>2009-05-31T08:24:26Z</time>
      </trkpt>
      <trkpt lat="49.29119" lon="1.35468">
        <ele>146</ele>
        <time>2009-05-31T08:24:28Z</time>
      </trkpt>
      <trkpt lat="49.2913" lon="1.35464">
        <ele>146</ele>
        <time>2009-05-31T08:24:30Z</time>
      </trkpt>
      <trkpt lat="49.29142" lon="1.35461">
        <ele>146</ele>
        <time>2009-05-31T08:24:32Z</time>
      </trkpt>
      <trkpt lat="49.29154" lon="1.35458">
        <ele>146</ele>
        <time>2009-05-31T08:24:34Z</time>
      </trkpt>
      <trkpt lat="49.29166" lon="1.35454">
        <ele>146</ele>
        <time>2009-05-31T08:24:36Z</time>
      </trkpt>
      <trkpt lat="49.29177" lon="1.35452">
        <ele>146</ele>
        <time>2009-05-31T08:24:38Z</time>
      </trkpt>
      <trkpt lat="49.29189" lon="1.35448">
        <ele>146</ele>
        <time>2009-05-31T08:24:40Z</time>
      </trkpt>
      <trkpt lat="49.292" lon="1.35445">
        <ele>146</ele>
        <time>2009-05-31T08:24:42Z</time>
      </trkpt>
      <trkpt lat="49.29212" lon="1.35443">
        <ele>146</ele>
        <time>2009-05-31T08:24:44Z</time>
      </trkpt>
      <trkpt lat="49.29223" lon="1.3544">
        <ele>146</ele>
        <time>2009-05-31T08:24:46Z</time>
      </trkpt>
      <trkpt lat="49.29234" lon="1.35436">
        <ele>146</ele>
        <time>2009-05-31T08:24:48Z</time>
      </trkpt>
      <trkpt lat="49.29246" lon="1.35434">
        <ele>146</ele>
        <time>2009-05-31T08:24:50Z</time>
      </trkpt>
      <trkpt lat="49.29257" lon="1.35429">
        <ele>146</ele>
        <time>2009-05-31T08:24:52Z</time>
      </trkpt>
      <trkpt lat="49.29268" lon="1.35425">
        <ele>146</ele>
        <time>2009-05-31T08:24:54Z</time>
      </trkpt>
      <trkpt lat="49.29279" lon="1.35418">
        <ele>146</ele>
        <time>2009-05-31T08:24:56Z</time>
      </trkpt>
      <trkpt lat="49.29289" lon="1.35411">
        <ele>146</ele>
        <time>2009-05-31T08:24:58Z</time>
      </trkpt>
      <trkpt lat="49.293" lon="1.35402">
        <ele>146</ele>
        <time>2009-05-31T08:25:00Z</time>
      </trkpt>
      <trkpt lat="49.2931" lon="1.35393">
        <ele>146</ele>
        <time>2009-05-31T08:25:02Z</time>
      </trkpt>
      <trkpt lat="49.29321" lon="1.35383">
        <ele>146</ele>
        <time>2009-05-31T08:25:04Z</time>
      </trkpt>
      <trkpt lat="49.29332" lon="1.35373">
        <ele>146</ele>
        <time>2009-05-31T08:25:06Z</time>
      </trkpt>
      <trkpt lat="49.29343" lon="1.35363">
        <ele>146</ele>
        <time>2009-05-31T08:25:08Z</time>
      </trkpt>
      <trkpt lat="49.29353" lon="1.35353">
        <ele>146</ele>
        <time>2009-05-31T08:25:10Z</time>
      </trkpt>
      <trkpt lat="49.29363" lon="1.35343">
        <ele>146</ele>
        <time>2009-05-31T08:25:12Z</time>
      </trkpt>
      <trkpt lat="49.29373" lon="1.35332">
        <ele>146</ele>
        <time>2009-05-31T08:25:14Z</time>
      </trkpt>
      <trkpt lat="49.29384" lon="1.35324">
        <ele>146</ele>
        <time>2009-05-31T08:25:16Z</time>
      </trkpt>
      <trkpt lat="49.29394" lon="1.35321">
        <ele>146</ele>
        <time>2009-05-31T08:25:18Z</time>
      </trkpt>
      <trkpt lat="49.29404" lon="1.35329">
        <ele>146</ele>
        <time>2009-05-31T08:25:20Z</time>
      </trkpt>
      <trkpt lat="49.29411" lon="1.35341">
        <ele>146</ele>
        <time>2009-05-31T08:25:22Z</time>
      </trkpt>
      <trkpt lat="49.29417" lon="1.35355">
        <ele>146</ele>
        <time>2009-05-31T08:25:24Z</time>
      </trkpt>
      <trkpt lat="49.29424" lon="1.35368">
        <ele>146</ele>
        <time>2009-05-31T08:25:26Z</time>
      </trkpt>
      <trkpt lat="49.2943" lon="1.35381">
        <ele>146</ele>
        <time>2009-05-31T08:25:28Z</time>
      </trkpt>
      <trkpt lat="49.29435" lon="1.35394">
        <ele>146</ele>
        <time>2009-05-31T08:25:30Z</time>
      </trkpt>
      <trkpt lat="49.29441" lon="1.35407">
        <ele>146</ele>
        <time>2009-05-31T08:25:32Z</time>
      </trkpt>
      <trkpt lat="49.2945" lon="1.35423">
        <ele>146</ele>
        <time>2009-05-31T08:25:35Z</time>
      </trkpt>
      <trkpt lat="49.29458" lon="1.35438">
        <ele>146</ele>
        <time>2009-05-31T08:25:38Z</time>
      </trkpt>
      <trkpt lat="49.29465" lon="1.35453">
        <ele>146</ele>
        <time>2009-05-31T08:25:41Z</time>
      </trkpt>
      <trkpt lat="49.29471" lon="1.35464">
        <ele>146</ele>
        <time>2009-05-31T08:25:43Z</time>
      </trkpt>
      <trkpt lat="49.29477" lon="1.35476">
        <ele>146</ele>
        <time>2009-05-31T08:25:45Z</time>
      </trkpt>
      <trkpt lat="49.29484" lon="1.35487">
        <ele>146</ele>
        <time>2009-05-31T08:25:47Z</time>
      </trkpt>
      <trkpt lat="49.29489" lon="1.35498">
        <ele>146</ele>
        <time>2009-05-31T08:25:49Z</time>
      </trkpt>
      <trkpt lat="49.29495" lon="1.35509">
        <ele>146</ele>
        <time>2009-05-31T08:25:51Z</time>
      </trkpt>
      <trkpt lat="49.29502" lon="1.3552">
        <ele>146</ele>
        <time>2009-05-31T08:25:53Z</time>
      </trkpt>
      <trkpt lat="49.2951" lon="1.35533">
        <ele>146</ele>
        <time>2009-05-31T08:25:56Z</time>
      </trkpt>
      <trkpt lat="49.29521" lon="1.35541">
        <ele>146</ele>
        <time>2009-05-31T08:25:59Z</time>
      </trkpt>
      <trkpt lat="49.29534" lon="1.35539">
        <ele>146</ele>
        <time>2009-05-31T08:26:02Z</time>
      </trkpt>
      <trkpt lat="49.29542" lon="1.35535">
        <ele>146</ele>
        <time>2009-05-31T08:26:04Z</time>
      </trkpt>
      <trkpt lat="49.29555" lon="1.35528">
        <ele>146</ele>
        <time>2009-05-31T08:26:07Z</time>
      </trkpt>
      <trkpt lat="49.29563" lon="1.35523">
        <ele>146</ele>
        <time>2009-05-31T08:26:09Z</time>
      </trkpt>
      <trkpt lat="49.29576" lon="1.35515">
        <ele>146</ele>
        <time>2009-05-31T08:26:12Z</time>
      </trkpt>
      <trkpt lat="49.29585" lon="1.35511">
        <ele>146</ele>
        <time>2009-05-31T08:26:14Z</time>
      </trkpt>
      <trkpt lat="49.29598" lon="1.35505">
        <ele>146</ele>
        <time>2009-05-31T08:26:17Z</time>
      </trkpt>
      <trkpt lat="49.29607" lon="1.35508">
        <ele>146</ele>
        <time>2009-05-31T08:26:19Z</time>
      </trkpt>
      <trkpt lat="49.29613" lon="1.35519">
        <ele>146</ele>
        <time>2009-05-31T08:26:21Z</time>
      </trkpt>
      <trkpt lat="49.29617" lon="1.35537">
        <ele>146</ele>
        <time>2009-05-31T08:26:24Z</time>
      </trkpt>
      <trkpt lat="49.29623" lon="1.35556">
        <ele>146</ele>
        <time>2009-05-31T08:26:27Z</time>
      </trkpt>
      <trkpt lat="49.29627" lon="1.35569">
        <ele>146</ele>
        <time>2009-05-31T08:26:29Z</time>
      </trkpt>
      <trkpt lat="49.29632" lon="1.35584">
        <ele>146</ele>
        <time>2009-05-31T08:26:31Z</time>
      </trkpt>
      <trkpt lat="49.29635" lon="1.35598">
        <ele>146</ele>
        <time>2009-05-31T08:26:33Z</time>
      </trkpt>
      <trkpt lat="49.29639" lon="1.35613">
        <ele>146</ele>
        <time>2009-05-31T08:26:35Z</time>
      </trkpt>
      <trkpt lat="49.29643" lon="1.35628">
        <ele>146</ele>
        <time>2009-05-31T08:26:37Z</time>
      </trkpt>
      <trkpt lat="49.29649" lon="1.35643">
        <ele>146</ele>
        <time>2009-05-31T08:26:39Z</time>
      </trkpt>
      <trkpt lat="49.29656" lon="1.3566">
        <ele>146</ele>
        <time>2009-05-31T08:26:41Z</time>
      </trkpt>
      <trkpt lat="49.29661" lon="1.35676">
        <ele>146</ele>
        <time>2009-05-31T08:26:43Z</time>
      </trkpt>
      <trkpt lat="49.29659" lon="1.3569">
        <ele>146</ele>
        <time>2009-05-31T08:26:45Z</time>
      </trkpt>
      <trkpt lat="49.29648" lon="1.35701">
        <ele>146</ele>
        <time>2009-05-31T08:26:47Z</time>
      </trkpt>
      <trkpt lat="49.29637" lon="1.3571">
        <ele>146</ele>
        <time>2009-05-31T08:26:49Z</time>
      </trkpt>
      <trkpt lat="49.29626" lon="1.3572">
        <ele>146</ele>
        <time>2009-05-31T08:26:51Z</time>
      </trkpt>
      <trkpt lat="49.29617" lon="1.35729">
        <ele>146</ele>
        <time>2009-05-31T08:26:53Z</time>
      </trkpt>
      <trkpt lat="49.29608" lon="1.35739">
        <ele>146</ele>
        <time>2009-05-31T08:26:55Z</time>
      </trkpt>
      <trkpt lat="49.29601" lon="1.3575">
        <ele>146</ele>
        <time>2009-05-31T08:26:57Z</time>
      </trkpt>
      <trkpt lat="49.29595" lon="1.35764">
        <ele>146</ele>
        <time>2009-05-31T08:26:59Z</time>
      </trkpt>
      <trkpt lat="49.29591" lon="1.35779">
        <ele>146</ele>
        <time>2009-05-31T08:27:01Z</time>
      </trkpt>
      <trkpt lat="49.29589" lon="1.35793">
        <ele>146</ele>
        <time>2009-05-31T08:27:03Z</time>
      </trkpt>
      <trkpt lat="49.29588" lon="1.35808">
        <ele>146</ele>
        <time>2009-05-31T08:27:05Z</time>
      </trkpt>
      <trkpt lat="49.29585" lon="1.35823">
        <ele>146</ele>
        <time>2009-05-31T08:27:07Z</time>
      </trkpt>
      <trkpt lat="49.29579" lon="1.35837">
        <ele>146</ele>
        <time>2009-05-31T08:27:09Z</time>
      </trkpt>
      <trkpt lat="49.29574" lon="1.3585">
        <ele>146</ele>
        <time>2009-05-31T08:27:11Z</time>
      </trkpt>
      <trkpt lat="49.29568" lon="1.35864">
        <ele>146</ele>
        <time>2009-05-31T08:27:13Z</time>
      </trkpt>
      <trkpt lat="49.29562" lon="1.35877">
        <ele>146</ele>
        <time>2009-05-31T08:27:15Z</time>
      </trkpt>
      <trkpt lat="49.29556" lon="1.3589">
        <ele>146</ele>
        <time>2009-05-31T08:27:17Z</time>
      </trkpt>
      <trkpt lat="49.2955" lon="1.35902">
        <ele>146</ele>
        <time>2009-05-31T08:27:19Z</time>
      </trkpt>
      <trkpt lat="49.29543" lon="1.35914">
        <ele>146</ele>
        <time>2009-05-31T08:27:21Z</time>
      </trkpt>
      <trkpt lat="49.29536" lon="1.35926">
        <ele>151</ele>
        <time>2009-05-31T08:27:23Z</time>
      </trkpt>
      <trkpt lat="49.2953" lon="1.35938">
        <ele>151</ele>
        <time>2009-05-31T08:27:25Z</time>
      </trkpt>
      <trkpt lat="49.29523" lon="1.35949">
        <ele>151</ele>
        <time>2009-05-31T08:27:27Z</time>
      </trkpt>
      <trkpt lat="49.29516" lon="1.35961">
        <ele>151</ele>
        <time>2009-05-31T08:27:29Z</time>
      </trkpt>
      <trkpt lat="49.29511" lon="1.35972">
        <ele>151</ele>
        <time>2009-05-31T08:27:31Z</time>
      </trkpt>
      <trkpt lat="49.29504" lon="1.35983">
        <ele>151</ele>
        <time>2009-05-31T08:27:33Z</time>
      </trkpt>
      <trkpt lat="49.29498" lon="1.35995">
        <ele>151</ele>
        <time>2009-05-31T08:27:35Z</time>
      </trkpt>
      <trkpt lat="49.29492" lon="1.36006">
        <ele>151</ele>
        <time>2009-05-31T08:27:37Z</time>
      </trkpt>
      <trkpt lat="49.29486" lon="1.36018">
        <ele>151</ele>
        <time>2009-05-31T08:27:39Z</time>
      </trkpt>
      <trkpt lat="49.2948" lon="1.36029">
        <ele>151</ele>
        <time>2009-05-31T08:27:41Z</time>
      </trkpt>
      <trkpt lat="49.29474" lon="1.36042">
        <ele>151</ele>
        <time>2009-05-31T08:27:43Z</time>
      </trkpt>
      <trkpt lat="49.29467" lon="1.36053">
        <ele>151</ele>
        <time>2009-05-31T08:27:45Z</time>
      </trkpt>
      <trkpt lat="49.2946" lon="1.36065">
        <ele>151</ele>
        <time>2009-05-31T08:27:47Z</time>
      </trkpt>
      <trkpt lat="49.29454" lon="1.36078">
        <ele>151</ele>
        <time>2009-05-31T08:27:49Z</time>
      </trkpt>
      <trkpt lat="49.29447" lon="1.36089">
        <ele>151</ele>
        <time>2009-05-31T08:27:51Z</time>
      </trkpt>
      <trkpt lat="49.29441" lon="1.36101">
        <ele>151</ele>
        <time>2009-05-31T08:27:53Z</time>
      </trkpt>
      <trkpt lat="49.29434" lon="1.36113">
        <ele>151</ele>
        <time>2009-05-31T08:27:55Z</time>
      </trkpt>
      <trkpt lat="49.29428" lon="1.36124">
        <ele>151</ele>
        <time>2009-05-31T08:27:57Z</time>
      </trkpt>
      <trkpt lat="49.29421" lon="1.36137">
        <ele>151</ele>
        <time>2009-05-31T08:27:59Z</time>
      </trkpt>
      <trkpt lat="49.29415" lon="1.36149">
        <ele>151</ele>
        <time>2009-05-31T08:28:01Z</time>
      </trkpt>
      <trkpt lat="49.29408" lon="1.36161">
        <ele>151</ele>
        <time>2009-05-31T08:28:03Z</time>
      </trkpt>
      <trkpt lat="49.29401" lon="1.36174">
        <ele>151</ele>
        <time>2009-05-31T08:28:05Z</time>
      </trkpt>
      <trkpt lat="49.29394" lon="1.36186">
        <ele>151</ele>
        <time>2009-05-31T08:28:07Z</time>
      </trkpt>
      <trkpt lat="49.29388" lon="1.36198">
        <ele>151</ele>
        <time>2009-05-31T08:28:09Z</time>
      </trkpt>
      <trkpt lat="49.29382" lon="1.36211">
        <ele>151</ele>
        <time>2009-05-31T08:28:11Z</time>
      </trkpt>
      <trkpt lat="49.29375" lon="1.36224">
        <ele>151</ele>
        <time>2009-05-31T08:28:13Z</time>
      </trkpt>
      <trkpt lat="49.29368" lon="1.36238">
        <ele>151</ele>
        <time>2009-05-31T08:28:15Z</time>
      </trkpt>
      <trkpt lat="49.29361" lon="1.36251">
        <ele>151</ele>
        <time>2009-05-31T08:28:17Z</time>
      </trkpt>
      <trkpt lat="49.29354" lon="1.36265">
        <ele>151</ele>
        <time>2009-05-31T08:28:19Z</time>
      </trkpt>
      <trkpt lat="49.29347" lon="1.36279">
        <ele>151</ele>
        <time>2009-05-31T08:28:21Z</time>
      </trkpt>
      <trkpt lat="49.2934" lon="1.36292">
        <ele>151</ele>
        <time>2009-05-31T08:28:23Z</time>
      </trkpt>
      <trkpt lat="49.29333" lon="1.36307">
        <ele>151</ele>
        <time>2009-05-31T08:28:25Z</time>
      </trkpt>
      <trkpt lat="49.29326" lon="1.36322">
        <ele>151</ele>
        <time>2009-05-31T08:28:27Z</time>
      </trkpt>
      <trkpt lat="49.29319" lon="1.36337">
        <ele>151</ele>
        <time>2009-05-31T08:28:29Z</time>
      </trkpt>
      <trkpt lat="49.29312" lon="1.36354">
        <ele>151</ele>
        <time>2009-05-31T08:28:31Z</time>
      </trkpt>
      <trkpt lat="49.29304" lon="1.36371">
        <ele>151</ele>
        <time>2009-05-31T08:28:33Z</time>
      </trkpt>
      <trkpt lat="49.29297" lon="1.36389">
        <ele>151</ele>
        <time>2009-05-31T08:28:35Z</time>
      </trkpt>
      <trkpt lat="49.29289" lon="1.36407">
        <ele>151</ele>
        <time>2009-05-31T08:28:37Z</time>
      </trkpt>
      <trkpt lat="49.29281" lon="1.36424">
        <ele>151</ele>
        <time>2009-05-31T08:28:39Z</time>
      </trkpt>
      <trkpt lat="49.29273" lon="1.36444">
        <ele>151</ele>
        <time>2009-05-31T08:28:41Z</time>
      </trkpt>
      <trkpt lat="49.29264" lon="1.36464">
        <ele>151</ele>
        <time>2009-05-31T08:28:43Z</time>
      </trkpt>
      <trkpt lat="49.29256" lon="1.36485">
        <ele>151</ele>
        <time>2009-05-31T08:28:45Z</time>
      </trkpt>
      <trkpt lat="49.29246" lon="1.36507">
        <ele>151</ele>
        <time>2009-05-31T08:28:47Z</time>
      </trkpt>
      <trkpt lat="49.29236" lon="1.3653">
        <ele>145</ele>
        <time>2009-05-31T08:28:49Z</time>
      </trkpt>
      <trkpt lat="49.2923" lon="1.3654">
        <ele>145</ele>
        <time>2009-05-31T08:28:50Z</time>
      </trkpt>
      <trkpt lat="49.29224" lon="1.36552">
        <ele>145</ele>
        <time>2009-05-31T08:28:51Z</time>
      </trkpt>
      <trkpt lat="49.29218" lon="1.36563">
        <ele>145</ele>
        <time>2009-05-31T08:28:52Z</time>
      </trkpt>
      <trkpt lat="49.29212" lon="1.36574">
        <ele>145</ele>
        <time>2009-05-31T08:28:53Z</time>
      </trkpt>
      <trkpt lat="49.29205" lon="1.36584">
        <ele>145</ele>
        <time>2009-05-31T08:28:54Z</time>
      </trkpt>
      <trkpt lat="49.29198" lon="1.36594">
        <ele>145</ele>
        <time>2009-05-31T08:28:55Z</time>
      </trkpt>
      <trkpt lat="49.29191" lon="1.36606">
        <ele>145</ele>
        <time>2009-05-31T08:28:56Z</time>
      </trkpt>
      <trkpt lat="49.29184" lon="1.36617">
        <ele>145</ele>
        <time>2009-05-31T08:28:57Z</time>
      </trkpt>
      <trkpt lat="49.29178" lon="1.36628">
        <ele>145</ele>
        <time>2009-05-31T08:28:58Z</time>
      </trkpt>
      <trkpt lat="49.29172" lon="1.36641">
        <ele>140</ele>
        <time>2009-05-31T08:28:59Z</time>
      </trkpt>
      <trkpt lat="49.29166" lon="1.36654">
        <ele>140</ele>
        <time>2009-05-31T08:29:00Z</time>
      </trkpt>
      <trkpt lat="49.2916" lon="1.36668">
        <ele>140</ele>
        <time>2009-05-31T08:29:01Z</time>
      </trkpt>
      <trkpt lat="49.29155" lon="1.36681">
        <ele>140</ele>
        <time>2009-05-31T08:29:02Z</time>
      </trkpt>
      <trkpt lat="49.2915" lon="1.36695">
        <ele>140</ele>
        <time>2009-05-31T08:29:03Z</time>
      </trkpt>
      <trkpt lat="49.29145" lon="1.36709">
        <ele>140</ele>
        <time>2009-05-31T08:29:04Z</time>
      </trkpt>
      <trkpt lat="49.2914" lon="1.36723">
        <ele>135</ele>
        <time>2009-05-31T08:29:05Z</time>
      </trkpt>
      <trkpt lat="49.29136" lon="1.36737">
        <ele>135</ele>
        <time>2009-05-31T08:29:06Z</time>
      </trkpt>
      <trkpt lat="49.29131" lon="1.36751">
        <ele>135</ele>
        <time>2009-05-31T08:29:07Z</time>
      </trkpt>
      <trkpt lat="49.29127" lon="1.36765">
        <ele>135</ele>
        <time>2009-05-31T08:29:08Z</time>
      </trkpt>
      <trkpt lat="49.29122" lon="1.3678">
        <ele>135</ele>
        <time>2009-05-31T08:29:09Z</time>
      </trkpt>
      <trkpt lat="49.29118" lon="1.36795">
        <ele>135</ele>
        <time>2009-05-31T08:29:10Z</time>
      </trkpt>
      <trkpt lat="49.29115" lon="1.36809">
        <ele>135</ele>
        <time>2009-05-31T08:29:11Z</time>
      </trkpt>
      <trkpt lat="49.29111" lon="1.36824">
        <ele>135</ele>
        <time>2009-05-31T08:29:12Z</time>
      </trkpt>
      <trkpt lat="49.29109" lon="1.3684">
        <ele>129</ele>
        <time>2009-05-31T08:29:13Z</time>
      </trkpt>
      <trkpt lat="49.29107" lon="1.36856">
        <ele>129</ele>
        <time>2009-05-31T08:29:14Z</time>
      </trkpt>
      <trkpt lat="49.29105" lon="1.36871">
        <ele>129</ele>
        <time>2009-05-31T08:29:15Z</time>
      </trkpt>
      <trkpt lat="49.29103" lon="1.36887">
        <ele>129</ele>
        <time>2009-05-31T08:29:16Z</time>
      </trkpt>
      <trkpt lat="49.29102" lon="1.36902">
        <ele>129</ele>
        <time>2009-05-31T08:29:17Z</time>
      </trkpt>
      <trkpt lat="49.291" lon="1.36918">
        <ele>129</ele>
        <time>2009-05-31T08:29:18Z</time>
      </trkpt>
      <trkpt lat="49.29098" lon="1.36933">
        <ele>129</ele>
        <time>2009-05-31T08:29:19Z</time>
      </trkpt>
      <trkpt lat="49.29095" lon="1.36947">
        <ele>129</ele>
        <time>2009-05-31T08:29:20Z</time>
      </trkpt>
      <trkpt lat="49.29092" lon="1.36961">
        <ele>124</ele>
        <time>2009-05-31T08:29:21Z</time>
      </trkpt>
      <trkpt lat="49.29087" lon="1.36974">
        <ele>124</ele>
        <time>2009-05-31T08:29:22Z</time>
      </trkpt>
      <trkpt lat="49.29081" lon="1.36985">
        <ele>124</ele>
        <time>2009-05-31T08:29:23Z</time>
      </trkpt>
      <trkpt lat="49.29073" lon="1.36993">
        <ele>124</ele>
        <time>2009-05-31T08:29:24Z</time>
      </trkpt>
      <trkpt lat="49.29056" lon="1.36999">
        <ele>124</ele>
        <time>2009-05-31T08:29:26Z</time>
      </trkpt>
      <trkpt lat="49.2904" lon="1.36993">
        <ele>124</ele>
        <time>2009-05-31T08:29:28Z</time>
      </trkpt>
      <trkpt lat="49.29027" lon="1.36983">
        <ele>124</ele>
        <time>2009-05-31T08:29:30Z</time>
      </trkpt>
      <trkpt lat="49.29018" lon="1.3697">
        <ele>124</ele>
        <time>2009-05-31T08:29:32Z</time>
      </trkpt>
      <trkpt lat="49.29012" lon="1.36957">
        <ele>124</ele>
        <time>2009-05-31T08:29:34Z</time>
      </trkpt>
      <trkpt lat="49.29009" lon="1.36944">
        <ele>124</ele>
        <time>2009-05-31T08:29:36Z</time>
      </trkpt>
      <trkpt lat="49.29006" lon="1.36929">
        <ele>124</ele>
        <time>2009-05-31T08:29:38Z</time>
      </trkpt>
      <trkpt lat="49.29004" lon="1.36915">
        <ele>124</ele>
        <time>2009-05-31T08:29:40Z</time>
      </trkpt>
      <trkpt lat="49.29" lon="1.36902">
        <ele>124</ele>
        <time>2009-05-31T08:29:42Z</time>
      </trkpt>
      <trkpt lat="49.28995" lon="1.36889">
        <ele>124</ele>
        <time>2009-05-31T08:29:44Z</time>
      </trkpt>
      <trkpt lat="49.2899" lon="1.36877">
        <ele>124</ele>
        <time>2009-05-31T08:29:46Z</time>
      </trkpt>
      <trkpt lat="49.28979" lon="1.36865">
        <ele>130</ele>
        <time>2009-05-31T08:29:49Z</time>
      </trkpt>
      <trkpt lat="49.28968" lon="1.36858">
        <ele>130</ele>
        <time>2009-05-31T08:29:52Z</time>
      </trkpt>
      <trkpt lat="49.28957" lon="1.36859">
        <ele>130</ele>
        <time>2009-05-31T08:29:55Z</time>
      </trkpt>
      <trkpt lat="49.28945" lon="1.36866">
        <ele>130</ele>
        <time>2009-05-31T08:29:58Z</time>
      </trkpt>
      <trkpt lat="49.28934" lon="1.36877">
        <ele>135</ele>
        <time>2009-05-31T08:30:01Z</time>
      </trkpt>
      <trkpt lat="49.28925" lon="1.36888">
        <ele>135</ele>
        <time>2009-05-31T08:30:04Z</time>
      </trkpt>
      <trkpt lat="49.28915" lon="1.369">
        <ele>135</ele>
        <time>2009-05-31T08:30:07Z</time>
      </trkpt>
      <trkpt lat="49.28905" lon="1.36912">
        <ele>135</ele>
        <time>2009-05-31T08:30:10Z</time>
      </trkpt>
      <trkpt lat="49.28895" lon="1.36925">
        <ele>135</ele>
        <time>2009-05-31T08:30:13Z</time>
      </trkpt>
      <trkpt lat="49.28885" lon="1.36937">
        <ele>135</ele>
        <time>2009-05-31T08:30:16Z</time>
      </trkpt>
      <trkpt lat="49.28875" lon="1.36949">
        <ele>135</ele>
        <time>2009-05-31T08:30:19Z</time>
      </trkpt>
      <trkpt lat="49.28864" lon="1.36961">
        <ele>135</ele>
        <time>2009-05-31T08:30:22Z</time>
      </trkpt>
      <trkpt lat="49.28854" lon="1.36972">
        <ele>135</ele>
        <time>2009-05-31T08:30:25Z</time>
      </trkpt>
      <trkpt lat="49.28843" lon="1.36984">
        <ele>140</ele>
        <time>2009-05-31T08:30:28Z</time>
      </trkpt>
      <trkpt lat="49.28835" lon="1.36993">
        <ele>140</ele>
        <time>2009-05-31T08:30:30Z</time>
      </trkpt>
      <trkpt lat="49.28825" lon="1.37005">
        <ele>140</ele>
        <time>2009-05-31T08:30:33Z</time>
      </trkpt>
      <trkpt lat="49.28815" lon="1.37017">
        <ele>140</ele>
        <time>2009-05-31T08:30:36Z</time>
      </trkpt>
      <trkpt lat="49.28807" lon="1.37034">
        <ele>140</ele>
        <time>2009-05-31T08:30:39Z</time>
      </trkpt>
      <trkpt lat="49.28803" lon="1.37052">
        <ele>146</ele>
        <time>2009-05-31T08:30:42Z</time>
      </trkpt>
      <trkpt lat="49.28797" lon="1.37064">
        <ele>146</ele>
        <time>2009-05-31T08:30:44Z</time>
      </trkpt>
      <trkpt lat="49.28791" lon="1.37079">
        <ele>146</ele>
        <time>2009-05-31T08:30:47Z</time>
      </trkpt>
      <trkpt lat="49.28785" lon="1.37096">
        <ele>146</ele>
        <time>2009-05-31T08:30:50Z</time>
      </trkpt>
      <trkpt lat="49.28777" lon="1.37111">
        <ele>146</ele>
        <time>2009-05-31T08:30:53Z</time>
      </trkpt>
      <trkpt lat="49.28765" lon="1.37119">
        <ele>146</ele>
        <time>2009-05-31T08:30:56Z</time>
      </trkpt>
      <trkpt lat="49.28756" lon="1.37122">
        <ele>146</ele>
        <time>2009-05-31T08:30:58Z</time>
      </trkpt>
      <trkpt lat="49.28743" lon="1.37125">
        <ele>146</ele>
        <time>2009-05-31T08:31:01Z</time>
      </trkpt>
      <trkpt lat="49.2873" lon="1.37129">
        <ele>146</ele>
        <time>2009-05-31T08:31:04Z</time>
      </trkpt>
      <trkpt lat="49.28717" lon="1.37131">
        <ele>146</ele>
        <time>2009-05-31T08:31:07Z</time>
      </trkpt>
      <trkpt lat="49.28703" lon="1.37133">
        <ele>146</ele>
        <time>2009-05-31T08:31:10Z</time>
      </trkpt>
      <trkpt lat="49.2869" lon="1.37137">
        <ele>146</ele>
        <time>2009-05-31T08:31:13Z</time>
      </trkpt>
      <trkpt lat="49.28677" lon="1.37141">
        <ele>146</ele>
        <time>2009-05-31T08:31:16Z</time>
      </trkpt>
      <trkpt lat="49.28664" lon="1.37144">
        <ele>146</ele>
        <time>2009-05-31T08:31:19Z</time>
      </trkpt>
      <trkpt lat="49.28652" lon="1.37147">
        <ele>146</ele>
        <time>2009-05-31T08:31:22Z</time>
      </trkpt>
      <trkpt lat="49.28639" lon="1.37151">
        <ele>146</ele>
        <time>2009-05-31T08:31:25Z</time>
      </trkpt>
      <trkpt lat="49.28626" lon="1.37156">
        <ele>146</ele>
        <time>2009-05-31T08:31:28Z</time>
      </trkpt>
      <trkpt lat="49.28616" lon="1.37159">
        <ele>146</ele>
        <time>2009-05-31T08:31:30Z</time>
      </trkpt>
      <trkpt lat="49.28607" lon="1.37163">
        <ele>146</ele>
        <time>2009-05-31T08:31:32Z</time>
      </trkpt>
      <trkpt lat="49.28598" lon="1.37168">
        <ele>146</ele>
        <time>2009-05-31T08:31:34Z</time>
      </trkpt>
      <trkpt lat="49.28588" lon="1.37174">
        <ele>146</ele>
        <time>2009-05-31T08:31:36Z</time>
      </trkpt>
      <trkpt lat="49.28578" lon="1.3718">
        <ele>146</ele>
        <time>2009-05-31T08:31:38Z</time>
      </trkpt>
      <trkpt lat="49.28568" lon="1.37186">
        <ele>146</ele>
        <time>2009-05-31T08:31:40Z</time>
      </trkpt>
      <trkpt lat="49.28558" lon="1.37194">
        <ele>146</ele>
        <time>2009-05-31T08:31:42Z</time>
      </trkpt>
      <trkpt lat="49.28548" lon="1.37203">
        <ele>146</ele>
        <time>2009-05-31T08:31:44Z</time>
      </trkpt>
      <trkpt lat="49.28537" lon="1.37214">
        <ele>146</ele>
        <time>2009-05-31T08:31:46Z</time>
      </trkpt>
      <trkpt lat="49.28527" lon="1.37225">
        <ele>146</ele>
        <time>2009-05-31T08:31:48Z</time>
      </trkpt>
      <trkpt lat="49.28516" lon="1.37235">
        <ele>146</ele>
        <time>2009-05-31T08:31:50Z</time>
      </trkpt>
      <trkpt lat="49.28505" lon="1.37244">
        <ele>146</ele>
        <time>2009-05-31T08:31:52Z</time>
      </trkpt>
      <trkpt lat="49.28495" lon="1.37253">
        <ele>146</ele>
        <time>2009-05-31T08:31:54Z</time>
      </trkpt>
      <trkpt lat="49.28485" lon="1.37263">
        <ele>146</ele>
        <time>2009-05-31T08:31:56Z</time>
      </trkpt>
      <trkpt lat="49.28475" lon="1.37273">
        <ele>146</ele>
        <time>2009-05-31T08:31:58Z</time>
      </trkpt>
      <trkpt lat="49.28465" lon="1.37284">
        <ele>146</ele>
        <time>2009-05-31T08:32:00Z</time>
      </trkpt>
      <trkpt lat="49.28455" lon="1.37297">
        <ele>146</ele>
        <time>2009-05-31T08:32:02Z</time>
      </trkpt>
      <trkpt lat="49.28445" lon="1.3731">
        <ele>146</ele>
        <time>2009-05-31T08:32:04Z</time>
      </trkpt>
      <trkpt lat="49.28435" lon="1.37324">
        <ele>146</ele>
        <time>2009-05-31T08:32:06Z</time>
      </trkpt>
      <trkpt lat="49.28426" lon="1.37337">
        <ele>146</ele>
        <time>2009-05-31T08:32:08Z</time>
      </trkpt>
      <trkpt lat="49.28417" lon="1.37352">
        <ele>146</ele>
        <time>2009-05-31T08:32:10Z</time>
      </trkpt>
      <trkpt lat="49.28408" lon="1.37366">
        <ele>146</ele>
        <time>2009-05-31T08:32:12Z</time>
      </trkpt>
      <trkpt lat="49.28399" lon="1.37381">
        <ele>146</ele>
        <time>2009-05-31T08:32:14Z</time>
      </trkpt>
      <trkpt lat="49.28391" lon="1.37396">
        <ele>146</ele>
        <time>2009-05-31T08:32:16Z</time>
      </trkpt>
      <trkpt lat="49.28382" lon="1.37412">
        <ele>146</ele>
        <time>2009-05-31T08:32:18Z</time>
      </trkpt>
      <trkpt lat="49.28371" lon="1.37428">
        <ele>146</ele>
        <time>2009-05-31T08:32:20Z</time>
      </trkpt>
      <trkpt lat="49.28361" lon="1.37445">
        <ele>146</ele>
        <time>2009-05-31T08:32:22Z</time>
      </trkpt>
      <trkpt lat="49.2835" lon="1.37462">
        <ele>146</ele>
        <time>2009-05-31T08:32:24Z</time>
      </trkpt>
      <trkpt lat="49.28338" lon="1.37478">
        <ele>146</ele>
        <time>2009-05-31T08:32:26Z</time>
      </trkpt>
      <trkpt lat="49.28325" lon="1.37492">
        <ele>146</ele>
        <time>2009-05-31T08:32:28Z</time>
      </trkpt>
      <trkpt lat="49.28311" lon="1.37505">
        <ele>140</ele>
        <time>2009-05-31T08:32:30Z</time>
      </trkpt>
      <trkpt lat="49.28298" lon="1.37519">
        <ele>140</ele>
        <time>2009-05-31T08:32:32Z</time>
      </trkpt>
      <trkpt lat="49.28284" lon="1.37533">
        <ele>140</ele>
        <time>2009-05-31T08:32:34Z</time>
      </trkpt>
      <trkpt lat="49.2827" lon="1.37547">
        <ele>140</ele>
        <time>2009-05-31T08:32:36Z</time>
      </trkpt>
      <trkpt lat="49.28257" lon="1.37562">
        <ele>140</ele>
        <time>2009-05-31T08:32:38Z</time>
      </trkpt>
      <trkpt lat="49.28244" lon="1.37577">
        <ele>140</ele>
        <time>2009-05-31T08:32:40Z</time>
      </trkpt>
      <trkpt lat="49.28233" lon="1.37592">
        <ele>140</ele>
        <time>2009-05-31T08:32:42Z</time>
      </trkpt>
      <trkpt lat="49.28221" lon="1.37607">
        <ele>140</ele>
        <time>2009-05-31T08:32:44Z</time>
      </trkpt>
      <trkpt lat="49.2821" lon="1.3762">
        <ele>140</ele>
        <time>2009-05-31T08:32:46Z</time>
      </trkpt>
      <trkpt lat="49.282" lon="1.37633">
        <ele>140</ele>
        <time>2009-05-31T08:32:48Z</time>
      </trkpt>
      <trkpt lat="49.2819" lon="1.37644">
        <ele>140</ele>
        <time>2009-05-31T08:32:50Z</time>
      </trkpt>
      <trkpt lat="49.28181" lon="1.37655">
        <ele>140</ele>
        <time>2009-05-31T08:32:52Z</time>
      </trkpt>
      <trkpt lat="49.28172" lon="1.37665">
        <ele>140</ele>
        <time>2009-05-31T08:32:54Z</time>
      </trkpt>
      <trkpt lat="49.28163" lon="1.37676">
        <ele>140</ele>
        <time>2009-05-31T08:32:56Z</time>
      </trkpt>
      <trkpt lat="49.28154" lon="1.37686">
        <ele>140</ele>
        <time>2009-05-31T08:32:58Z</time>
      </trkpt>
      <trkpt lat="49.28146" lon="1.37695">
        <ele>140</ele>
        <time>2009-05-31T08:33:00Z</time>
      </trkpt>
      <trkpt lat="49.28139" lon="1.37704">
        <ele>140</ele>
        <time>2009-05-31T08:33:02Z</time>
      </trkpt>
      <trkpt lat="49.28131" lon="1.37712">
        <ele>140</ele>
        <time>2009-05-31T08:33:04Z</time>
      </trkpt>
      <trkpt lat="49.2812" lon="1.37724">
        <ele>140</ele>
        <time>2009-05-31T08:33:07Z</time>
      </trkpt>
      <trkpt lat="49.2811" lon="1.37736">
        <ele>140</ele>
        <time>2009-05-31T08:33:10Z</time>
      </trkpt>
      <trkpt lat="49.28099" lon="1.37748">
        <ele>140</ele>
        <time>2009-05-31T08:33:13Z</time>
      </trkpt>
      <trkpt lat="49.28089" lon="1.37758">
        <ele>140</ele>
        <time>2009-05-31T08:33:16Z</time>
      </trkpt>
      <trkpt lat="49.28078" lon="1.37767">
        <ele>140</ele>
        <time>2009-05-31T08:33:19Z</time>
      </trkpt>
      <trkpt lat="49.28067" lon="1.37776">
        <ele>140</ele>
        <time>2009-05-31T08:33:22Z</time>
      </trkpt>
      <trkpt lat="49.28056" lon="1.37787">
        <ele>140</ele>
        <time>2009-05-31T08:33:25Z</time>
      </trkpt>
      <trkpt lat="49.28046" lon="1.37798">
        <ele>140</ele>
        <time>2009-05-31T08:33:28Z</time>
      </trkpt>
      <trkpt lat="49.28043" lon="1.37813">
        <ele>140</ele>
        <time>2009-05-31T08:33:31Z</time>
      </trkpt>
      <trkpt lat="49.28047" lon="1.37826">
        <ele>140</ele>
        <time>2009-05-31T08:33:34Z</time>
      </trkpt>
      <trkpt lat="49.28055" lon="1.37838">
        <ele>140</ele>
        <time>2009-05-31T08:33:37Z</time>
      </trkpt>
      <trkpt lat="49.28063" lon="1.37854">
        <ele>140</ele>
        <time>2009-05-31T08:33:40Z</time>
      </trkpt>
      <trkpt lat="49.28071" lon="1.3787">
        <ele>140</ele>
        <time>2009-05-31T08:33:43Z</time>
      </trkpt>
      <trkpt lat="49.28079" lon="1.37885">
        <ele>140</ele>
        <time>2009-05-31T08:33:46Z</time>
      </trkpt>
      <trkpt lat="49.28086" lon="1.379">
        <ele>140</ele>
        <time>2009-05-31T08:33:49Z</time>
      </trkpt>
      <trkpt lat="49.28094" lon="1.37916">
        <ele>140</ele>
        <time>2009-05-31T08:33:52Z</time>
      </trkpt>
      <trkpt lat="49.28101" lon="1.3793">
        <ele>140</ele>
        <time>2009-05-31T08:33:55Z</time>
      </trkpt>
      <trkpt lat="49.28108" lon="1.37944">
        <ele>140</ele>
        <time>2009-05-31T08:33:58Z</time>
      </trkpt>
      <trkpt lat="49.28115" lon="1.37959">
        <ele>140</ele>
        <time>2009-05-31T08:34:01Z</time>
      </trkpt>
      <trkpt lat="49.28122" lon="1.37974">
        <ele>140</ele>
        <time>2009-05-31T08:34:04Z</time>
      </trkpt>
      <trkpt lat="49.28129" lon="1.37988">
        <ele>140</ele>
        <time>2009-05-31T08:34:07Z</time>
      </trkpt>
      <trkpt lat="49.28136" lon="1.38">
        <ele>140</ele>
        <time>2009-05-31T08:34:10Z</time>
      </trkpt>
      <trkpt lat="49.28142" lon="1.38014">
        <ele>140</ele>
        <time>2009-05-31T08:34:13Z</time>
      </trkpt>
      <trkpt lat="49.2815" lon="1.38028">
        <ele>140</ele>
        <time>2009-05-31T08:34:16Z</time>
      </trkpt>
      <trkpt lat="49.28157" lon="1.38043">
        <ele>140</ele>
        <time>2009-05-31T08:34:19Z</time>
      </trkpt>
      <trkpt lat="49.28164" lon="1.38059">
        <ele>140</ele>
        <time>2009-05-31T08:34:22Z</time>
      </trkpt>
      <trkpt lat="49.28171" lon="1.38074">
        <ele>140</ele>
        <time>2009-05-31T08:34:25Z</time>
      </trkpt>
      <trkpt lat="49.28179" lon="1.38089">
        <ele>140</ele>
        <time>2009-05-31T08:34:28Z</time>
      </trkpt>
      <trkpt lat="49.28186" lon="1.38104">
        <ele>140</ele>
        <time>2009-05-31T08:34:31Z</time>
      </trkpt>
      <trkpt lat="49.28193" lon="1.3812">
        <ele>140</ele>
        <time>2009-05-31T08:34:34Z</time>
      </trkpt>
      <trkpt lat="49.282" lon="1.38134">
        <ele>140</ele>
        <time>2009-05-31T08:34:37Z</time>
      </trkpt>
      <trkpt lat="49.28207" lon="1.38148">
        <ele>140</ele>
        <time>2009-05-31T08:34:40Z</time>
      </trkpt>
      <trkpt lat="49.28214" lon="1.38164">
        <ele>140</ele>
        <time>2009-05-31T08:34:43Z</time>
      </trkpt>
      <trkpt lat="49.28222" lon="1.3818">
        <ele>140</ele>
        <time>2009-05-31T08:34:46Z</time>
      </trkpt>
      <trkpt lat="49.2823" lon="1.38194">
        <ele>140</ele>
        <time>2009-05-31T08:34:49Z</time>
      </trkpt>
      <trkpt lat="49.28236" lon="1.38209">
        <ele>140</ele>
        <time>2009-05-31T08:34:52Z</time>
      </trkpt>
      <trkpt lat="49.28243" lon="1.38225">
        <ele>146</ele>
        <time>2009-05-31T08:34:55Z</time>
      </trkpt>
      <trkpt lat="49.2825" lon="1.38239">
        <ele>146</ele>
        <time>2009-05-31T08:34:58Z</time>
      </trkpt>
      <trkpt lat="49.28257" lon="1.38254">
        <ele>146</ele>
        <time>2009-05-31T08:35:01Z</time>
      </trkpt>
      <trkpt lat="49.28265" lon="1.3827">
        <ele>146</ele>
        <time>2009-05-31T08:35:04Z</time>
      </trkpt>
      <trkpt lat="49.28273" lon="1.38286">
        <ele>146</ele>
        <time>2009-05-31T08:35:07Z</time>
      </trkpt>
      <trkpt lat="49.2828" lon="1.38301">
        <ele>146</ele>
        <time>2009-05-31T08:35:10Z</time>
      </trkpt>
      <trkpt lat="49.28288" lon="1.38317">
        <ele>146</ele>
        <time>2009-05-31T08:35:13Z</time>
      </trkpt>
      <trkpt lat="49.28295" lon="1.38333">
        <ele>146</ele>
        <time>2009-05-31T08:35:16Z</time>
      </trkpt>
      <trkpt lat="49.28303" lon="1.3835">
        <ele>146</ele>
        <time>2009-05-31T08:35:19Z</time>
      </trkpt>
      <trkpt lat="49.2831" lon="1.38367">
        <ele>146</ele>
        <time>2009-05-31T08:35:22Z</time>
      </trkpt>
      <trkpt lat="49.28317" lon="1.38383">
        <ele>146</ele>
        <time>2009-05-31T08:35:25Z</time>
      </trkpt>
      <trkpt lat="49.28324" lon="1.38398">
        <ele>146</ele>
        <time>2009-05-31T08:35:28Z</time>
      </trkpt>
      <trkpt lat="49.28331" lon="1.38413">
        <ele>146</ele>
        <time>2009-05-31T08:35:31Z</time>
      </trkpt>
      <trkpt lat="49.2834" lon="1.3843">
        <ele>146</ele>
        <time>2009-05-31T08:35:34Z</time>
      </trkpt>
      <trkpt lat="49.28347" lon="1.38445">
        <ele>146</ele>
        <time>2009-05-31T08:35:37Z</time>
      </trkpt>
      <trkpt lat="49.28355" lon="1.38461">
        <ele>146</ele>
        <time>2009-05-31T08:35:40Z</time>
      </trkpt>
      <trkpt lat="49.28362" lon="1.38476">
        <ele>146</ele>
        <time>2009-05-31T08:35:43Z</time>
      </trkpt>
      <trkpt lat="49.2837" lon="1.38492">
        <ele>146</ele>
        <time>2009-05-31T08:35:46Z</time>
      </trkpt>
      <trkpt lat="49.28377" lon="1.38507">
        <ele>146</ele>
        <time>2009-05-31T08:35:49Z</time>
      </trkpt>
      <trkpt lat="49.28384" lon="1.38522">
        <ele>146</ele>
        <time>2009-05-31T08:35:52Z</time>
      </trkpt>
      <trkpt lat="49.28391" lon="1.38537">
        <ele>146</ele>
        <time>2009-05-31T08:35:55Z</time>
      </trkpt>
      <trkpt lat="49.28397" lon="1.38551">
        <ele>146</ele>
        <time>2009-05-31T08:35:58Z</time>
      </trkpt>
      <trkpt lat="49.28405" lon="1.38565">
        <ele>146</ele>
        <time>2009-05-31T08:36:01Z</time>
      </trkpt>
      <trkpt lat="49.28411" lon="1.3858">
        <ele>146</ele>
        <time>2009-05-31T08:36:04Z</time>
      </trkpt>
      <trkpt lat="49.28418" lon="1.38593">
        <ele>146</ele>
        <time>2009-05-31T08:36:07Z</time>
      </trkpt>
      <trkpt lat="49.28422" lon="1.38608">
        <ele>146</ele>
        <time>2009-05-31T08:36:10Z</time>
      </trkpt>
      <trkpt lat="49.28428" lon="1.38623">
        <ele>146</ele>
        <time>2009-05-31T08:36:13Z</time>
      </trkpt>
      <trkpt lat="49.28435" lon="1.38635">
        <ele>146</ele>
        <time>2009-05-31T08:36:16Z</time>
      </trkpt>
      <trkpt lat="49.28441" lon="1.38648">
        <ele>146</ele>
        <time>2009-05-31T08:36:19Z</time>
      </trkpt>
      <trkpt lat="49.28446" lon="1.38661">
        <ele>146</ele>
        <time>2009-05-31T08:36:22Z</time>
      </trkpt>
      <trkpt lat="49.28453" lon="1.38675">
        <ele>146</ele>
        <time>2009-05-31T08:36:25Z</time>
      </trkpt>
      <trkpt lat="49.28459" lon="1.38688">
        <ele>146</ele>
        <time>2009-05-31T08:36:28Z</time>
      </trkpt>
      <trkpt lat="49.28466" lon="1.38703">
        <ele>146</ele>
        <time>2009-05-31T08:36:31Z</time>
      </trkpt>
      <trkpt lat="49.28474" lon="1.38717">
        <ele>141</ele>
        <time>2009-05-31T08:36:34Z</time>
      </trkpt>
      <trkpt lat="49.28481" lon="1.38731">
        <ele>141</ele>
        <time>2009-05-31T08:36:37Z</time>
      </trkpt>
      <trkpt lat="49.28488" lon="1.38747">
        <ele>141</ele>
        <time>2009-05-31T08:36:40Z</time>
      </trkpt>
      <trkpt lat="49.28495" lon="1.38761">
        <ele>141</ele>
        <time>2009-05-31T08:36:43Z</time>
      </trkpt>
      <trkpt lat="49.28503" lon="1.38776">
        <ele>141</ele>
        <time>2009-05-31T08:36:46Z</time>
      </trkpt>
      <trkpt lat="49.28511" lon="1.38792">
        <ele>141</ele>
        <time>2009-05-31T08:36:49Z</time>
      </trkpt>
      <trkpt lat="49.28518" lon="1.38808">
        <ele>141</ele>
        <time>2009-05-31T08:36:52Z</time>
      </trkpt>
      <trkpt lat="49.28526" lon="1.38823">
        <ele>141</ele>
        <time>2009-05-31T08:36:55Z</time>
      </trkpt>
      <trkpt lat="49.28534" lon="1.3884">
        <ele>136</ele>
        <time>2009-05-31T08:36:58Z</time>
      </trkpt>
      <trkpt lat="49.2854" lon="1.38853">
        <ele>136</ele>
        <time>2009-05-31T08:37:00Z</time>
      </trkpt>
      <trkpt lat="49.28545" lon="1.38865">
        <ele>136</ele>
        <time>2009-05-31T08:37:02Z</time>
      </trkpt>
      <trkpt lat="49.28552" lon="1.3888">
        <ele>136</ele>
        <time>2009-05-31T08:37:05Z</time>
      </trkpt>
      <trkpt lat="49.28559" lon="1.38895">
        <ele>136</ele>
        <time>2009-05-31T08:37:08Z</time>
      </trkpt>
      <trkpt lat="49.28565" lon="1.38908">
        <ele>136</ele>
        <time>2009-05-31T08:37:11Z</time>
      </trkpt>
      <trkpt lat="49.2857" lon="1.3892">
        <ele>136</ele>
        <time>2009-05-31T08:37:14Z</time>
      </trkpt>
      <trkpt lat="49.28576" lon="1.38932">
        <ele>136</ele>
        <time>2009-05-31T08:37:17Z</time>
      </trkpt>
      <trkpt lat="49.28582" lon="1.38948">
        <ele>136</ele>
        <time>2009-05-31T08:37:21Z</time>
      </trkpt>
      <trkpt lat="49.28588" lon="1.3896">
        <ele>136</ele>
        <time>2009-05-31T08:37:24Z</time>
      </trkpt>
      <trkpt lat="49.28593" lon="1.38971">
        <ele>136</ele>
        <time>2009-05-31T08:37:27Z</time>
      </trkpt>
      <trkpt lat="49.286" lon="1.38986">
        <ele>136</ele>
        <time>2009-05-31T08:37:31Z</time>
      </trkpt>
      <trkpt lat="49.28609" lon="1.38993">
        <ele>136</ele>
        <time>2009-05-31T08:37:36Z</time>
      </trkpt>
      <trkpt lat="49.28617" lon="1.38988">
        <ele>136</ele>
        <time>2009-05-31T08:40:05Z</time>
      </trkpt>
      <trkpt lat="49.28627" lon="1.38978">
        <ele>136</ele>
        <time>2009-05-31T08:40:09Z</time>
      </trkpt>
      <trkpt lat="49.28637" lon="1.38968">
        <ele>136</ele>
        <time>2009-05-31T08:40:13Z</time>
      </trkpt>
      <trkpt lat="49.28647" lon="1.38957">
        <ele>136</ele>
        <time>2009-05-31T08:40:17Z</time>
      </trkpt>
      <trkpt lat="49.28657" lon="1.38946">
        <ele>136</ele>
        <time>2009-05-31T08:40:21Z</time>
      </trkpt>
      <trkpt lat="49.28664" lon="1.38938">
        <ele>136</ele>
        <time>2009-05-31T08:40:24Z</time>
      </trkpt>
      <trkpt lat="49.28672" lon="1.3893">
        <ele>136</ele>
        <time>2009-05-31T08:40:27Z</time>
      </trkpt>
      <trkpt lat="49.28682" lon="1.38919">
        <ele>136</ele>
        <time>2009-05-31T08:40:31Z</time>
      </trkpt>
      <trkpt lat="49.28689" lon="1.38911">
        <ele>141</ele>
        <time>2009-05-31T08:40:34Z</time>
      </trkpt>
      <trkpt lat="49.28697" lon="1.38902">
        <ele>141</ele>
        <time>2009-05-31T08:40:37Z</time>
      </trkpt>
      <trkpt lat="49.28706" lon="1.38893">
        <ele>141</ele>
        <time>2009-05-31T08:40:40Z</time>
      </trkpt>
      <trkpt lat="49.28714" lon="1.38885">
        <ele>141</ele>
        <time>2009-05-31T08:40:43Z</time>
      </trkpt>
      <trkpt lat="49.28722" lon="1.38877">
        <ele>141</ele>
        <time>2009-05-31T08:40:46Z</time>
      </trkpt>
      <trkpt lat="49.2873" lon="1.38868">
        <ele>141</ele>
        <time>2009-05-31T08:40:49Z</time>
      </trkpt>
      <trkpt lat="49.28739" lon="1.3886">
        <ele>141</ele>
        <time>2009-05-31T08:40:52Z</time>
      </trkpt>
      <trkpt lat="49.28747" lon="1.38852">
        <ele>141</ele>
        <time>2009-05-31T08:40:55Z</time>
      </trkpt>
      <trkpt lat="49.28756" lon="1.38843">
        <ele>141</ele>
        <time>2009-05-31T08:40:58Z</time>
      </trkpt>
      <trkpt lat="49.28764" lon="1.38836">
        <ele>141</ele>
        <time>2009-05-31T08:41:01Z</time>
      </trkpt>
      <trkpt lat="49.28773" lon="1.38828">
        <ele>141</ele>
        <time>2009-05-31T08:41:04Z</time>
      </trkpt>
      <trkpt lat="49.28781" lon="1.38819">
        <ele>141</ele>
        <time>2009-05-31T08:41:07Z</time>
      </trkpt>
      <trkpt lat="49.2879" lon="1.3881">
        <ele>141</ele>
        <time>2009-05-31T08:41:10Z</time>
      </trkpt>
      <trkpt lat="49.28797" lon="1.38801">
        <ele>141</ele>
        <time>2009-05-31T08:41:13Z</time>
      </trkpt>
      <trkpt lat="49.28806" lon="1.38794">
        <ele>141</ele>
        <time>2009-05-31T08:41:16Z</time>
      </trkpt>
      <trkpt lat="49.28813" lon="1.38785">
        <ele>141</ele>
        <time>2009-05-31T08:41:19Z</time>
      </trkpt>
      <trkpt lat="49.28824" lon="1.38775">
        <ele>147</ele>
        <time>2009-05-31T08:41:23Z</time>
      </trkpt>
      <trkpt lat="49.28832" lon="1.38767">
        <ele>147</ele>
        <time>2009-05-31T08:41:26Z</time>
      </trkpt>
      <trkpt lat="49.2884" lon="1.38758">
        <ele>147</ele>
        <time>2009-05-31T08:41:29Z</time>
      </trkpt>
      <trkpt lat="49.2885" lon="1.38748">
        <ele>147</ele>
        <time>2009-05-31T08:41:33Z</time>
      </trkpt>
      <trkpt lat="49.28858" lon="1.38741">
        <ele>147</ele>
        <time>2009-05-31T08:41:36Z</time>
      </trkpt>
      <trkpt lat="49.28865" lon="1.38732">
        <ele>147</ele>
        <time>2009-05-31T08:41:39Z</time>
      </trkpt>
      <trkpt lat="49.28874" lon="1.38723">
        <ele>147</ele>
        <time>2009-05-31T08:41:42Z</time>
      </trkpt>
      <trkpt lat="49.28884" lon="1.38713">
        <ele>147</ele>
        <time>2009-05-31T08:41:45Z</time>
      </trkpt>
      <trkpt lat="49.28894" lon="1.38703">
        <ele>147</ele>
        <time>2009-05-31T08:41:48Z</time>
      </trkpt>
      <trkpt lat="49.28903" lon="1.38694">
        <ele>147</ele>
        <time>2009-05-31T08:41:51Z</time>
      </trkpt>
      <trkpt lat="49.28912" lon="1.38684">
        <ele>147</ele>
        <time>2009-05-31T08:41:54Z</time>
      </trkpt>
      <trkpt lat="49.28921" lon="1.38674">
        <ele>147</ele>
        <time>2009-05-31T08:41:57Z</time>
      </trkpt>
      <trkpt lat="49.28931" lon="1.38665">
        <ele>147</ele>
        <time>2009-05-31T08:42:00Z</time>
      </trkpt>
      <trkpt lat="49.2894" lon="1.38655">
        <ele>147</ele>
        <time>2009-05-31T08:42:03Z</time>
      </trkpt>
      <trkpt lat="49.28949" lon="1.38645">
        <ele>147</ele>
        <time>2009-05-31T08:42:06Z</time>
      </trkpt>
      <trkpt lat="49.28957" lon="1.38636">
        <ele>147</ele>
        <time>2009-05-31T08:42:09Z</time>
      </trkpt>
      <trkpt lat="49.28965" lon="1.38627">
        <ele>152</ele>
        <time>2009-05-31T08:42:13Z</time>
      </trkpt>
      <trkpt lat="49.28971" lon="1.38642">
        <ele>152</ele>
        <time>2009-05-31T08:42:18Z</time>
      </trkpt>
      <trkpt lat="49.28972" lon="1.3866">
        <ele>152</ele>
        <time>2009-05-31T08:42:21Z</time>
      </trkpt>
      <trkpt lat="49.28973" lon="1.3868">
        <ele>152</ele>
        <time>2009-05-31T08:42:24Z</time>
      </trkpt>
      <trkpt lat="49.28975" lon="1.38701">
        <ele>152</ele>
        <time>2009-05-31T08:42:27Z</time>
      </trkpt>
      <trkpt lat="49.28975" lon="1.38715">
        <ele>152</ele>
        <time>2009-05-31T08:42:29Z</time>
      </trkpt>
      <trkpt lat="49.28977" lon="1.3873">
        <ele>152</ele>
        <time>2009-05-31T08:42:31Z</time>
      </trkpt>
      <trkpt lat="49.28978" lon="1.38744">
        <ele>152</ele>
        <time>2009-05-31T08:42:33Z</time>
      </trkpt>
      <trkpt lat="49.28978" lon="1.38759">
        <ele>152</ele>
        <time>2009-05-31T08:42:35Z</time>
      </trkpt>
      <trkpt lat="49.2898" lon="1.38774">
        <ele>152</ele>
        <time>2009-05-31T08:42:37Z</time>
      </trkpt>
      <trkpt lat="49.28981" lon="1.38789">
        <ele>152</ele>
        <time>2009-05-31T08:42:39Z</time>
      </trkpt>
      <trkpt lat="49.28983" lon="1.38804">
        <ele>152</ele>
        <time>2009-05-31T08:42:41Z</time>
      </trkpt>
      <trkpt lat="49.28985" lon="1.38825">
        <ele>152</ele>
        <time>2009-05-31T08:42:44Z</time>
      </trkpt>
      <trkpt lat="49.28987" lon="1.38845">
        <ele>152</ele>
        <time>2009-05-31T08:42:47Z</time>
      </trkpt>
      <trkpt lat="49.28988" lon="1.3886">
        <ele>152</ele>
        <time>2009-05-31T08:42:49Z</time>
      </trkpt>
      <trkpt lat="49.28989" lon="1.3888">
        <ele>152</ele>
        <time>2009-05-31T08:42:52Z</time>
      </trkpt>
      <trkpt lat="49.28991" lon="1.38895">
        <ele>152</ele>
        <time>2009-05-31T08:42:54Z</time>
      </trkpt>
      <trkpt lat="49.28992" lon="1.38909">
        <ele>152</ele>
        <time>2009-05-31T08:42:56Z</time>
      </trkpt>
      <trkpt lat="49.28993" lon="1.38924">
        <ele>152</ele>
        <time>2009-05-31T08:42:58Z</time>
      </trkpt>
      <trkpt lat="49.28994" lon="1.38938">
        <ele>152</ele>
        <time>2009-05-31T08:43:00Z</time>
      </trkpt>
      <trkpt lat="49.28995" lon="1.38952">
        <ele>152</ele>
        <time>2009-05-31T08:43:02Z</time>
      </trkpt>
      <trkpt lat="49.28996" lon="1.38968">
        <ele>152</ele>
        <time>2009-05-31T08:43:04Z</time>
      </trkpt>
      <trkpt lat="49.28998" lon="1.38983">
        <ele>152</ele>
        <time>2009-05-31T08:43:06Z</time>
      </trkpt>
      <trkpt lat="49.28999" lon="1.38997">
        <ele>152</ele>
        <time>2009-05-31T08:43:08Z</time>
      </trkpt>
      <trkpt lat="49.29001" lon="1.39013">
        <ele>152</ele>
        <time>2009-05-31T08:43:10Z</time>
      </trkpt>
      <trkpt lat="49.29002" lon="1.39028">
        <ele>152</ele>
        <time>2009-05-31T08:43:12Z</time>
      </trkpt>
      <trkpt lat="49.29003" lon="1.39043">
        <ele>152</ele>
        <time>2009-05-31T08:43:14Z</time>
      </trkpt>
      <trkpt lat="49.29005" lon="1.39058">
        <ele>152</ele>
        <time>2009-05-31T08:43:16Z</time>
      </trkpt>
      <trkpt lat="49.29006" lon="1.39074">
        <ele>152</ele>
        <time>2009-05-31T08:43:18Z</time>
      </trkpt>
      <trkpt lat="49.29008" lon="1.39091">
        <ele>152</ele>
        <time>2009-05-31T08:43:20Z</time>
      </trkpt>
      <trkpt lat="49.29009" lon="1.39107">
        <ele>152</ele>
        <time>2009-05-31T08:43:22Z</time>
      </trkpt>
      <trkpt lat="49.29011" lon="1.39124">
        <ele>152</ele>
        <time>2009-05-31T08:43:24Z</time>
      </trkpt>
      <trkpt lat="49.29012" lon="1.3914">
        <ele>152</ele>
        <time>2009-05-31T08:43:26Z</time>
      </trkpt>
      <trkpt lat="49.29013" lon="1.39157">
        <ele>152</ele>
        <time>2009-05-31T08:43:28Z</time>
      </trkpt>
      <trkpt lat="49.29015" lon="1.39173">
        <ele>152</ele>
        <time>2009-05-31T08:43:30Z</time>
      </trkpt>
      <trkpt lat="49.29016" lon="1.39189">
        <ele>152</ele>
        <time>2009-05-31T08:43:32Z</time>
      </trkpt>
      <trkpt lat="49.29017" lon="1.39204">
        <ele>152</ele>
        <time>2009-05-31T08:43:34Z</time>
      </trkpt>
      <trkpt lat="49.29018" lon="1.39219">
        <ele>152</ele>
        <time>2009-05-31T08:43:36Z</time>
      </trkpt>
      <trkpt lat="49.2902" lon="1.39234">
        <ele>152</ele>
        <time>2009-05-31T08:43:38Z</time>
      </trkpt>
      <trkpt lat="49.29021" lon="1.3925">
        <ele>152</ele>
        <time>2009-05-31T08:43:40Z</time>
      </trkpt>
      <trkpt lat="49.29023" lon="1.39265">
        <ele>152</ele>
        <time>2009-05-31T08:43:42Z</time>
      </trkpt>
      <trkpt lat="49.29025" lon="1.39281">
        <ele>152</ele>
        <time>2009-05-31T08:43:44Z</time>
      </trkpt>
      <trkpt lat="49.29028" lon="1.39296">
        <ele>152</ele>
        <time>2009-05-31T08:43:46Z</time>
      </trkpt>
      <trkpt lat="49.29032" lon="1.39311">
        <ele>146</ele>
        <time>2009-05-31T08:43:48Z</time>
      </trkpt>
      <trkpt lat="49.29036" lon="1.39325">
        <ele>146</ele>
        <time>2009-05-31T08:43:50Z</time>
      </trkpt>
      <trkpt lat="49.29041" lon="1.39338">
        <ele>146</ele>
        <time>2009-05-31T08:43:52Z</time>
      </trkpt>
      <trkpt lat="49.29045" lon="1.39351">
        <ele>146</ele>
        <time>2009-05-31T08:43:54Z</time>
      </trkpt>
      <trkpt lat="49.29051" lon="1.39364">
        <ele>146</ele>
        <time>2009-05-31T08:43:56Z</time>
      </trkpt>
      <trkpt lat="49.29058" lon="1.39376">
        <ele>146</ele>
        <time>2009-05-31T08:43:58Z</time>
      </trkpt>
      <trkpt lat="49.29065" lon="1.39389">
        <ele>146</ele>
        <time>2009-05-31T08:44:00Z</time>
      </trkpt>
      <trkpt lat="49.29072" lon="1.39402">
        <ele>146</ele>
        <time>2009-05-31T08:44:02Z</time>
      </trkpt>
      <trkpt lat="49.29079" lon="1.39414">
        <ele>146</ele>
        <time>2009-05-31T08:44:04Z</time>
      </trkpt>
      <trkpt lat="49.29086" lon="1.39427">
        <ele>146</ele>
        <time>2009-05-31T08:44:06Z</time>
      </trkpt>
      <trkpt lat="49.29093" lon="1.39438">
        <ele>146</ele>
        <time>2009-05-31T08:44:08Z</time>
      </trkpt>
      <trkpt lat="49.29101" lon="1.39452">
        <ele>146</ele>
        <time>2009-05-31T08:44:10Z</time>
      </trkpt>
      <trkpt lat="49.29108" lon="1.39464">
        <ele>146</ele>
        <time>2009-05-31T08:44:12Z</time>
      </trkpt>
      <trkpt lat="49.29116" lon="1.39477">
        <ele>146</ele>
        <time>2009-05-31T08:44:14Z</time>
      </trkpt>
      <trkpt lat="49.29123" lon="1.3949">
        <ele>146</ele>
        <time>2009-05-31T08:44:16Z</time>
      </trkpt>
      <trkpt lat="49.2913" lon="1.39503">
        <ele>146</ele>
        <time>2009-05-31T08:44:18Z</time>
      </trkpt>
      <trkpt lat="49.29138" lon="1.39516">
        <ele>146</ele>
        <time>2009-05-31T08:44:20Z</time>
      </trkpt>
      <trkpt lat="49.29145" lon="1.3953">
        <ele>146</ele>
        <time>2009-05-31T08:44:22Z</time>
      </trkpt>
      <trkpt lat="49.29153" lon="1.39543">
        <ele>146</ele>
        <time>2009-05-31T08:44:24Z</time>
      </trkpt>
      <trkpt lat="49.2916" lon="1.39556">
        <ele>146</ele>
        <time>2009-05-31T08:44:26Z</time>
      </trkpt>
      <trkpt lat="49.29167" lon="1.39569">
        <ele>146</ele>
        <time>2009-05-31T08:44:28Z</time>
      </trkpt>
      <trkpt lat="49.29175" lon="1.39582">
        <ele>146</ele>
        <time>2009-05-31T08:44:30Z</time>
      </trkpt>
      <trkpt lat="49.29181" lon="1.39596">
        <ele>146</ele>
        <time>2009-05-31T08:44:32Z</time>
      </trkpt>
      <trkpt lat="49.29189" lon="1.39609">
        <ele>146</ele>
        <time>2009-05-31T08:44:34Z</time>
      </trkpt>
      <trkpt lat="49.29196" lon="1.39622">
        <ele>146</ele>
        <time>2009-05-31T08:44:36Z</time>
      </trkpt>
      <trkpt lat="49.29205" lon="1.39637">
        <ele>146</ele>
        <time>2009-05-31T08:44:38Z</time>
      </trkpt>
      <trkpt lat="49.29212" lon="1.39652">
        <ele>146</ele>
        <time>2009-05-31T08:44:40Z</time>
      </trkpt>
      <trkpt lat="49.2922" lon="1.39668">
        <ele>146</ele>
        <time>2009-05-31T08:44:42Z</time>
      </trkpt>
      <trkpt lat="49.29229" lon="1.39684">
        <ele>146</ele>
        <time>2009-05-31T08:44:44Z</time>
      </trkpt>
      <trkpt lat="49.29238" lon="1.397">
        <ele>146</ele>
        <time>2009-05-31T08:44:46Z</time>
      </trkpt>
      <trkpt lat="49.29247" lon="1.39715">
        <ele>146</ele>
        <time>2009-05-31T08:44:48Z</time>
      </trkpt>
      <trkpt lat="49.29256" lon="1.3973">
        <ele>141</ele>
        <time>2009-05-31T08:44:50Z</time>
      </trkpt>
      <trkpt lat="49.29266" lon="1.39746">
        <ele>141</ele>
        <time>2009-05-31T08:44:52Z</time>
      </trkpt>
      <trkpt lat="49.29274" lon="1.39762">
        <ele>141</ele>
        <time>2009-05-31T08:44:54Z</time>
      </trkpt>
      <trkpt lat="49.29284" lon="1.39777">
        <ele>141</ele>
        <time>2009-05-31T08:44:56Z</time>
      </trkpt>
      <trkpt lat="49.29293" lon="1.39792">
        <ele>141</ele>
        <time>2009-05-31T08:44:58Z</time>
      </trkpt>
      <trkpt lat="49.29303" lon="1.39806">
        <ele>141</ele>
        <time>2009-05-31T08:45:00Z</time>
      </trkpt>
      <trkpt lat="49.29313" lon="1.39818">
        <ele>141</ele>
        <time>2009-05-31T08:45:02Z</time>
      </trkpt>
      <trkpt lat="49.29323" lon="1.3983">
        <ele>141</ele>
        <time>2009-05-31T08:45:04Z</time>
      </trkpt>
      <trkpt lat="49.29333" lon="1.3984">
        <ele>141</ele>
        <time>2009-05-31T08:45:06Z</time>
      </trkpt>
      <trkpt lat="49.29342" lon="1.39849">
        <ele>141</ele>
        <time>2009-05-31T08:45:08Z</time>
      </trkpt>
      <trkpt lat="49.29351" lon="1.39858">
        <ele>141</ele>
        <time>2009-05-31T08:45:10Z</time>
      </trkpt>
      <trkpt lat="49.2936" lon="1.39864">
        <ele>141</ele>
        <time>2009-05-31T08:45:12Z</time>
      </trkpt>
      <trkpt lat="49.2937" lon="1.39871">
        <ele>141</ele>
        <time>2009-05-31T08:45:14Z</time>
      </trkpt>
      <trkpt lat="49.2938" lon="1.39878">
        <ele>141</ele>
        <time>2009-05-31T08:45:16Z</time>
      </trkpt>
      <trkpt lat="49.2939" lon="1.39885">
        <ele>141</ele>
        <time>2009-05-31T08:45:18Z</time>
      </trkpt>
      <trkpt lat="49.29401" lon="1.39893">
        <ele>141</ele>
        <time>2009-05-31T08:45:20Z</time>
      </trkpt>
      <trkpt lat="49.29411" lon="1.399">
        <ele>141</ele>
        <time>2009-05-31T08:45:22Z</time>
      </trkpt>
      <trkpt lat="49.29422" lon="1.39909">
        <ele>141</ele>
        <time>2009-05-31T08:45:24Z</time>
      </trkpt>
      <trkpt lat="49.29432" lon="1.39919">
        <ele>141</ele>
        <time>2009-05-31T08:45:26Z</time>
      </trkpt>
      <trkpt lat="49.29442" lon="1.39928">
        <ele>141</ele>
        <time>2009-05-31T08:45:28Z</time>
      </trkpt>
      <trkpt lat="49.29451" lon="1.39938">
        <ele>141</ele>
        <time>2009-05-31T08:45:30Z</time>
      </trkpt>
      <trkpt lat="49.2946" lon="1.39948">
        <ele>141</ele>
        <time>2009-05-31T08:45:32Z</time>
      </trkpt>
      <trkpt lat="49.29469" lon="1.39958">
        <ele>141</ele>
        <time>2009-05-31T08:45:34Z</time>
      </trkpt>
      <trkpt lat="49.29478" lon="1.39968">
        <ele>141</ele>
        <time>2009-05-31T08:45:36Z</time>
      </trkpt>
      <trkpt lat="49.29487" lon="1.39978">
        <ele>141</ele>
        <time>2009-05-31T08:45:38Z</time>
      </trkpt>
      <trkpt lat="49.29494" lon="1.39988">
        <ele>141</ele>
        <time>2009-05-31T08:45:40Z</time>
      </trkpt>
      <trkpt lat="49.29502" lon="1.39999">
        <ele>141</ele>
        <time>2009-05-31T08:45:42Z</time>
      </trkpt>
      <trkpt lat="49.29509" lon="1.40011">
        <ele>141</ele>
        <time>2009-05-31T08:45:44Z</time>
      </trkpt>
      <trkpt lat="49.29516" lon="1.40021">
        <ele>141</ele>
        <time>2009-05-31T08:45:46Z</time>
      </trkpt>
      <trkpt lat="49.29522" lon="1.40032">
        <ele>141</ele>
        <time>2009-05-31T08:45:48Z</time>
      </trkpt>
      <trkpt lat="49.29529" lon="1.40043">
        <ele>141</ele>
        <time>2009-05-31T08:45:50Z</time>
      </trkpt>
      <trkpt lat="49.29535" lon="1.40053">
        <ele>141</ele>
        <time>2009-05-31T08:45:52Z</time>
      </trkpt>
      <trkpt lat="49.29541" lon="1.40064">
        <ele>141</ele>
        <time>2009-05-31T08:45:54Z</time>
      </trkpt>
      <trkpt lat="49.29548" lon="1.40073">
        <ele>141</ele>
        <time>2009-05-31T08:45:56Z</time>
      </trkpt>
      <trkpt lat="49.29554" lon="1.40084">
        <ele>141</ele>
        <time>2009-05-31T08:45:58Z</time>
      </trkpt>
      <trkpt lat="49.29561" lon="1.40094">
        <ele>141</ele>
        <time>2009-05-31T08:46:00Z</time>
      </trkpt>
      <trkpt lat="49.29568" lon="1.40104">
        <ele>141</ele>
        <time>2009-05-31T08:46:02Z</time>
      </trkpt>
      <trkpt lat="49.29573" lon="1.40115">
        <ele>141</ele>
        <time>2009-05-31T08:46:04Z</time>
      </trkpt>
      <trkpt lat="49.2958" lon="1.40126">
        <ele>141</ele>
        <time>2009-05-31T08:46:06Z</time>
      </trkpt>
      <trkpt lat="49.29587" lon="1.40135">
        <ele>141</ele>
        <time>2009-05-31T08:46:08Z</time>
      </trkpt>
      <trkpt lat="49.29593" lon="1.40145">
        <ele>141</ele>
        <time>2009-05-31T08:46:10Z</time>
      </trkpt>
      <trkpt lat="49.296" lon="1.40155">
        <ele>141</ele>
        <time>2009-05-31T08:46:12Z</time>
      </trkpt>
      <trkpt lat="49.29606" lon="1.40166">
        <ele>141</ele>
        <time>2009-05-31T08:46:14Z</time>
      </trkpt>
      <trkpt lat="49.29613" lon="1.40176">
        <ele>141</ele>
        <time>2009-05-31T08:46:16Z</time>
      </trkpt>
      <trkpt lat="49.29621" lon="1.40188">
        <ele>141</ele>
        <time>2009-05-31T08:46:19Z</time>
      </trkpt>
      <trkpt lat="49.29629" lon="1.402">
        <ele>141</ele>
        <time>2009-05-31T08:46:22Z</time>
      </trkpt>
      <trkpt lat="49.29635" lon="1.40212">
        <ele>141</ele>
        <time>2009-05-31T08:46:26Z</time>
      </trkpt>
      <trkpt lat="49.29634" lon="1.40231">
        <ele>141</ele>
        <time>2009-05-31T08:46:31Z</time>
      </trkpt>
      <trkpt lat="49.29629" lon="1.40246">
        <ele>141</ele>
        <time>2009-05-31T08:46:34Z</time>
      </trkpt>
      <trkpt lat="49.29622" lon="1.4026">
        <ele>141</ele>
        <time>2009-05-31T08:46:37Z</time>
      </trkpt>
      <trkpt lat="49.29616" lon="1.40276">
        <ele>141</ele>
        <time>2009-05-31T08:46:40Z</time>
      </trkpt>
      <trkpt lat="49.2961" lon="1.40294">
        <ele>141</ele>
        <time>2009-05-31T08:46:43Z</time>
      </trkpt>
      <trkpt lat="49.29603" lon="1.4031">
        <ele>147</ele>
        <time>2009-05-31T08:46:46Z</time>
      </trkpt>
      <trkpt lat="49.29595" lon="1.40326">
        <ele>147</ele>
        <time>2009-05-31T08:46:49Z</time>
      </trkpt>
      <trkpt lat="49.29588" lon="1.40341">
        <ele>147</ele>
        <time>2009-05-31T08:46:52Z</time>
      </trkpt>
      <trkpt lat="49.29581" lon="1.40356">
        <ele>147</ele>
        <time>2009-05-31T08:46:55Z</time>
      </trkpt>
      <trkpt lat="49.29576" lon="1.40369">
        <ele>147</ele>
        <time>2009-05-31T08:46:58Z</time>
      </trkpt>
      <trkpt lat="49.2957" lon="1.40382">
        <ele>147</ele>
        <time>2009-05-31T08:47:01Z</time>
      </trkpt>
      <trkpt lat="49.29564" lon="1.40394">
        <ele>147</ele>
        <time>2009-05-31T08:47:04Z</time>
      </trkpt>
      <trkpt lat="49.29556" lon="1.40407">
        <ele>147</ele>
        <time>2009-05-31T08:47:07Z</time>
      </trkpt>
      <trkpt lat="49.29548" lon="1.40417">
        <ele>147</ele>
        <time>2009-05-31T08:47:10Z</time>
      </trkpt>
      <trkpt lat="49.29539" lon="1.40423">
        <ele>147</ele>
        <time>2009-05-31T08:47:13Z</time>
      </trkpt>
      <trkpt lat="49.29529" lon="1.40427">
        <ele>147</ele>
        <time>2009-05-31T08:47:16Z</time>
      </trkpt>
      <trkpt lat="49.29519" lon="1.40426">
        <ele>147</ele>
        <time>2009-05-31T08:47:20Z</time>
      </trkpt>
      <trkpt lat="49.29524" lon="1.40413">
        <ele>147</ele>
        <time>2009-05-31T08:47:25Z</time>
      </trkpt>
      <trkpt lat="49.29534" lon="1.40414">
        <ele>147</ele>
        <time>2009-05-31T08:47:29Z</time>
      </trkpt>
      <trkpt lat="49.29542" lon="1.40404">
        <ele>147</ele>
        <time>2009-05-31T08:47:34Z</time>
      </trkpt>
      <trkpt lat="49.29547" lon="1.40391">
        <ele>147</ele>
        <time>2009-05-31T08:47:40Z</time>
      </trkpt>
      <trkpt lat="49.29548" lon="1.40375">
        <ele>147</ele>
        <time>2009-05-31T08:47:46Z</time>
      </trkpt>
      <trkpt lat="49.29548" lon="1.4039">
        <ele>147</ele>
        <time>2009-05-31T08:58:23Z</time>
      </trkpt>
      <trkpt lat="49.29542" lon="1.40402">
        <ele>147</ele>
        <time>2009-05-31T08:58:31Z</time>
      </trkpt>
      <trkpt lat="49.29532" lon="1.40412">
        <ele>147</ele>
        <time>2009-05-31T08:58:37Z</time>
      </trkpt>
      <trkpt lat="49.29519" lon="1.40411">
        <ele>147</ele>
        <time>2009-05-31T08:58:40Z</time>
      </trkpt>
      <trkpt lat="49.29508" lon="1.40418">
        <ele>147</ele>
        <time>2009-05-31T08:58:43Z</time>
      </trkpt>
      <trkpt lat="49.29497" lon="1.40415">
        <ele>147</ele>
        <time>2009-05-31T08:58:46Z</time>
      </trkpt>
      <trkpt lat="49.29489" lon="1.40408">
        <ele>147</ele>
        <time>2009-05-31T08:58:48Z</time>
      </trkpt>
      <trkpt lat="49.2948" lon="1.40404">
        <ele>147</ele>
        <time>2009-05-31T08:58:50Z</time>
      </trkpt>
      <trkpt lat="49.29467" lon="1.404">
        <ele>147</ele>
        <time>2009-05-31T08:58:53Z</time>
      </trkpt>
      <trkpt lat="49.29455" lon="1.40397">
        <ele>147</ele>
        <time>2009-05-31T08:58:56Z</time>
      </trkpt>
      <trkpt lat="49.29447" lon="1.40403">
        <ele>147</ele>
        <time>2009-05-31T08:58:59Z</time>
      </trkpt>
      <trkpt lat="49.29447" lon="1.40422">
        <ele>153</ele>
        <time>2009-05-31T08:59:02Z</time>
      </trkpt>
      <trkpt lat="49.2945" lon="1.40437">
        <ele>153</ele>
        <time>2009-05-31T08:59:04Z</time>
      </trkpt>
      <trkpt lat="49.29454" lon="1.40453">
        <ele>153</ele>
        <time>2009-05-31T08:59:06Z</time>
      </trkpt>
      <trkpt lat="49.29456" lon="1.4047">
        <ele>153</ele>
        <time>2009-05-31T08:59:08Z</time>
      </trkpt>
      <trkpt lat="49.29457" lon="1.40486">
        <ele>153</ele>
        <time>2009-05-31T08:59:10Z</time>
      </trkpt>
      <trkpt lat="49.29453" lon="1.405">
        <ele>153</ele>
        <time>2009-05-31T08:59:12Z</time>
      </trkpt>
      <trkpt lat="49.29446" lon="1.40514">
        <ele>153</ele>
        <time>2009-05-31T08:59:14Z</time>
      </trkpt>
      <trkpt lat="49.29437" lon="1.40525">
        <ele>153</ele>
        <time>2009-05-31T08:59:16Z</time>
      </trkpt>
      <trkpt lat="49.29428" lon="1.40539">
        <ele>153</ele>
        <time>2009-05-31T08:59:18Z</time>
      </trkpt>
      <trkpt lat="49.29418" lon="1.40551">
        <ele>153</ele>
        <time>2009-05-31T08:59:20Z</time>
      </trkpt>
      <trkpt lat="49.29407" lon="1.40563">
        <ele>153</ele>
        <time>2009-05-31T08:59:22Z</time>
      </trkpt>
      <trkpt lat="49.29395" lon="1.40572">
        <ele>146</ele>
        <time>2009-05-31T08:59:24Z</time>
      </trkpt>
      <trkpt lat="49.29384" lon="1.40583">
        <ele>146</ele>
        <time>2009-05-31T08:59:26Z</time>
      </trkpt>
      <trkpt lat="49.29371" lon="1.40593">
        <ele>146</ele>
        <time>2009-05-31T08:59:28Z</time>
      </trkpt>
      <trkpt lat="49.29359" lon="1.40602">
        <ele>146</ele>
        <time>2009-05-31T08:59:30Z</time>
      </trkpt>
      <trkpt lat="49.29347" lon="1.40612">
        <ele>146</ele>
        <time>2009-05-31T08:59:32Z</time>
      </trkpt>
      <trkpt lat="49.29335" lon="1.40622">
        <ele>146</ele>
        <time>2009-05-31T08:59:34Z</time>
      </trkpt>
      <trkpt lat="49.29323" lon="1.40634">
        <ele>146</ele>
        <time>2009-05-31T08:59:36Z</time>
      </trkpt>
      <trkpt lat="49.29311" lon="1.40647">
        <ele>146</ele>
        <time>2009-05-31T08:59:38Z</time>
      </trkpt>
      <trkpt lat="49.293" lon="1.40659">
        <ele>146</ele>
        <time>2009-05-31T08:59:40Z</time>
      </trkpt>
      <trkpt lat="49.29289" lon="1.40672">
        <ele>146</ele>
        <time>2009-05-31T08:59:42Z</time>
      </trkpt>
      <trkpt lat="49.29278" lon="1.40683">
        <ele>146</ele>
        <time>2009-05-31T08:59:44Z</time>
      </trkpt>
      <trkpt lat="49.29266" lon="1.40695">
        <ele>146</ele>
        <time>2009-05-31T08:59:46Z</time>
      </trkpt>
      <trkpt lat="49.29256" lon="1.40708">
        <ele>146</ele>
        <time>2009-05-31T08:59:48Z</time>
      </trkpt>
      <trkpt lat="49.29246" lon="1.4072">
        <ele>146</ele>
        <time>2009-05-31T08:59:50Z</time>
      </trkpt>
      <trkpt lat="49.29237" lon="1.40733">
        <ele>146</ele>
        <time>2009-05-31T08:59:52Z</time>
      </trkpt>
      <trkpt lat="49.29227" lon="1.40744">
        <ele>146</ele>
        <time>2009-05-31T08:59:54Z</time>
      </trkpt>
      <trkpt lat="49.29216" lon="1.4075">
        <ele>146</ele>
        <time>2009-05-31T08:59:56Z</time>
      </trkpt>
      <trkpt lat="49.29206" lon="1.40754">
        <ele>146</ele>
        <time>2009-05-31T08:59:58Z</time>
      </trkpt>
      <trkpt lat="49.29196" lon="1.40758">
        <ele>146</ele>
        <time>2009-05-31T09:00:00Z</time>
      </trkpt>
      <trkpt lat="49.29187" lon="1.40762">
        <ele>146</ele>
        <time>2009-05-31T09:00:02Z</time>
      </trkpt>
      <trkpt lat="49.29175" lon="1.40765">
        <ele>146</ele>
        <time>2009-05-31T09:00:05Z</time>
      </trkpt>
      <trkpt lat="49.29164" lon="1.40768">
        <ele>146</ele>
        <time>2009-05-31T09:00:08Z</time>
      </trkpt>
      <trkpt lat="49.29153" lon="1.40769">
        <ele>146</ele>
        <time>2009-05-31T09:00:11Z</time>
      </trkpt>
      <trkpt lat="49.29141" lon="1.40771">
        <ele>146</ele>
        <time>2009-05-31T09:00:14Z</time>
      </trkpt>
      <trkpt lat="49.29129" lon="1.40775">
        <ele>146</ele>
        <time>2009-05-31T09:00:17Z</time>
      </trkpt>
      <trkpt lat="49.29118" lon="1.40779">
        <ele>146</ele>
        <time>2009-05-31T09:00:20Z</time>
      </trkpt>
      <trkpt lat="49.29108" lon="1.40783">
        <ele>146</ele>
        <time>2009-05-31T09:00:23Z</time>
      </trkpt>
      <trkpt lat="49.29097" lon="1.40785">
        <ele>146</ele>
        <time>2009-05-31T09:00:26Z</time>
      </trkpt>
      <trkpt lat="49.29086" lon="1.40789">
        <ele>146</ele>
        <time>2009-05-31T09:00:29Z</time>
      </trkpt>
      <trkpt lat="49.29075" lon="1.40792">
        <ele>146</ele>
        <time>2009-05-31T09:00:32Z</time>
      </trkpt>
      <trkpt lat="49.29063" lon="1.40797">
        <ele>146</ele>
        <time>2009-05-31T09:00:35Z</time>
      </trkpt>
      <trkpt lat="49.29051" lon="1.408">
        <ele>146</ele>
        <time>2009-05-31T09:00:38Z</time>
      </trkpt>
      <trkpt lat="49.29039" lon="1.40803">
        <ele>140</ele>
        <time>2009-05-31T09:00:41Z</time>
      </trkpt>
      <trkpt lat="49.29027" lon="1.40806">
        <ele>140</ele>
        <time>2009-05-31T09:00:44Z</time>
      </trkpt>
      <trkpt lat="49.29017" lon="1.40811">
        <ele>140</ele>
        <time>2009-05-31T09:00:47Z</time>
      </trkpt>
      <trkpt lat="49.29006" lon="1.40815">
        <ele>140</ele>
        <time>2009-05-31T09:00:50Z</time>
      </trkpt>
      <trkpt lat="49.28995" lon="1.40815">
        <ele>140</ele>
        <time>2009-05-31T09:00:53Z</time>
      </trkpt>
      <trkpt lat="49.28982" lon="1.40824">
        <ele>140</ele>
        <time>2009-05-31T09:00:56Z</time>
      </trkpt>
      <trkpt lat="49.28973" lon="1.40831">
        <ele>140</ele>
        <time>2009-05-31T09:00:58Z</time>
      </trkpt>
      <trkpt lat="49.28964" lon="1.4084">
        <ele>140</ele>
        <time>2009-05-31T09:01:00Z</time>
      </trkpt>
      <trkpt lat="49.28955" lon="1.40849">
        <ele>140</ele>
        <time>2009-05-31T09:01:02Z</time>
      </trkpt>
      <trkpt lat="49.28946" lon="1.40857">
        <ele>140</ele>
        <time>2009-05-31T09:01:04Z</time>
      </trkpt>
      <trkpt lat="49.28937" lon="1.40865">
        <ele>140</ele>
        <time>2009-05-31T09:01:06Z</time>
      </trkpt>
      <trkpt lat="49.28928" lon="1.40872">
        <ele>140</ele>
        <time>2009-05-31T09:01:08Z</time>
      </trkpt>
      <trkpt lat="49.28919" lon="1.40879">
        <ele>140</ele>
        <time>2009-05-31T09:01:10Z</time>
      </trkpt>
      <trkpt lat="49.28911" lon="1.40887">
        <ele>140</ele>
        <time>2009-05-31T09:01:12Z</time>
      </trkpt>
      <trkpt lat="49.28899" lon="1.40897">
        <ele>140</ele>
        <time>2009-05-31T09:01:15Z</time>
      </trkpt>
      <trkpt lat="49.28891" lon="1.40903">
        <ele>140</ele>
        <time>2009-05-31T09:01:17Z</time>
      </trkpt>
      <trkpt lat="49.28878" lon="1.40912">
        <ele>140</ele>
        <time>2009-05-31T09:01:20Z</time>
      </trkpt>
      <trkpt lat="49.2887" lon="1.40918">
        <ele>140</ele>
        <time>2009-05-31T09:01:22Z</time>
      </trkpt>
      <trkpt lat="49.28859" lon="1.40927">
        <ele>140</ele>
        <time>2009-05-31T09:01:25Z</time>
      </trkpt>
      <trkpt lat="49.28851" lon="1.40933">
        <ele>140</ele>
        <time>2009-05-31T09:01:27Z</time>
      </trkpt>
      <trkpt lat="49.28842" lon="1.40939">
        <ele>140</ele>
        <time>2009-05-31T09:01:29Z</time>
      </trkpt>
      <trkpt lat="49.2883" lon="1.4095">
        <ele>140</ele>
        <time>2009-05-31T09:01:32Z</time>
      </trkpt>
      <trkpt lat="49.28821" lon="1.40958">
        <ele>140</ele>
        <time>2009-05-31T09:01:34Z</time>
      </trkpt>
      <trkpt lat="49.28812" lon="1.40965">
        <ele>140</ele>
        <time>2009-05-31T09:01:36Z</time>
      </trkpt>
      <trkpt lat="49.28803" lon="1.40974">
        <ele>140</ele>
        <time>2009-05-31T09:01:38Z</time>
      </trkpt>
      <trkpt lat="49.28793" lon="1.40981">
        <ele>140</ele>
        <time>2009-05-31T09:01:40Z</time>
      </trkpt>
      <trkpt lat="49.28783" lon="1.4099">
        <ele>140</ele>
        <time>2009-05-31T09:01:42Z</time>
      </trkpt>
      <trkpt lat="49.28773" lon="1.40998">
        <ele>140</ele>
        <time>2009-05-31T09:01:44Z</time>
      </trkpt>
      <trkpt lat="49.28764" lon="1.41005">
        <ele>140</ele>
        <time>2009-05-31T09:01:46Z</time>
      </trkpt>
      <trkpt lat="49.28755" lon="1.41011">
        <ele>140</ele>
        <time>2009-05-31T09:01:48Z</time>
      </trkpt>
      <trkpt lat="49.28746" lon="1.41018">
        <ele>140</ele>
        <time>2009-05-31T09:01:50Z</time>
      </trkpt>
      <trkpt lat="49.28738" lon="1.41025">
        <ele>140</ele>
        <time>2009-05-31T09:01:52Z</time>
      </trkpt>
      <trkpt lat="49.28728" lon="1.4103">
        <ele>140</ele>
        <time>2009-05-31T09:01:55Z</time>
      </trkpt>
      <trkpt lat="49.2872" lon="1.41019">
        <ele>140</ele>
        <time>2009-05-31T09:01:58Z</time>
      </trkpt>
      <trkpt lat="49.28714" lon="1.41002">
        <ele>140</ele>
        <time>2009-05-31T09:02:01Z</time>
      </trkpt>
      <trkpt lat="49.28709" lon="1.40989">
        <ele>140</ele>
        <time>2009-05-31T09:02:03Z</time>
      </trkpt>
      <trkpt lat="49.28704" lon="1.40975">
        <ele>140</ele>
        <time>2009-05-31T09:02:05Z</time>
      </trkpt>
      <trkpt lat="49.28698" lon="1.40962">
        <ele>140</ele>
        <time>2009-05-31T09:02:07Z</time>
      </trkpt>
      <trkpt lat="49.28692" lon="1.40948">
        <ele>140</ele>
        <time>2009-05-31T09:02:09Z</time>
      </trkpt>
      <trkpt lat="49.28686" lon="1.40933">
        <ele>140</ele>
        <time>2009-05-31T09:02:11Z</time>
      </trkpt>
      <trkpt lat="49.2868" lon="1.4092">
        <ele>140</ele>
        <time>2009-05-31T09:02:13Z</time>
      </trkpt>
      <trkpt lat="49.28674" lon="1.40906">
        <ele>140</ele>
        <time>2009-05-31T09:02:15Z</time>
      </trkpt>
      <trkpt lat="49.28668" lon="1.40895">
        <ele>140</ele>
        <time>2009-05-31T09:02:17Z</time>
      </trkpt>
      <trkpt lat="49.28665" lon="1.4088">
        <ele>140</ele>
        <time>2009-05-31T09:02:19Z</time>
      </trkpt>
      <trkpt lat="49.28667" lon="1.40866">
        <ele>140</ele>
        <time>2009-05-31T09:02:21Z</time>
      </trkpt>
      <trkpt lat="49.28674" lon="1.40855">
        <ele>140</ele>
        <time>2009-05-31T09:02:23Z</time>
      </trkpt>
      <trkpt lat="49.28682" lon="1.40843">
        <ele>140</ele>
        <time>2009-05-31T09:02:25Z</time>
      </trkpt>
      <trkpt lat="49.28689" lon="1.40832">
        <ele>140</ele>
        <time>2009-05-31T09:02:27Z</time>
      </trkpt>
      <trkpt lat="49.28697" lon="1.4082">
        <ele>135</ele>
        <time>2009-05-31T09:02:29Z</time>
      </trkpt>
      <trkpt lat="49.28705" lon="1.40808">
        <ele>135</ele>
        <time>2009-05-31T09:02:31Z</time>
      </trkpt>
      <trkpt lat="49.28713" lon="1.40797">
        <ele>135</ele>
        <time>2009-05-31T09:02:33Z</time>
      </trkpt>
      <trkpt lat="49.28721" lon="1.40786">
        <ele>135</ele>
        <time>2009-05-31T09:02:35Z</time>
      </trkpt>
      <trkpt lat="49.28728" lon="1.40772">
        <ele>135</ele>
        <time>2009-05-31T09:02:37Z</time>
      </trkpt>
      <trkpt lat="49.28739" lon="1.40765">
        <ele>135</ele>
        <time>2009-05-31T09:02:39Z</time>
      </trkpt>
      <trkpt lat="49.28749" lon="1.40758">
        <ele>135</ele>
        <time>2009-05-31T09:02:41Z</time>
      </trkpt>
      <trkpt lat="49.28758" lon="1.40751">
        <ele>135</ele>
        <time>2009-05-31T09:02:43Z</time>
      </trkpt>
      <trkpt lat="49.28768" lon="1.40742">
        <ele>135</ele>
        <time>2009-05-31T09:02:45Z</time>
      </trkpt>
      <trkpt lat="49.28778" lon="1.40736">
        <ele>135</ele>
        <time>2009-05-31T09:02:47Z</time>
      </trkpt>
      <trkpt lat="49.28787" lon="1.40728">
        <ele>135</ele>
        <time>2009-05-31T09:02:49Z</time>
      </trkpt>
      <trkpt lat="49.28797" lon="1.40721">
        <ele>135</ele>
        <time>2009-05-31T09:02:51Z</time>
      </trkpt>
      <trkpt lat="49.28806" lon="1.40713">
        <ele>135</ele>
        <time>2009-05-31T09:02:53Z</time>
      </trkpt>
      <trkpt lat="49.28816" lon="1.40705">
        <ele>135</ele>
        <time>2009-05-31T09:02:55Z</time>
      </trkpt>
      <trkpt lat="49.28824" lon="1.40698">
        <ele>135</ele>
        <time>2009-05-31T09:02:57Z</time>
      </trkpt>
      <trkpt lat="49.28833" lon="1.40691">
        <ele>135</ele>
        <time>2009-05-31T09:02:59Z</time>
      </trkpt>
      <trkpt lat="49.28842" lon="1.4068">
        <ele>135</ele>
        <time>2009-05-31T09:03:02Z</time>
      </trkpt>
      <trkpt lat="49.28853" lon="1.40683">
        <ele>135</ele>
        <time>2009-05-31T09:03:05Z</time>
      </trkpt>
      <trkpt lat="49.28861" lon="1.40691">
        <ele>135</ele>
        <time>2009-05-31T09:03:08Z</time>
      </trkpt>
      <trkpt lat="49.28868" lon="1.40702">
        <ele>135</ele>
        <time>2009-05-31T09:03:12Z</time>
      </trkpt>
      <trkpt lat="49.28874" lon="1.40713">
        <ele>135</ele>
        <time>2009-05-31T09:03:15Z</time>
      </trkpt>
      <trkpt lat="49.28881" lon="1.40725">
        <ele>135</ele>
        <time>2009-05-31T09:03:19Z</time>
      </trkpt>
      <trkpt lat="49.28873" lon="1.40717">
        <ele>144</ele>
        <time>2009-05-31T09:07:54Z</time>
      </trkpt>
      <trkpt lat="49.2888" lon="1.40706">
        <ele>144</ele>
        <time>2009-05-31T09:08:07Z</time>
      </trkpt>
      <trkpt lat="49.28884" lon="1.40718">
        <ele>130</ele>
        <time>2009-05-31T09:08:34Z</time>
      </trkpt>
      <trkpt lat="49.28875" lon="1.40709">
        <ele>138</ele>
        <time>2009-05-31T09:09:50Z</time>
      </trkpt>
      <trkpt lat="49.28869" lon="1.40699">
        <ele>138</ele>
        <time>2009-05-31T09:09:55Z</time>
      </trkpt>
      <trkpt lat="49.28878" lon="1.40707">
        <ele>138</ele>
        <time>2009-05-31T09:10:05Z</time>
      </trkpt>
      <trkpt lat="49.2888" lon="1.4072">
        <ele>144</ele>
        <time>2009-05-31T09:10:11Z</time>
      </trkpt>
      <trkpt lat="49.2889" lon="1.40718">
        <ele>132</ele>
        <time>2009-05-31T09:10:50Z</time>
      </trkpt>
      <trkpt lat="49.28887" lon="1.40731">
        <ele>144</ele>
        <time>2009-05-31T09:11:22Z</time>
      </trkpt>
    </trkseg>
  </trk>
</gpx>